ftp/pub/palmer/observations_modified/2019/July/AR190704_BASE.txt

Download

Sample DateTime	Unit Id	WS Avg 2min	WD Avg 2min	WGS 10min	WGD 10min	Air Temp	Rel Humidity	Dew Point	Pyranometer	Quantum	Air Pressure	Snow Level	Rainfall	PW Current	Visibility	CBase 1	CBase 2	CBase 3	Vert Vis
2019/07/04  00:00:00  BASE  12.8419  17   14.306   19   -2.4  99    -2.5  0     0     999.5    NA       0.0000   9999     2560  0     0    
2019/07/04  00:01:00  BASE  12.3127  18   14.306   19   -2.4  99    -2.5  0     0     999.5    NA       0.0000   9999     2330  0     0    
2019/07/04  00:02:00  BASE  12.2422  17   14.306   19   -2.4  99    -2.5  0     0     999.4    NA       0.0000   9999     0     0     0    
2019/07/04  00:03:00  BASE  12.3304  16   14.306   19   -2.4  99    -2.5  0     0     999.4    NA       0.0000   9999     2100  0     0    
2019/07/04  00:04:00  BASE  12.1951  14   14.2766  18   -2.4  99    -2.5  0     0     999.4    NA       0.0000   9999     0     0     0    
2019/07/04  00:05:00  BASE  12.3186  14   14.2766  18   -2.4  99    -2.5  0     0     999.3    NA       0.0000   9999     1120  0     0    
2019/07/04  00:06:00  BASE  12.5773  13   14.2766  18   -2.3  99    -2.5  0     0     999.3    NA       0.0000   9999     1510  0     0    
2019/07/04  00:07:00  BASE  12.1128  13   14.2766  18   -2.3  99    -2.4  0     0     999.4    NA       0.0000   9999     1710  0     0    
2019/07/04  00:08:00  BASE  11.3425  15   14.2766  18   -2.2  99    -2.4  0     0     999.5    NA       0.0000   9999     1150  0     0    
2019/07/04  00:09:00  BASE  10.7604  14   13.9474  17   -2.2  99    -2.4  0     0     999.4    NA       0.0000   9999     1210  0     0    
2019/07/04  00:10:00  BASE  11.2543  16   13.9474  17   -2.2  99    -2.4  0     0     999.3    NA       0.0000   9999     980   0     0    
2019/07/04  00:11:00  BASE  12.1422  17   13.8533  16   -2.2  98    -2.4  0     0     999.3    NA       0.0000   9999     1210  0     0    
2019/07/04  00:12:00  BASE  12.3362  18   13.3123  20   -2.2  98    -2.5  0     0     999.2    NA       0.0000   9999     1540  0     0    
2019/07/04  00:13:00  BASE  11.9482  17   13.3123  20   -2.3  98    -2.5  0     0     999.2    NA       0.0000   9999     1350  0     0    
2019/07/04  00:14:00  BASE  11.6071  16   13.3123  20   -2.3  98    -2.6  0     0     999.2    NA       0.0000   9999     1480  0     0    
2019/07/04  00:15:00  BASE  11.3837  17   13.3123  20   -2.3  98    -2.6  0     0     999.2    NA       0.0000   9999     1640  0     0    
2019/07/04  00:16:00  BASE  11.6189  19   13.3123  20   -2.3  98    -2.6  0     0     999.2    NA       0.0000   9999     2100  0     0    
2019/07/04  00:17:00  BASE  12.595   20   13.6416  24   -2.3  98    -2.6  0     0     999.1    NA       0.0000   9999     4560  0     0    
2019/07/04  00:18:00  BASE  12.8537  20   13.6416  24   -2.3  98    -2.6  0     0     999.1    NA       0.0000   9999     2460  0     0    
2019/07/04  00:19:00  BASE  12.5714  16   13.6416  22   -2.3  98    -2.6  0     0     999.1    NA       0.0000   9999     1870  0     0    
2019/07/04  00:20:00  BASE  12.6126  9    14.159   6    -2.2  97    -2.6  0     0     999.0    NA       0.0000   9999     1740  0     0    
2019/07/04  00:21:00  BASE  12.3892  7    14.159   6    -2.2  97    -2.6  0     0     999.0    NA       0.0000   9999     2030  0     0    
2019/07/04  00:22:00  BASE  11.9893  9    14.159   6    -2.1  97    -2.6  0     0     999.1    NA       0.0000   9999     1250  0     0    
2019/07/04  00:23:00  BASE  11.8835  11   14.159   6    -2.1  97    -2.5  0     0     999.1    NA       0.0000   9999     1940  0     0    
2019/07/04  00:24:00  BASE  11.6542  10   14.159   6    -2.0  97    -2.5  0     0     999.0    NA       0.0000   9999     3150  0     0    
2019/07/04  00:25:00  BASE  11.366   10   14.159   6    -2.0  96    -2.5  0     0     999.1    NA       0.0000   9999     1800  3080  0    
2019/07/04  00:26:00  BASE  10.9015  12   14.159   6    -2.0  96    -2.5  0     0     999.1    NA       0.0000   9999     1970  0     0    
2019/07/04  00:27:00  BASE  10.8545  13   14.159   6    -2.0  96    -2.6  0     0     999.1    NA       0.0000   9999     1840  3380  0    
2019/07/04  00:28:00  BASE  11.3719  17   14.159   6    -2.0  96    -2.6  0     0     999.0    NA       0.0000   9999     2170  0     0    
2019/07/04  00:29:00  BASE  11.9011  20   14.159   6    -2.1  96    -2.6  0     0     999.0    NA       0.0000   9999     2170  0     0    
2019/07/04  00:30:00  BASE  12.5068  21   13.4299  22   -2.1  96    -2.7  0     0     998.9    NA       0.0000   9999     2100  0     0    
2019/07/04  00:31:00  BASE  12.2245  22   13.4299  22   -2.1  96    -2.7  0     0     998.9    NA       0.0000   9999     2170  3050  0    
2019/07/04  00:32:00  BASE  11.466   22   13.4299  22   -2.2  96    -2.8  0     0     998.9    NA       0.0000   9999     2030  0     0    
2019/07/04  00:33:00  BASE  11.0485  23   13.4299  22   -2.2  96    -2.8  0     0     998.9    NA       0.0000   9999     1940  0     0    
2019/07/04  00:34:00  BASE  11.4307  23   13.4299  22   -2.2  95    -2.8  0     0     998.8    NA       0.0000   9999     1800  3220  0    
2019/07/04  00:35:00  BASE  11.7424  23   13.4299  22   -2.2  95    -2.9  0     0     998.7    NA       0.0000   9999     3450  4590  0    
2019/07/04  00:36:00  BASE  11.9246  21   13.4299  22   -2.2  95    -2.9  0     0     998.7    NA       0.0000   9999     3670  0     0    
2019/07/04  00:37:00  BASE  12.1304  16   13.4299  22   -2.2  95    -2.9  0     0     998.6    NA       0.0000   9999     3540  4560  0    
2019/07/04  00:38:00  BASE  11.8129  18   13.4299  22   -2.1  95    -2.8  0     0     998.7    NA       0.0000   9999     2100  3310  0    
2019/07/04  00:39:00  BASE  12.0658  23   13.5534  24   -2.1  95    -2.8  0     0     998.6    NA       0.0000   9999     2890  0     0    
2019/07/04  00:40:00  BASE  12.5303  23   13.9474  25   -2.0  95    -2.8  0     0     998.6    NA       0.0000   9999     2300  4040  0    
2019/07/04  00:41:00  BASE  12.789   25   13.9474  25   -2.0  95    -2.8  0     0     998.6    NA       0.0000   9999     3970  0     0    
2019/07/04  00:42:00  BASE  12.7067  26   13.9474  25   -2.1  94    -2.9  0     0     998.5    NA       0.0000   9999     3940  0     0    
2019/07/04  00:43:00  BASE  12.6832  24   14.4295  22   -2.1  94    -3.0  0     0     998.5    NA       0.0000   9999     3410  0     0    
2019/07/04  00:44:00  BASE  12.9536  25   14.4295  22   -2.2  94    -3.1  0     0     998.4    NA       0.0000   9999     3610  0     0    
2019/07/04  00:45:00  BASE  12.8596  27   14.6412  24   -2.2  93    -3.1  0     0     998.4    NA       0.0000   9999     3640  0     0    
2019/07/04  00:46:00  BASE  12.7949  29   14.6412  24   -2.2  93    -3.2  0     0     998.3    NA       0.0000   9999     3640  0     0    
2019/07/04  00:47:00  BASE  13.3123  27   15.2174  15   -2.3  93    -3.2  0     0     998.2    NA       0.0000   9999     3900  0     0    
2019/07/04  00:48:00  BASE  13.9591  26   15.2174  15   -2.3  93    -3.3  0     0     998.2    NA       0.0000   9999     3900  4720  0    
2019/07/04  00:49:00  BASE  13.6769  25   15.5173  25   -2.3  93    -3.3  0     0     998.2    NA       0.0000   9999     3710  4560  0    
2019/07/04  00:50:00  BASE  13.7239  24   15.6114  29   -2.3  93    -3.3  0     0     998.1    NA       0.0000   9999     3640  4560  0    
2019/07/04  00:51:00  BASE  14.4766  26   15.6114  25   -2.3  93    -3.3  0     0     998.0    NA       0.0000   9999     3810  0     0    
2019/07/04  00:52:00  BASE  13.9591  27   15.6114  25   -2.3  93    -3.3  0     0     998.1    NA       0.0000   9999     0     0     0    
2019/07/04  00:53:00  BASE  13.8004  24   15.9407  22   -2.3  93    -3.3  0     0     998.0    NA       0.0000   9999     0     0     0    
2019/07/04  00:54:00  BASE  14.1649  22   15.9407  22   -2.3  93    -3.3  0     0     998.0    NA       0.0000   9999     0     0     0    
2019/07/04  00:55:00  BASE  13.9944  23   15.9407  22   -2.3  93    -3.3  0     0     998.0    NA       0.0000   9999     0     0     0    
2019/07/04  00:56:00  BASE  14.3178  22   15.9407  22   -2.3  93    -3.2  0     0     997.9    NA       0.0000   9999     4000  0     0    
2019/07/04  00:57:00  BASE  14.6177  21   15.9407  22   -2.2  93    -3.2  0     0     997.9    NA       0.0000   9999     3900  0     0    
2019/07/04  00:58:00  BASE  14.1826  21   16.123   27   -2.2  93    -3.1  0     0     997.9    NA       0.0000   9999     4040  0     0    
2019/07/04  00:59:00  BASE  14.7764  22   17.5753  26   -2.1  93    -3.1  0     0     997.7    NA       0.0000   9999     4070  0     0    
2019/07/04  01:00:00  BASE  15.2116  22   17.5753  26   -2.0  93    -3.0  0     0     997.8    NA       0.0000   9999     4040  0     0    
2019/07/04  01:01:00  BASE  14.3531  22   17.5753  26   -2.0  93    -2.9  0     0     997.7    NA       0.0000   9999     4040  0     0    
2019/07/04  01:02:00  BASE  14.1296  22   17.5753  26   -1.9  93    -2.9  0     0     997.8    NA       0.0000   9999     3970  0     0    
2019/07/04  01:03:00  BASE  14.7     22   17.5753  26   -1.9  93    -2.9  0     0     997.7    NA       0.0000   9999     3870  0     0    
2019/07/04  01:04:00  BASE  14.6236  21   17.5753  26   -1.9  93    -2.9  0     0     997.7    NA       0.0000   9999     3770  0     0    
2019/07/04  01:05:00  BASE  14.2002  21   17.5753  26   -1.8  92    -2.9  0     0     997.7    NA       0.0000   9999     3810  0     0    
2019/07/04  01:06:00  BASE  14.1179  21   17.5753  26   -1.8  92    -2.9  0     0     997.6    NA       0.0000   9999     3810  0     0    
2019/07/04  01:07:00  BASE  13.7533  22   17.5753  26   -1.8  92    -2.9  0     0     997.7    NA       0.0000   9999     3740  0     0    
2019/07/04  01:08:00  BASE  13.9885  23   17.5753  26   -1.8  92    -3.0  0     0     997.6    NA       0.0000   9999     3770  0     0    
2019/07/04  01:09:00  BASE  14.5648  22   16.4228  25   -1.8  92    -3.0  0     0     997.5    NA       0.0000   9999     3770  0     0    
2019/07/04  01:10:00  BASE  14.7118  23   16.4228  25   -1.8  91    -3.0  0     0     997.5    NA       0.0000   9999     3740  0     0    
2019/07/04  01:11:00  BASE  14.5883  22   16.4228  25   -1.8  91    -3.1  0     0     997.4    NA       0.0000   9999     3670  0     0    
2019/07/04  01:12:00  BASE  14.8294  23   16.4228  25   -1.8  91    -3.1  0     0     997.4    NA       0.0000   9999     3580  0     0    
2019/07/04  01:13:00  BASE  15.1116  24   16.8815  23   -1.9  91    -3.1  0     0     997.3    NA       0.0000   9999     3770  4690  9780 
2019/07/04  01:14:00  BASE  15.6643  24   18.816   30   -1.9  91    -3.1  0     0     997.1    NA       0.0000   9999     3740  0     0    
2019/07/04  01:15:00  BASE  16.2641  24   18.816   30   -1.9  91    -3.2  0     0     997.1    NA       0.0000   9999     3510  0     0    
2019/07/04  01:16:00  BASE  16.2876  23   18.816   30   -1.9  91    -3.2  0     0     997.0    NA       0.0000   9999     3540  0     0    
2019/07/04  01:17:00  BASE  16.4228  23   18.816   30   -1.9  91    -3.2  0     0     997.0    NA       0.0000   9999     3410  0     0    
2019/07/04  01:18:00  BASE  16.711   24   18.816   30   -1.9  91    -3.2  0     0     996.9    NA       0.0000   9999     3480  4300  0    
2019/07/04  01:19:00  BASE  17.0226  25   18.816   30   -1.9  91    -3.2  0     0     996.9    NA       0.0000   9999     3510  4330  0    
2019/07/04  01:20:00  BASE  16.9814  24   19.5392  25   -1.9  91    -3.1  0     0     996.8    NA       0.0000   9999     3380  4230  0    
2019/07/04  01:21:00  BASE  17.4048  21   19.5392  25   -1.8  91    -3.1  0     0     996.7    NA       0.0000   9999     3450  4170  9880 
2019/07/04  01:22:00  BASE  18.4926  20   20.48    21   -1.8  92    -3.0  0     0     996.6    NA       0.0000   9999     3380  4170  5020 
2019/07/04  01:23:00  BASE  19.0394  22   20.6623  24   -1.8  92    -2.9  0     0     996.7    NA       0.0000   9999     3670  0     0    
2019/07/04  01:24:00  BASE  18.4691  19   20.6623  24   -1.7  91    -2.9  0     0     996.7    NA       0.0000   9999     3670  0     0    
2019/07/04  01:25:00  BASE  17.3342  14   20.6623  24   -1.7  91    -3.0  0     0     996.8    NA       0.0000   9999     3740  0     0    
2019/07/04  01:26:00  BASE  16.5228  15   20.6623  24   -1.7  91    -2.9  0     0     996.9    NA       0.0000   9999     3710  4430  0    
2019/07/04  01:27:00  BASE  16.6345  16   20.6623  24   -1.7  91    -3.0  0     0     996.9    NA       0.0000   9999     3670  0     0    
2019/07/04  01:28:00  BASE  16.7345  18   20.6623  24   -1.7  91    -3.0  0     0     996.9    NA       0.0000   9999     3640  0     0    
2019/07/04  01:29:00  BASE  15.8642  18   20.6623  24   -1.7  91    -3.0  0     0     997.0    NA       0.0000   9999     3640  0     0    
2019/07/04  01:30:00  BASE  15.1939  18   20.6623  24   -1.7  91    -3.0  0     0     997.2    NA       0.0000   9999     3480  0     0    
2019/07/04  01:31:00  BASE  15.5173  20   20.6623  24   -1.7  91    -3.0  0     0     997.0    NA       0.0000   9999     3310  0     0    
2019/07/04  01:32:00  BASE  16.4228  22   20.6623  24   -1.7  91    -3.0  0     0     997.0    NA       0.0000   9999     3350  0     0    
2019/07/04  01:33:00  BASE  16.8344  23   20.2978  19   -1.7  91    -2.9  0     0     996.9    NA       0.0000   9999     3510  0     0    
2019/07/04  01:34:00  BASE  17.246   21   20.2978  19   -1.6  91    -2.9  0     0     996.8    NA       0.0000   9999     3480  0     0    
2019/07/04  01:35:00  BASE  18.1339  20   20.2978  19   -1.6  91    -2.9  0     0     996.7    NA       0.0000   9999     2760  0     0    
2019/07/04  01:36:00  BASE  18.0398  20   20.2978  19   -1.6  91    -2.9  0     0     996.8    NA       0.0000   9999     2790  0     0    
2019/07/04  01:37:00  BASE  17.5459  23   20.2978  19   -1.6  91    -2.9  0     0     996.8    NA       0.0000   9999     2990  0     0    
2019/07/04  01:38:00  BASE  17.834   25   21.6913  23   -1.6  91    -2.9  0     0     996.8    NA       0.0000   9999     3020  0     0    
2019/07/04  01:39:00  BASE  18.0222  25   21.6913  23   -1.6  90    -2.9  0     0     996.8    NA       0.0000   9999     3180  0     0    
2019/07/04  01:40:00  BASE  17.5988  22   21.6913  23   -1.6  90    -3.0  0     0     996.8    NA       0.0000   UP       9999  3540  0    
2019/07/04  01:41:00  BASE  17.3754  21   21.6913  23   -1.6  90    -3.0  0     0     996.7    NA       0.0000   UP       9999  3580  0    
2019/07/04  01:42:00  BASE  17.9281  23   21.6913  23   -1.6  90    -3.0  0     0     996.7    NA       0.0000   UP       9999  3670  0    
2019/07/04  01:43:00  BASE  18.6514  23   21.6913  23   -1.6  91    -3.0  0     0     996.6    NA       0.0000   UP       9999  3740  0    
2019/07/04  01:44:00  BASE  18.6337  21   21.6913  23   -1.6  91    -3.0  0     0     996.7    NA       0.0000   UP       9999  2990  0    
2019/07/04  01:45:00  BASE  19.0453  21   21.6913  23   -1.6  91    -2.9  0     0     996.6    NA       0.0000   UP       9999  1570  0    
2019/07/04  01:46:00  BASE  18.9924  20   21.6913  23   -1.6  91    -2.9  0     0     996.7    NA       0.0000   UP       9999  2890  0    
2019/07/04  01:47:00  BASE  18.275   19   21.6913  23   -1.6  91    -2.9  0     0     996.7    NA       0.0000   UP       9999  0     0    
2019/07/04  01:48:00  BASE  18.5632  21   21.0563  22   -1.6  91    -2.9  0     0     996.6    NA       0.0000   UP       9999  3580  0    
2019/07/04  01:49:00  BASE  18.4573  21   21.0563  22   -1.6  91    -2.8  0     0     996.6    NA       0.0000   UP       9999  0     0    
2019/07/04  01:50:00  BASE  18.0163  20   21.0563  22   -1.6  91    -2.8  0     0     996.6    NA       0.0000   UP       9999  0     0    
2019/07/04  01:51:00  BASE  18.9454  21   21.7501  17   -1.6  92    -2.8  0     0     996.5    NA       0.0000   UP       9999  0     0    
2019/07/04  01:52:00  BASE  19.5216  21   21.7501  17   -1.6  92    -2.7  0     0     996.6    NA       0.0000   UP       9999  0     0    
2019/07/04  01:53:00  BASE  18.9689  21   21.7501  17   -1.5  92    -2.7  0     0     996.5    NA       0.0000   UP       9999  0     0    
2019/07/04  01:54:00  BASE  19.0982  20   21.7501  17   -1.5  92    -2.6  0     0     996.4    NA       0.0000   UP       9999  0     0    
2019/07/04  01:55:00  BASE  19.3864  20   21.7501  17   -1.5  92    -2.6  0     0     996.4    NA       0.0000   UP       9999  0     0    
2019/07/04  01:56:00  BASE  19.2276  21   21.7501  17   -1.5  92    -2.6  0     0     996.4    NA       0.0000   UP       9999  0     0    
2019/07/04  01:57:00  BASE  18.5984  20   21.7501  17   -1.4  92    -2.6  0     0     996.4    NA       0.0000   UP       9999  0     0    
2019/07/04  01:58:00  BASE  18.081   21   21.7501  17   -1.4  92    -2.5  0     0     996.5    NA       0.0000   UP       9999  0     0    
2019/07/04  01:59:00  BASE  18.1045  22   21.7501  17   -1.4  92    -2.5  0     0     996.5    NA       0.0000   UP       9999  0     0    
2019/07/04  02:00:00  BASE  17.9164  21   21.7501  17   -1.4  93    -2.5  0     0     996.4    NA       0.0000   UP       9999  0     0    
2019/07/04  02:01:00  BASE  17.9046  21   21.1445  25   -1.4  93    -2.4  0     0     996.3    NA       0.0000   UP       9999  0     0    
2019/07/04  02:02:00  BASE  18.4397  20   21.1445  25   -1.4  93    -2.4  0     0     996.1    NA       0.0000   UP       9999  0     0    
2019/07/04  02:03:00  BASE  18.7984  20   21.1445  25   -1.4  93    -2.4  0     0     996.0    NA       0.0000   UP       9999  0     0    
2019/07/04  02:04:00  BASE  19.3334  22   21.268   23   -1.4  93    -2.4  0     0     995.9    NA       0.0000   UP       8000  390   0    
2019/07/04  02:05:00  BASE  20.0038  22   21.268   23   -1.4  93    -2.4  0     0     995.9    NA       0.0000   -SN      7000  0     0    
2019/07/04  02:06:00  BASE  20.2919  23   22.05    25   -1.4  93    -2.4  0     0     995.7    NA       0.0000   -SN      5000  0     0    
2019/07/04  02:07:00  BASE  19.7392  23   22.05    25   -1.4  93    -2.4  0     0     996.0    NA       0.0000   -SN      BR    4800  0    
2019/07/04  02:08:00  BASE  19.4922  21   22.05    25   -1.4  93    -2.4  0     0     995.9    NA       0.0000   -SN      BR    4500  0    
2019/07/04  02:09:00  BASE  19.8038  20   22.05    25   -1.4  93    -2.4  0     0     995.7    NA       0.0000   -SN      BR    4500  0    
2019/07/04  02:10:00  BASE  20.0038  21   22.05    25   -1.5  93    -2.4  0     0     995.7    NA       0.0000   -SN      BR    4300  0    
2019/07/04  02:11:00  BASE  19.7744  20   22.05    25   -1.5  93    -2.4  0     0     995.8    NA       0.0000   -SN      BR    4800  0    
2019/07/04  02:12:00  BASE  19.2746  22   22.05    25   -1.5  94    -2.4  0     0     995.8    NA       0.0000   -SN      BR    5000  0    
2019/07/04  02:13:00  BASE  19.2923  21   22.05    25   -1.5  94    -2.4  0     0     995.7    NA       0.0000   -SN      BR    5000  0    
2019/07/04  02:14:00  BASE  19.8156  20   22.6556  27   -1.5  94    -2.3  0     0     995.5    NA       0.0000   -SN      BR    6000  0    
2019/07/04  02:15:00  BASE  19.6627  22   22.6556  27   -1.4  94    -2.3  0     0     995.6    NA       0.0000   -SN      BR    8000  0    
2019/07/04  02:16:00  BASE  18.5514  23   22.6556  27   -1.4  94    -2.2  0     0     995.5    NA       0.0000   -SN      BR    8000  0    
2019/07/04  02:17:00  BASE  17.8399  24   22.6556  27   -1.4  94    -2.2  0     0     995.6    NA       0.0000   -SN      BR    6000  0    
2019/07/04  02:18:00  BASE  18.2809  26   22.6556  27   -1.3  94    -2.2  0     0     995.5    NA       0.0000   -SN      BR    5000  0    
2019/07/04  02:19:00  BASE  18.9865  27   22.6556  27   -1.4  94    -2.2  0     0     995.5    NA       0.0000   -SN      BR    5000  0    
2019/07/04  02:20:00  BASE  19.4804  25   22.6556  27   -1.4  94    -2.2  0     0     995.4    NA       0.0000   -SN      BR    6000  0    
2019/07/04  02:21:00  BASE  19.3276  22   22.6556  27   -1.4  94    -2.3  0     0     995.5    NA       0.0000   -SN      BR    5000  0    
2019/07/04  02:22:00  BASE  19.9508  22   22.7791  27   -1.4  94    -2.3  0     0     995.3    NA       0.0000   -SN      BR    5000  0    
2019/07/04  02:23:00  BASE  20.6329  23   22.7791  27   -1.4  94    -2.3  0     0     995.4    NA       0.0000   -SN      BR    5000  0    
2019/07/04  02:24:00  BASE  19.6216  24   22.7791  27   -1.4  94    -2.3  0     0     995.5    NA       0.0000   -SN      BR    4500  0    
2019/07/04  02:25:00  BASE  19.4334  21   22.7791  27   -1.4  94    -2.2  0     0     995.5    NA       0.0000   -SN      BR    4900  0    
2019/07/04  02:26:00  BASE  19.3628  19   22.7791  27   -1.4  94    -2.2  0     0     995.5    NA       0.0000   -SN      BR    5000  0    
2019/07/04  02:27:00  BASE  19.4628  19   22.7791  27   -1.4  94    -2.2  0     0     995.5    NA       0.0000   -SN      BR    6000  0    
2019/07/04  02:28:00  BASE  20.2684  21   22.7791  27   -1.4  94    -2.2  0     0     995.5    NA       0.0000   -SN      BR    5000  0    
2019/07/04  02:29:00  BASE  19.6157  21   22.7791  27   -1.4  94    -2.2  0     0     995.7    NA       0.0000   -SN      BR    5000  0    
2019/07/04  02:30:00  BASE  18.3044  20   22.7791  27   -1.4  94    -2.2  0     0     995.6    NA       0.0000   -SN      BR    6000  0    
2019/07/04  02:31:00  BASE  17.7694  16   22.7791  27   -1.4  94    -2.2  0     0     995.6    NA       0.0000   -SN      BR    9000  0    
2019/07/04  02:32:00  BASE  17.74    16   22.2029  24   -1.4  94    -2.2  0     0     995.6    NA       0.0000   -SN      BR    9000  0    
2019/07/04  02:33:00  BASE  18.2574  19   22.2029  24   -1.3  94    -2.2  0     0     995.5    NA       0.0000   -SN      BR    7000  0    
2019/07/04  02:34:00  BASE  18.9277  22   22.2029  24   -1.3  94    -2.2  0     0     995.4    NA       0.0000   -SN      BR    5000  0    
2019/07/04  02:35:00  BASE  19.2041  23   22.1441  17   -1.3  94    -2.1  0     0     995.4    NA       0.0000   -SN      BR    5000  0    
2019/07/04  02:36:00  BASE  19.8038  22   21.7207  18   -1.3  94    -2.1  0     0     995.3    NA       0.0000   -SN      BR    4500  0    
2019/07/04  02:37:00  BASE  19.7744  19   21.656   20   -1.3  94    -2.2  0     0     995.3    NA       0.0000   -SN      BR    3900  0    
2019/07/04  02:38:00  BASE  18.9512  19   21.656   20   -1.3  94    -2.2  0     0     995.4    NA       0.0000   -SN      BR    4400  0    
2019/07/04  02:39:00  BASE  19.4569  22   22.2617  14   -1.3  94    -2.1  0     0     995.4    NA       0.0000   -SN      BR    3800  0    
2019/07/04  02:40:00  BASE  20.0743  19   22.2617  14   -1.3  94    -2.1  0     0     995.5    NA       0.0000   -SN      BR    3400  0    
2019/07/04  02:41:00  BASE  19.0453  16   22.2617  14   -1.2  94    -2.1  0     0     995.8    NA       0.0000   -SN      BR    3600  0    
2019/07/04  02:42:00  BASE  17.9928  14   22.2617  14   -1.2  94    -2.1  0     0     995.7    NA       0.0000   -SN      BR    3700  0    
2019/07/04  02:43:00  BASE  17.9164  16   22.2617  14   -1.2  94    -2.1  0     0     995.7    NA       0.0000   -SN      BR    3800  0    
2019/07/04  02:44:00  BASE  18.0222  16   22.2617  14   -1.3  94    -2.1  0     0     995.7    NA       0.0000   -SN      BR    3900  0    
2019/07/04  02:45:00  BASE  18.7043  17   22.2617  14   -1.3  94    -2.1  0     0     995.6    NA       0.0000   -SN      BR    4500  0    
2019/07/04  02:46:00  BASE  18.5749  17   22.2617  14   -1.3  95    -2.1  0     0     995.7    NA       0.0000   -SN      BR    4800  0    
2019/07/04  02:47:00  BASE  18.0046  17   22.2617  14   -1.3  95    -2.1  0     0     995.7    NA       0.0000   -SN      BR    4400  0    
2019/07/04  02:48:00  BASE  18.0986  17   22.2617  14   -1.4  95    -2.1  0     0     995.7    NA       0.0000   -SN      BR    4500  0    
2019/07/04  02:49:00  BASE  17.5459  18   21.3268  19   -1.4  95    -2.1  0     0     995.8    NA       0.0000   -SN      BR    3600  0    
2019/07/04  02:50:00  BASE  17.0873  18   21.3268  19   -1.4  95    -2.0  0     0     995.9    NA       0.0000   -SN      BR    3300  0    
2019/07/04  02:51:00  BASE  17.6694  18   21.2327  18   -1.4  95    -2.0  0     0     995.7    NA       0.0000   -SN      BR    3200  0    
2019/07/04  02:52:00  BASE  18.422   19   21.2327  18   -1.4  96    -2.0  0     0     995.7    NA       0.0000   -SN      BR    3600  0    
2019/07/04  02:53:00  BASE  18.5161  19   21.2327  18   -1.4  96    -2.0  0     0     995.7    NA       0.0000   -SN      BR    3700  0    
2019/07/04  02:54:00  BASE  17.9987  19   21.2327  18   -1.4  96    -2.0  0     0     995.8    NA       0.0000   -SN      BR    4200  0    
2019/07/04  02:55:00  BASE  18.0046  19   20.9622  19   -1.4  96    -2.0  0     0     995.8    NA       0.0000   -SN      BR    4300  0    
2019/07/04  02:56:00  BASE  18.2692  18   20.9622  19   -1.4  96    -1.9  0     0     995.7    NA       0.0000   -SN      BR    4000  0    
2019/07/04  02:57:00  BASE  17.7929  17   20.9622  19   -1.4  96    -1.9  0     0     995.9    NA       0.0000   -SN      BR    3700  0    
2019/07/04  02:58:00  BASE  16.8874  16   20.9622  19   -1.4  96    -1.9  0     0     995.9    NA       0.0000   -SN      BR    4700  0    
2019/07/04  02:59:00  BASE  17.005   16   20.9622  19   -1.3  97    -1.8  0     0     996.0    NA       0.0000   -SN      BR    4700  0    
2019/07/04  03:00:00  BASE  17.3695  13   20.9622  19   -1.3  97    -1.8  0     0     995.8    NA       0.0000   -SN      BR    4200  0    
2019/07/04  03:01:00  BASE  16.4111  12   20.9622  19   -1.3  97    -1.7  0     0     995.9    NA       0.0000   -SN      BR    5000  0    
2019/07/04  03:02:00  BASE  15.9877  14   19.7215  11   -1.3  97    -1.7  0     0     995.9    NA       0.0000   -SN      BR    9999  0    
2019/07/04  03:03:00  BASE  15.8819  14   19.7215  11   -1.3  97    -1.8  0     0     996.1    NA       0.0000   -SN      BR    8000  0    
2019/07/04  03:04:00  BASE  16.5169  17   19.7215  11   -1.3  97    -1.7  0     0     996.0    NA       0.0000   -SN      BR    7000  0    
2019/07/04  03:05:00  BASE  17.4107  19   19.7215  11   -1.3  97    -1.7  0     0     995.9    NA       0.0000   -SN      BR    3800  0    
2019/07/04  03:06:00  BASE  18.0457  21   20.6623  21   -1.4  97    -1.8  0     0     995.8    NA       0.0000   -SN      BR    3200  0    
2019/07/04  03:07:00  BASE  18.2456  21   20.6623  21   -1.4  97    -1.8  0     0     995.8    NA       0.0000   -SN      BR    3000  0    
2019/07/04  03:08:00  BASE  16.9991  18   20.6623  21   -1.4  97    -1.8  0     0     996.0    NA       0.0000   -SN      BR    2700  0    
2019/07/04  03:09:00  BASE  16.6228  15   20.6623  21   -1.4  97    -1.8  0     0     996.0    NA       0.0000   -SN      BR    2700  0    
2019/07/04  03:10:00  BASE  14.9646  14   20.6623  21   -1.4  97    -1.8  0     0     996.3    NA       0.0000   -SN      BR    3500  0    
2019/07/04  03:11:00  BASE  14.5118  16   20.6623  21   -1.4  97    -1.8  0     0     996.1    NA       0.0000   -SN      BR    3900  0    
2019/07/04  03:12:00  BASE  15.7819  16   20.6623  21   -1.4  97    -1.8  0     0     996.1    NA       0.0000   -SN      BR    3600  0    
2019/07/04  03:13:00  BASE  15.5585  16   20.6623  21   -1.4  97    -1.8  0     0     996.1    NA       0.0000   -SN      BR    3200  0    
2019/07/04  03:14:00  BASE  15.5291  15   20.6623  21   -1.4  98    -1.7  0     0     996.2    NA       0.0000   -SN      BR    3200  0    
2019/07/04  03:15:00  BASE  15.2704  11   20.6623  21   -1.4  98    -1.7  0     0     996.1    NA       0.0000   -SN      BR    3900  0    
2019/07/04  03:16:00  BASE  15.7819  11   19.3276  14   -1.4  98    -1.7  0     0     996.1    NA       0.0000   -SN      BR    4200  0    
2019/07/04  03:17:00  BASE  17.2284  17   19.8744  13   -1.4  98    -1.7  0     0     996.0    NA       0.0000   -SN      BR    3200  0    
2019/07/04  03:18:00  BASE  18.3574  20   20.6623  25   -1.4  98    -1.7  0     0     995.9    NA       0.0000   -SN      BR    2500  0    
2019/07/04  03:19:00  BASE  18.8278  21   20.6623  25   -1.4  98    -1.7  0     0     995.8    NA       0.0000   -SN      BR    2400  0    
2019/07/04  03:20:00  BASE  19.6039  22   21.5972  21   -1.4  98    -1.7  0     0     995.8    NA       0.0000   -SN      BR    2300  0    
2019/07/04  03:21:00  BASE  19.5275  21   21.7207  23   -1.5  98    -1.7  0     0     995.9    NA       0.0000   -SN      BR    2300  0    
2019/07/04  03:22:00  BASE  18.3456  21   21.7207  23   -1.5  98    -1.8  0     0     996.1    NA       0.0000   -SN      BR    2200  0    
2019/07/04  03:23:00  BASE  17.5694  21   21.7207  23   -1.5  98    -1.7  0     0     996.2    NA       0.0000   -SN      BR    2300  0    
2019/07/04  03:24:00  BASE  17.0226  20   21.7207  23   -1.5  98    -1.7  0     0     996.1    NA       0.0000   -SN      BR    2400  0    
2019/07/04  03:25:00  BASE  15.729   16   21.7207  23   -1.5  99    -1.7  0     0     996.4    NA       0.0000   -SN      BR    2600  0    
2019/07/04  03:26:00  BASE  14.7118  15   21.7207  23   -1.5  99    -1.7  0     0     996.3    NA       0.0000   -SN      BR    3000  0    
2019/07/04  03:27:00  BASE  15.6232  17   21.7207  23   -1.5  99    -1.6  0     0     996.2    NA       0.0000   -SN      BR    3200  0    
2019/07/04  03:28:00  BASE  16.7992  18   21.7207  23   -1.5  99    -1.6  0     0     996.1    NA       0.0000   -SN      BR    2600  0    
2019/07/04  03:29:00  BASE  17.4224  17   21.7207  23   -1.5  99    -1.6  0     0     996.1    NA       0.0000   -SN      BR    2400  0    
2019/07/04  03:30:00  BASE  17.5753  15   21.7207  23   -1.5  99    -1.6  0     0     996.1    NA       0.0000   -SN      BR    2700  0    
2019/07/04  03:31:00  BASE  17.0873  16   20.7799  20   -1.5  99    -1.6  0     0     996.1    NA       0.0000   -SN      BR    3200  0    
2019/07/04  03:32:00  BASE  16.8462  19   20.7799  20   -1.5  99    -1.6  0     0     996.1    NA       0.0000   -SN      BR    2900  0    
2019/07/04  03:33:00  BASE  18.0869  21   20.7799  20   -1.5  99    -1.6  0     0     995.9    NA       0.0000   -SN      BR    2700  0    
2019/07/04  03:34:00  BASE  18.4926  22   20.7799  20   -1.5  99    -1.6  0     0     996.0    NA       0.0000   -SN      BR    2000  0    
2019/07/04  03:35:00  BASE  17.6224  19   20.7799  20   -1.5  99    -1.6  0     0     996.0    NA       0.0000   -SN      BR    1700  0    
2019/07/04  03:36:00  BASE  17.5106  19   20.7799  20   -1.5  99    -1.6  0     0     996.0    NA       0.0000   -SN      BR    2400  0    
2019/07/04  03:37:00  BASE  18.6102  20   20.7799  20   -1.5  99    -1.6  0     0     995.7    NA       0.0000   -SN      BR    1700  0    
2019/07/04  03:38:00  BASE  18.8336  20   20.1155  20   -1.5  99    -1.6  0     0     995.9    NA       0.0000   -SN      BR    2300  0    
2019/07/04  03:39:00  BASE  18.4691  21   20.9916  23   -1.5  99    -1.6  0     0     995.9    NA       0.0000   -SN      BR    5000  0    
2019/07/04  03:40:00  BASE  18.3162  21   20.9916  23   -1.5  100   -1.6  0     0     995.9    NA       0.0000   -SN      BR    6000  0    
2019/07/04  03:41:00  BASE  16.7815  18   20.9916  23   -1.5  100   -1.6  0     0     996.1    NA       0.0000   -SN      BR    7000  0    
2019/07/04  03:42:00  BASE  16.0759  16   20.9916  23   -1.6  100   -1.6  0     0     996.0    NA       0.0000   -SN      BR    9999  0    
2019/07/04  03:43:00  BASE  16.4699  17   20.9916  23   -1.6  100   -1.6  0     0     996.0    NA       0.0000   -SN      BR    9999  0    
2019/07/04  03:44:00  BASE  16.4581  18   20.9916  23   -1.6  100   -1.6  0     0     995.9    NA       0.0000   -SN      BR    9999  0    
2019/07/04  03:45:00  BASE  15.9466  18   20.9916  23   -1.6  100   -1.6  0     0     995.9    NA       0.0000   -SN      BR    M     0    
2019/07/04  03:46:00  BASE  16.1876  17   20.9916  23   -1.6  100   -1.6  0     0     995.8    NA       0.0000   -SN      BR    M     0    
2019/07/04  03:47:00  BASE  17.246   14   20.9916  23   -1.6  100   -1.6  0     0     995.7    NA       0.0000   -SN      M     0     0    
2019/07/04  03:48:00  BASE  16.711   13   20.9916  23   -1.6  100   -1.6  0     0     995.9    NA       0.0000   -SN      M     0     0    
2019/07/04  03:49:00  BASE  15.9701  15   19.2394  9    -1.6  100   -1.6  0     0     995.9    NA       0.0000   -SN      M     0     0    
2019/07/04  03:50:00  BASE  16.5287  14   19.2394  9    -1.6  100   -1.6  0     0     995.8    NA       0.0000   -SN      M     0     0    
2019/07/04  03:51:00  BASE  16.9226  17   19.2394  9    -1.6  100   -1.6  0     0     995.8    NA       0.0000   M        0     0     0    
2019/07/04  03:52:00  BASE  17.0285  20   19.2394  9    -1.6  100   -1.6  0     0     995.8    NA       0.0000   M        0     0     0    
2019/07/04  03:53:00  BASE  17.005   16   19.2394  9    -1.6  100   -1.6  0     0     995.6    NA       0.0000   M        0     0     0    
2019/07/04  03:54:00  BASE  16.9991  13   19.2394  9    -1.6  100   -1.6  0     0     995.6    NA       0.0000   M        0     0     0    
2019/07/04  03:55:00  BASE  16.9814  13   20.0273  11   -1.6  100   -1.6  0     0     995.6    NA       0.0000   M        0     0     0    
2019/07/04  03:56:00  BASE  17.7576  17   20.0273  11   -1.6  100   -1.6  0     0     995.5    NA       0.0000   M        0     0     0    
2019/07/04  03:57:00  BASE  17.9634  19   20.0273  11   -1.6  100   -1.6  0     0     995.6    NA       0.0000   M        0     0     0    
2019/07/04  03:58:00  BASE  16.5992  16   20.0273  11   -1.6  100   -1.6  0     0     995.8    NA       0.0000   M        0     0     0    
2019/07/04  03:59:00  BASE  15.4938  10   20.0273  11   -1.6  100   -1.6  0     0     995.9    NA       0.0000   M        0     0     0    
2019/07/04  04:00:00  BASE  15.3409  6    20.0273  11   -1.5  100   -1.5  0     0     995.8    NA       0.0000   M        0     0     0    
2019/07/04  04:01:00  BASE  14.5354  7    20.0273  11   -1.5  100   -1.5  0     0     996.0    NA       0.0000   M        0     0     0    
2019/07/04  04:02:00  BASE  14.2355  9    20.0273  11   -1.5  100   -1.5  0     0     M        NA       0.0000   M        0     0     0    
2019/07/04  04:03:00  BASE  15.1939  12   20.0273  11   -1.5  100   -1.5  0     0     995.7    NA       0.0000   M        0     0     0    
2019/07/04  04:04:00  BASE  15.876   13   20.0273  11   -1.4  100   -1.4  0     0     995.7    NA       0.0000   M        0     0     0    
2019/07/04  04:05:00  BASE  15.6584  11   20.0273  11   -1.3  100   -1.3  0     0     995.7    NA       0.2540   M        0     0     0    
2019/07/04  04:06:00  BASE  16.1994  17   19.992   21   -1.3  100   -1.3  0     0     995.7    NA       0.0000   M        0     0     0    
2019/07/04  04:07:00  BASE  15.8407  14   19.7803  16   -1.2  100   -1.2  0     0     995.8    NA       0.0000   M        0     0     0    
2019/07/04  04:08:00  BASE  15.2292  8    19.7803  16   -1.2  100   -1.2  0     0     995.7    NA       0.0000   M        0     0     0    
2019/07/04  04:09:00  BASE  15.041   4    19.7803  16   -1.1  100   -1.1  0     0     995.8    NA       0.0000   M        0     0     0    
2019/07/04  04:10:00  BASE  15.188   4    19.7803  16   -1.1  100   -1.1  0     0     995.6    NA       0.0000   M        0     0     0    
2019/07/04  04:11:00  BASE  14.9705  5    19.7803  16   -1.1  100   -1.1  0     0     995.8    NA       0.0000   M        0     0     0    
2019/07/04  04:12:00  BASE  13.2241  356  19.7803  16   -1.1  100   -1.1  0     0     995.8    NA       0.0000   M        0     0     0    
2019/07/04  04:13:00  BASE  12.889   346  19.7803  16   -1.1  100   -1.1  0     0     995.8    NA       0.0000   M        1020  0     0    
2019/07/04  04:14:00  BASE  12.642   344  19.7803  16   -1.0  100   -1.0  0     0     995.9    NA       0.0000   M        0     0     0    
2019/07/04  04:15:00  BASE  13.1771  355  19.7803  16   -0.9  100   -0.9  0     0     995.5    NA       0.0000   M        0     0     0    
2019/07/04  04:16:00  BASE  16.3523  11   22.05    8    -0.8  100   -0.8  0     0     995.2    NA       0.0000   M        0     0     0    
2019/07/04  04:17:00  BASE  18.5749  13   22.05    8    -0.8  100   -0.8  0     0     995.2    NA       0.0000   SQ       M     0     0    
2019/07/04  04:18:00  BASE  17.3872  12   22.05    8    -0.8  100   -0.8  0     0     995.5    NA       0.0000   SQ       M     0     0    
2019/07/04  04:19:00  BASE  15.1292  12   22.05    8    -0.7  100   -0.7  0     0     995.6    NA       0.0000   M        0     0     0    
2019/07/04  04:20:00  BASE  15.9701  10   22.05    8    -0.7  100   -0.7  0     0     995.3    NA       0.0000   M        0     0     0    
2019/07/04  04:21:00  BASE  17.4812  11   22.05    8    -0.7  100   -0.7  0     0     995.3    NA       0.0000   M        0     0     0    
2019/07/04  04:22:00  BASE  16.7404  12   22.05    8    -0.6  100   -0.6  0     0     995.5    NA       0.0000   1500     0     0     0    
2019/07/04  04:23:00  BASE  16.3288  16   22.05    8    -0.7  100   -0.7  0     0     995.4    NA       0.0000   -SN      2700  0     0    
2019/07/04  04:24:00  BASE  17.5871  19   22.05    8    -0.7  100   -0.7  0     0     995.2    NA       0.0000   -SN      1800  0     0    
2019/07/04  04:25:00  BASE  18.3926  17   22.05    8    -0.7  100   -0.7  0     0     995.2    NA       0.0000   -SN      1300  0     0    
2019/07/04  04:26:00  BASE  17.6224  14   20.9916  3    -0.8  100   -0.8  0     0     995.4    NA       0.0000   -SN      2400  0     0    
2019/07/04  04:27:00  BASE  16.2229  11   20.874   17   -0.9  100   -0.9  0     0     995.5    NA       0.0000   -SN      2800  0     0    
2019/07/04  04:28:00  BASE  15.6878  9    20.874   17   -0.9  100   -0.9  0     0     995.3    NA       0.0000   -SN      3000  0     0    
2019/07/04  04:29:00  BASE  16.4816  9    20.874   17   -0.9  100   -0.9  0     0     995.3    NA       0.0000   -SN      BR    2800  0    
2019/07/04  04:30:00  BASE  15.5526  8    20.874   17   -0.9  100   -0.9  0     0     995.5    NA       0.0000   -SN      BR    2100  0    
2019/07/04  04:31:00  BASE  14.7176  7    20.874   17   -0.9  100   -0.9  0     0     995.4    NA       0.0000   -SN      BR    3400  0    
2019/07/04  04:32:00  BASE  15.2468  6    20.874   17   -1.0  100   -1.0  0     0     995.3    NA       0.0000   -SN      BR    3000  0    
2019/07/04  04:33:00  BASE  16.0171  5    20.874   17   -0.9  100   -0.9  0     0     995.1    NA       0.0000   -SN      BR    2700  0    
2019/07/04  04:34:00  BASE  17.2343  9    20.5976  20   -0.9  100   -0.9  0     0     994.9    NA       0.0000   -SN      BR    2900  0    
2019/07/04  04:35:00  BASE  17.6635  10   20.0273  8    -0.9  100   -0.9  0     0     995.0    NA       0.0000   -SN      BR    1700  0    
2019/07/04  04:36:00  BASE  17.2637  10   20.0273  8    -0.9  100   -0.9  0     0     995.1    NA       0.0000   -SN      BR    2200  0    
2019/07/04  04:37:00  BASE  16.3993  14   20.0273  8    -0.9  100   -0.9  0     0     995.1    NA       0.0000   -SN      BR    1600  0    
2019/07/04  04:38:00  BASE  17.1578  8    21.8089  355  -0.8  100   -0.8  0     0     994.8    NA       0.0000   -SN      BR    1700  0    
2019/07/04  04:39:00  BASE  17.0579  4    21.8089  355  -0.8  100   -0.8  0     0     995.2    NA       0.0000   -SN      BR    3100  0    
2019/07/04  04:40:00  BASE  16.8638  8    21.8089  355  -0.7  100   -0.7  0     0     994.9    NA       0.0000   -SN      BR    2600  0    
2019/07/04  04:41:00  BASE  17.7576  9    21.8089  355  -0.7  100   -0.7  0     0     994.7    NA       0.0000   -SN      BR    1900  0    
2019/07/04  04:42:00  BASE  17.2284  10   21.8089  355  -0.6  100   -0.6  0     0     994.9    NA       0.0000   -SN      BR    2600  0    
2019/07/04  04:43:00  BASE  17.0932  11   21.8089  355  -0.5  100   -0.5  0     0     994.8    NA       0.0000   -SN      BR    1900  0    
2019/07/04  04:44:00  BASE  16.9638  9    21.8089  355  -0.4  100   -0.4  0     0     994.9    NA       0.0000   -SN      BR    2300  0    
2019/07/04  04:45:00  BASE  17.1814  9    21.8089  355  -0.3  100   -0.3  0     0     994.6    NA       0.0000   -SN      BR    2100  0    
2019/07/04  04:46:00  BASE  17.6635  11   21.8089  355  -0.2  100   -0.2  0     0     994.7    NA       0.0000   -SN      BR    2300  0    
2019/07/04  04:47:00  BASE  17.0638  11   21.8089  355  -0.2  100   -0.2  0     0     994.8    NA       0.0000   -SN      BR    2500  0    
2019/07/04  04:48:00  BASE  15.388   11   21.7207  9    -0.2  100   -0.2  0     0     995.2    NA       0.0000   -SN      BR    2500  0    
2019/07/04  04:49:00  BASE  14.4295  6    21.7207  9    -0.3  100   -0.3  0     0     995.1    NA       0.0000   -SN      BR    2600  0    
2019/07/04  04:50:00  BASE  14.9646  1    21.7207  9    -0.4  100   -0.4  0     0     995.0    NA       0.0000   -SN      BR    3300  0    
2019/07/04  04:51:00  BASE  16.1876  4    21.1739  15   -0.4  100   -0.4  0     0     994.8    NA       0.2540   -SN      BR    4900  0    
2019/07/04  04:52:00  BASE  16.9638  5    21.1739  15   -0.5  100   -0.5  0     0     994.8    NA       0.0000   -SN      BR    3800  0    
2019/07/04  04:53:00  BASE  16.7756  5    21.1739  15   -0.4  100   -0.4  0     0     994.8    NA       0.0000   -SN      BR    3700  0    
2019/07/04  04:54:01  BASE  17.1284  7    21.1739  15   -0.4  100   -0.4  0     0     994.8    NA       0.0000   -SN      BR    3400  0    
2019/07/04  04:55:00  BASE  17.4636  7    20.48    9    -0.5  100   -0.5  0     0     994.8    NA       0.0000   -SN      BR    3400  0    
2019/07/04  04:56:00  BASE  17.2754  8    20.48    9    -0.4  100   -0.4  0     0     994.7    NA       0.0000   -SN      BR    3500  0    
2019/07/04  04:57:00  BASE  16.8874  10   20.48    9    -0.4  100   -0.4  0     0     994.8    NA       0.0000   -SN      BR    2700  0    
2019/07/04  04:58:00  BASE  16.658   8    20.48    9    -0.5  100   -0.5  0     0     994.7    NA       0.0000   -SN      BR    2600  0    
2019/07/04  04:59:00  BASE  16.7874  8    20.5682  9    -0.5  100   -0.5  0     0     994.8    NA       0.0000   -SN      BR    2400  0    
2019/07/04  05:00:00  BASE  16.5287  10   20.5682  9    -0.4  100   -0.4  0     0     994.9    NA       0.0000   -SN      BR    2800  0    
2019/07/04  05:01:00  BASE  16.711   9    20.5682  9    -0.4  100   -0.4  0     0     994.7    NA       0.0000   -SN      BR    2600  0    
2019/07/04  05:02:00  BASE  16.7756  11   20.5682  9    -0.4  100   -0.4  0     0     994.7    NA       0.0000   -SN      BR    4000  0    
2019/07/04  05:03:00  BASE  15.8054  12   20.5682  9    -0.4  100   -0.4  0     0     994.9    NA       0.0000   -SN      BR    1900  0    
2019/07/04  05:04:00  BASE  15.6467  14   20.5682  9    -0.4  100   -0.4  0     0     994.7    NA       0.0000   -SN      BR    2100  0    
2019/07/04  05:05:00  BASE  14.7706  12   20.5682  9    -0.3  100   -0.3  0     0     994.9    NA       0.0000   -SN      BR    2000  0    
2019/07/04  05:06:00  BASE  15.3409  4    20.5682  9    -0.3  100   -0.3  0     0     994.5    NA       0.0000   -SN      BR    1300  0    
2019/07/04  05:07:00  BASE  17.2813  2    20.5682  9    -0.3  100   -0.3  0     0     994.4    NA       0.0000   -SN      BR    3200  0    
2019/07/04  05:08:00  BASE  16.9403  6    20.5682  9    -0.3  100   -0.3  0     0     994.7    NA       0.0000   -SN      BR    5000  0    
2019/07/04  05:09:01  BASE  16.5522  8    19.5392  5    -0.3  100   -0.3  0     0     994.5    NA       0.0000   -SN      BR    3500  0    
2019/07/04  05:10:00  BASE  17.8517  8    22.1735  3    -0.3  100   -0.3  0     0     994.2    NA       0.0000   -SN      BR    3700  0    
2019/07/04  05:11:00  BASE  18.716   8    22.1735  3    -0.3  100   -0.3  0     0     994.3    NA       0.0000   -SN      BR    4200  0    
2019/07/04  05:12:00  BASE  17.7106  7    22.1735  3    -0.2  100   -0.2  0     0     994.5    NA       0.0000   -SN      BR    2700  0    
2019/07/04  05:13:00  BASE  16.7227  8    22.1735  3    -0.2  100   -0.2  0     0     994.6    NA       0.0000   -SN      BR    3600  0    
2019/07/04  05:14:00  BASE  16.7168  9    22.1735  3    -0.1  100   -0.1  0     0     994.6    NA       0.0000   -SN      BR    3800  0    
2019/07/04  05:15:01  BASE  16.7345  8    22.1735  3    -0.1  100   -0.1  0     0     994.5    NA       0.0000   -SN      BR    3600  0    
2019/07/04  05:16:00  BASE  16.564   6    22.1735  3    -0.1  100   -0.1  0     0     994.6    NA       0.0000   -SN      BR    5000  0    
2019/07/04  05:17:00  BASE  16.3582  5    22.1735  3    -0.1  100   -0.1  0     0     994.6    NA       0.0000   -SN      BR    5000  0    
2019/07/04  05:18:00  BASE  16.5698  5    22.1735  3    -0.2  100   -0.2  0     0     994.6    NA       0.0000   -SN      BR    3800  0    
2019/07/04  05:19:00  BASE  16.805   6    22.1735  3    -0.2  100   -0.2  0     0     994.6    NA       0.0000   -SN      BR    3400  0    
2019/07/04  05:20:00  BASE  16.0524  6    20.7505  7    -0.2  100   -0.2  0     0     994.8    NA       0.0000   -SN      BR    4300  0    
2019/07/04  05:21:00  BASE  15.1175  9    20.6917  360  -0.3  100   -0.3  0     0     994.9    NA       0.0000   -SN      BR    2600  0    
2019/07/04  05:22:01  BASE  14.747   13   20.6917  360  -0.5  100   -0.5  0     0     994.9    NA       0.0000   -SN      BR    2700  0    
2019/07/04  05:23:00  BASE  14.894   13   20.6917  360  -0.6  100   -0.6  0     0     994.9    NA       0.0000   -SN      BR    2800  0    
2019/07/04  05:24:00  BASE  14.894   13   20.6917  360  -0.8  100   -0.8  0     0     995.0    NA       0.0000   -SN      BR    2600  0    
2019/07/04  05:25:00  BASE  14.8058  11   19.451   8    -0.9  100   -0.9  0     0     994.9    NA       0.0000   -SN      BR    2700  0    
2019/07/04  05:26:01  BASE  15.5291  7    19.21    360  -0.9  100   -0.9  0     0     994.7    NA       0.0000   -SN      BR    3000  0    
2019/07/04  05:27:01  BASE  16.2641  6    19.21    360  -0.9  100   -0.9  0     0     994.6    NA       0.0000   -SN      BR    3500  0    
2019/07/04  05:28:00  BASE  16.3111  7    18.2398  5    -0.9  100   -0.9  0     0     994.5    NA       0.0000   -SN      BR    3500  0    
2019/07/04  05:29:00  BASE  16.1171  8    17.9105  8    -0.9  100   -0.9  0     0     994.6    NA       0.2540   -SN      BR    3800  0    
2019/07/04  05:30:00  BASE  16.1465  9    17.9105  8    -0.8  100   -0.8  0     0     994.7    NA       0.0000   -SN      BR    3800  0    
2019/07/04  05:31:00  BASE  16.2053  15   18.9689  23   -0.8  100   -0.8  0     0     994.8    NA       0.0000   -SN      BR    2800  0    
2019/07/04  05:32:00  BASE  15.8995  16   18.9689  23   -0.8  100   -0.8  0     0     994.7    NA       0.0000   -SN      BR    2200  0    
2019/07/04  05:33:00  BASE  15.7349  14   18.9689  23   -0.8  100   -0.8  0     0     994.8    NA       0.0000   -SN      BR    2200  0    
2019/07/04  05:34:00  BASE  15.0998  15   18.9689  23   -0.8  100   -0.8  0     0     995.0    NA       0.0000   -SN      BR    2600  0    
2019/07/04  05:35:00  BASE  14.6647  11   18.9689  23   -0.8  100   -0.8  0     0     994.8    NA       0.0000   -SN      BR    3100  0    
2019/07/04  05:36:00  BASE  13.5887  8    18.9689  23   -0.8  100   -0.8  0     0     995.1    NA       0.0000   -SN      BR    4900  0    
2019/07/04  05:37:00  BASE  12.3421  5    18.9689  23   -0.9  100   -0.9  0     0     995.1    NA       0.0000   -SN      BR    6000  0    
2019/07/04  05:38:00  BASE  12.542   1    18.9689  23   -0.9  100   -0.9  0     0     995.0    NA       0.0000   -SN      BR    7000  0    
2019/07/04  05:39:00  BASE  13.0654  4    18.9689  23   -1.0  100   -1.0  0     0     995.0    NA       0.0000   -SN      BR    8000  0    
2019/07/04  05:40:00  BASE  13.9356  7    18.9689  23   -1.0  100   -1.0  0     0     994.9    NA       0.0000   -SN      BR    5000  0    
2019/07/04  05:41:00  BASE  14.894   4    17.4518  8    -1.0  100   -1.0  0     0     994.8    NA       0.0000   -SN      BR    3500  0    
2019/07/04  05:42:00  BASE  14.5824  3    16.8815  360  -1.0  100   -1.0  0     0     995.0    NA       0.0000   -SN      BR    3900  0    
2019/07/04  05:43:00  BASE  12.7655  4    16.8815  360  -1.0  100   -1.0  0     0     995.2    NA       0.0000   -SN      BR    6000  0    
2019/07/04  05:44:00  BASE  12.0364  2    16.8815  360  -1.1  100   -1.1  0     0     995.1    NA       0.0000   -SN      BR    9999  0    
2019/07/04  05:45:00  BASE  12.936   5    16.8815  360  -1.1  100   -1.1  0     0     995.1    NA       0.0000   -SN      BR    6000  0    
2019/07/04  05:46:00  BASE  12.6479  9    16.8815  360  -1.1  100   -1.1  0     0     995.2    NA       0.0000   -SN      BR    3800  0    
2019/07/04  05:47:00  BASE  12.4538  9    16.8815  360  -1.1  100   -1.1  0     0     995.0    NA       0.0000   -SN      BR    3800  0    
2019/07/04  05:48:00  BASE  13.2006  12   16.8815  360  -1.1  100   -1.1  0     0     995.0    NA       0.0000   -SN      BR    4200  0    
2019/07/04  05:49:00  BASE  13.2124  12   16.8815  360  -1.0  100   -1.0  0     0     995.0    NA       0.0000   -SN      BR    3400  0    
2019/07/04  05:50:00  BASE  13.7474  9    17.6635  9    -1.0  100   -1.0  0     0     994.8    NA       0.0000   -SN      BR    3300  0    
2019/07/04  05:51:00  BASE  15.0116  11   17.6635  9    -1.0  100   -1.0  0     0     994.8    NA       0.0000   -SN      BR    2900  0    
2019/07/04  05:52:00  BASE  14.8588  13   17.6635  9    -1.0  100   -1.0  0     0     994.9    NA       0.0000   -SN      BR    2000  0    
2019/07/04  05:53:00  BASE  13.771   14   17.6635  9    -1.1  100   -1.1  0     0     994.9    NA       0.0000   -SN      BR    2000  0    
2019/07/04  05:54:00  BASE  13.5887  14   17.6635  9    -1.1  100   -1.1  0     0     995.0    NA       0.0000   -SN      BR    2300  0    
2019/07/04  05:55:00  BASE  13.6063  15   17.6635  9    -1.1  100   -1.1  0     0     995.0    NA       0.0000   -SN      BR    2400  0    
2019/07/04  05:56:00  BASE  13.3358  14   17.6635  9    -1.1  100   -1.1  0     0     995.0    NA       0.0000   -SN      BR    2400  0    
2019/07/04  05:57:00  BASE  13.2712  13   17.6635  9    -1.1  100   -1.1  0     0     994.8    NA       0.2540   -SN      BR    2400  0    
2019/07/04  05:58:00  BASE  14.1884  14   17.6635  9    -1.1  100   -1.1  0     0     994.7    NA       0.0000   -SN      BR    2200  0    
2019/07/04  05:59:00  BASE  14.4707  17   17.6635  9    -1.1  100   -1.1  0     0     994.8    NA       0.0000   -SN      BR    2100  0    
2019/07/04  06:00:00  BASE  13.9885  17   17.6635  9    -1.1  100   -1.1  0     0     994.8    NA       0.0000   -SN      BR    2100  0    
2019/07/04  06:01:00  BASE  13.6475  16   16.9991  20   -1.0  100   -1.0  0     0     994.8    NA       0.0000   -SN      BR    2300  0    
2019/07/04  06:02:00  BASE  13.671   16   16.9991  20   -1.0  100   -1.0  0     0     994.7    NA       0.0000   -SN      BR    2300  0    
2019/07/04  06:03:00  BASE  14.1179  11   16.9991  20   -1.0  100   -1.0  0     0     994.6    NA       0.0000   -SN      BR    2500  0    
2019/07/04  06:04:00  BASE  13.3123  6    16.9991  20   -0.9  100   -0.9  0     0     994.8    NA       0.0000   -SN      BR    3400  0    
2019/07/04  06:05:00  BASE  12.6773  8    16.9991  20   -0.9  100   -0.9  0     0     994.7    NA       0.0000   -SN      BR    3700  0    
2019/07/04  06:06:00  BASE  12.7949  6    16.9991  20   -0.8  100   -0.8  0     0     994.7    NA       0.0000   -SN      BR    4200  0    
2019/07/04  06:07:00  BASE  13.7122  5    16.9991  20   -0.8  100   -0.8  0     0     994.5    NA       0.0000   -SN      BR    4800  0    
2019/07/04  06:08:00  BASE  14.7118  10   16.1524  17   -0.8  100   -0.8  0     0     994.6    NA       0.0000   -SN      BR    3000  0    
2019/07/04  06:09:00  BASE  15.0175  12   16.8462  8    -0.8  100   -0.8  0     0     994.5    NA       0.0000   -SN      BR    2400  0    
2019/07/04  06:10:00  BASE  14.6412  12   16.8462  8    -0.8  100   -0.8  0     0     994.6    NA       0.0000   -SN      BR    2400  0    
2019/07/04  06:11:00  BASE  13.7592  10   16.8462  8    -0.8  100   -0.8  0     0     994.5    NA       0.0000   -SN      BR    2800  0    
2019/07/04  06:12:00  BASE  13.6063  9    16.8462  8    -0.8  100   -0.8  0     0     994.5    NA       0.0000   -SN      BR    3500  0    
2019/07/04  06:13:00  BASE  14.3296  11   16.8462  8    -0.8  100   -0.8  0     0     994.4    NA       0.0000   -SN      BR    3400  0    
2019/07/04  06:14:00  BASE  14.7412  12   16.8462  8    -0.9  100   -0.9  0     0     994.5    NA       0.0000   -SN      BR    3400  0    
2019/07/04  06:15:00  BASE  13.9591  12   16.8462  8    -0.9  100   -0.9  0     0     994.5    NA       0.0000   -SN      BR    3300  0    
2019/07/04  06:16:00  BASE  13.9591  11   16.8462  8    -0.9  100   -0.9  0     0     994.4    NA       0.0000   -SN      BR    3300  0    
2019/07/04  06:17:00  BASE  14.1296  11   16.8462  8    -0.9  100   -0.9  0     0     994.5    NA       0.2540   -SN      BR    3500  0    
2019/07/04  06:18:00  BASE  13.5652  12   16.8462  8    -0.9  100   -0.9  0     0     994.6    NA       0.0000   -SN      BR    3400  0    
2019/07/04  06:19:00  BASE  13.036   12   16.6051  2    -0.9  100   -0.9  0     0     994.6    NA       0.0000   -SN      BR    3500  0    
2019/07/04  06:20:00  BASE  12.9595  9    16.6051  2    -0.9  100   -0.9  0     0     994.5    NA       0.0000   -SN      BR    3800  0    
2019/07/04  06:21:00  BASE  13.1771  10   16.6051  2    -0.9  100   -0.9  0     0     994.5    NA       0.0000   -SN      BR    3400  0    
2019/07/04  06:22:00  BASE  13.1594  10   16.6051  2    -0.9  100   -0.9  0     0     994.5    NA       0.0000   -SN      BR    3400  0    
2019/07/04  06:23:00  BASE  13.4946  7    16.6051  2    -0.9  100   -0.9  0     0     994.4    NA       0.0000   -SN      BR    3400  0    
2019/07/04  06:24:00  BASE  13.9003  7    16.6051  2    -0.9  100   -0.9  0     0     994.4    NA       0.0000   -SN      BR    3800  0    
2019/07/04  06:25:00  BASE  13.7004  8    16.6051  2    -0.9  100   -0.9  0     0     994.4    NA       0.0000   -SN      BR    4100  0    
2019/07/04  06:26:00  BASE  13.5358  10   15.6408  6    -0.9  100   -0.9  0     0     994.4    NA       0.0000   -SN      BR    4100  0    
2019/07/04  06:27:00  BASE  13.3358  12   15.6408  6    -0.8  100   -0.8  0     0     994.5    NA       0.0000   -SN      BR    3800  0    
2019/07/04  06:28:00  BASE  13.3006  13   15.6408  6    -0.8  100   -0.8  0     0     994.4    NA       0.0000   -SN      BR    3900  0    
2019/07/04  06:29:00  BASE  13.3594  12   15.6408  6    -0.8  100   -0.8  0     0     994.4    NA       0.0000   -SN      BR    3900  0    
2019/07/04  06:30:00  BASE  12.7596  10   15.6408  6    -0.8  100   -0.8  0     0     994.5    NA       0.0000   -SN      BR    4000  0    
2019/07/04  06:31:00  BASE  12.9889  11   15.6408  6    -0.8  100   -0.8  0     0     994.4    NA       0.0000   -SN      BR    4000  0    
2019/07/04  06:32:00  BASE  13.6063  11   15.6408  6    -0.8  100   -0.8  0     0     994.4    NA       0.0000   -SN      BR    3800  0    
2019/07/04  06:33:00  BASE  13.3241  11   15.6408  6    -0.8  100   -0.8  0     0     994.4    NA       0.0000   -SN      BR    4200  0    
2019/07/04  06:34:00  BASE  12.8008  10   14.9117  8    -0.8  100   -0.8  0     0     994.4    NA       0.0000   -SN      BR    4900  0    
2019/07/04  06:35:00  BASE  12.8066  10   14.9117  8    -0.8  100   -0.8  0     0     994.4    NA       0.0000   -SN      BR    5000  0    
2019/07/04  06:36:00  BASE  13.0771  14   14.4295  5    -0.8  100   -0.8  0     0     994.4    NA       0.0000   -SN      BR    4800  0    
2019/07/04  06:37:00  BASE  12.8125  14   14.4295  5    -0.8  100   -0.8  0     0     994.4    NA       0.0000   -SN      BR    4300  0    
2019/07/04  06:38:00  BASE  12.9536  12   14.4295  5    -0.8  100   -0.8  0     0     994.4    NA       0.0000   -SN      BR    5000  0    
2019/07/04  06:39:00  BASE  13.524   11   14.7     19   -0.8  100   -0.8  0     0     994.3    NA       0.0000   -SN      BR    5000  0    
2019/07/04  06:40:00  BASE  13.571   12   14.7     19   -0.8  100   -0.8  0     0     994.3    NA       0.0000   -SN      BR    4300  0    
2019/07/04  06:41:00  BASE  13.424   13   14.7     19   -0.8  100   -0.8  0     0     994.3    NA       0.0000   -SN      BR    4600  0    
2019/07/04  06:42:00  BASE  13.3064  12   14.7     19   -0.8  100   -0.8  0     0     994.2    NA       0.0000   -SN      BR    4000  0    
2019/07/04  06:43:00  BASE  13.5181  11   15.0352  20   -0.8  100   -0.8  0     0     994.2    NA       0.0000   -SN      BR    4800  0    
2019/07/04  06:44:00  BASE  13.718   13   15.0352  20   -0.8  100   -0.8  0     0     994.1    NA       0.0000   -SN      BR    6000  0    
2019/07/04  06:45:00  BASE  13.7239  11   15.0352  20   -0.8  100   -0.8  0     0     994.1    NA       0.0000   -SN      BR    7000  0    
2019/07/04  06:46:00  BASE  14.0885  9    15.2468  8    -0.7  100   -0.7  0     0     994.1    NA       0.0000   -SN      BR    7000  0    
2019/07/04  06:47:00  BASE  13.965   10   15.2468  8    -0.7  100   -0.7  0     0     994.1    NA       0.0000   -SN      BR    9000  0    
2019/07/04  06:48:00  BASE  13.5064  11   15.2468  8    -0.7  100   -0.7  0     0     994.1    NA       0.0000   -SN      BR    9999  0    
2019/07/04  06:49:00  BASE  13.5534  12   15.2468  8    -0.7  100   -0.7  0     0     994.1    NA       0.0000   -SN      BR    9999  0    
2019/07/04  06:50:00  BASE  13.6122  13   15.2468  8    -0.7  100   -0.7  0     0     994.1    NA       0.0000   -SN      BR    9999  0    
2019/07/04  06:51:00  BASE  13.9768  14   15.3644  11   -0.7  100   -0.7  0     0     994.0    NA       0.0000   -SN      BR    8000  0    
2019/07/04  06:52:00  BASE  14.2296  13   15.5173  7    -0.7  100   -0.7  0     0     994.1    NA       0.0000   -SN      BR    8000  330  
2019/07/04  06:53:00  BASE  13.771   11   15.5173  7    -0.6  100   -0.6  0     0     994.1    NA       0.0000   -SN      BR    9999  0    
2019/07/04  06:54:00  BASE  13.2006  10   15.5173  7    -0.6  100   -0.6  0     0     994.1    NA       0.0000   -SN      BR    2400  0    
2019/07/04  06:55:00  BASE  13.3946  9    15.5173  7    -0.6  100   -0.6  0     0     994.1    NA       0.0000   -SN      BR    1900  0    
2019/07/04  06:56:00  BASE  13.8415  9    15.5173  7    -0.5  100   -0.5  0     0     994.1    NA       0.0000   -SN      BR    9999  0    
2019/07/04  06:57:00  BASE  13.8298  9    15.5173  7    -0.5  100   -0.5  0     0     994.1    NA       0.0000   -SN      BR    9999  0    
2019/07/04  06:58:00  BASE  14.2531  9    15.5173  7    -0.5  100   -0.5  0     0     994.0    NA       0.0000   -SN      BR    9999  0    
2019/07/04  06:59:00  BASE  14.4119  10   15.5173  7    -0.5  100   -0.5  0     0     994.0    NA       0.0000   -SN      BR    8000  0    
2019/07/04  07:00:00  BASE  13.8062  9    15.5173  7    -0.5  100   -0.5  0     0     994.1    NA       0.0000   -SN      BR    8000  0    
2019/07/04  07:01:00  BASE  13.0948  7    15.5173  7    -0.5  100   -0.5  0     0     994.2    NA       0.0000   -SN      BR    9999  0    
2019/07/04  07:02:00  BASE  12.3715  5    15.2762  11   -0.5  100   -0.5  0     0     994.2    NA       0.0000   -SN      BR    9999  0    
2019/07/04  07:03:00  BASE  12.4009  3    15.2762  11   -0.5  100   -0.5  0     0     994.1    NA       0.0000   -SN      BR    9999  260  
2019/07/04  07:04:00  BASE  12.8831  2    15.2762  11   -0.5  100   -0.5  0     0     994.2    NA       0.0000   -SN      BR    9999  0    
2019/07/04  07:05:00  BASE  13.0536  1    15.2762  11   -0.5  100   -0.5  0     0     994.2    NA       0.0000   -SN      9999  0     0    
2019/07/04  07:06:00  BASE  12.4832  2    15.2762  11   -0.4  100   -0.4  0     0     994.3    NA       0.0000   -SN      9999  0     0    
2019/07/04  07:07:00  BASE  11.6659  1    15.2762  11   -0.4  100   -0.4  0     0     994.3    NA       0.0000   -SN      9999  0     0    
2019/07/04  07:08:00  BASE  11.2896  1    15.2762  11   -0.4  100   -0.4  0     0     994.3    NA       0.0000   -SN      9999  0     0    
2019/07/04  07:09:00  BASE  10.9544  0    14.159   3    -0.4  100   -0.4  0     0     994.4    NA       0.0000   -SN      9999  0     0    
2019/07/04  07:10:00  BASE  10.6604  358  14.159   3    -0.4  100   -0.4  0     0     994.4    NA       0.0000   -SN      9999  0     0    
2019/07/04  07:11:00  BASE  10.3135  359  14.159   3    -0.3  100   -0.3  0     0     994.5    NA       0.0000   -SN      9999  0     0    
2019/07/04  07:12:00  BASE  10.1312  4    14.159   3    -0.3  100   -0.3  0     0     994.5    NA       0.0000   -SN      9999  0     0    
2019/07/04  07:13:00  BASE  10.4194  5    14.159   3    -0.3  100   -0.3  0     0     994.5    NA       0.0000   -SN      9999  0     0    
2019/07/04  07:14:00  BASE  10.9662  5    14.159   3    -0.3  100   -0.3  0     0     994.5    NA       0.0000   -SN      9999  0     0    
2019/07/04  07:15:00  BASE  11.3366  6    13.277   3    -0.3  100   -0.3  0     0     994.5    NA       0.0000   -SN      9999  0     0    
2019/07/04  07:16:00  BASE  11.3131  6    12.5832  360  -0.3  100   -0.3  0     0     994.6    NA       0.0000   -SN      9999  0     0    
2019/07/04  07:17:00  BASE  11.1896  7    12.3127  4    -0.3  100   -0.3  0     0     994.6    NA       0.0000   -SN      9999  0     0    
2019/07/04  07:18:00  BASE  11.0779  5    12.3127  4    -0.3  100   -0.3  0     0     994.6    NA       0.0000   -SN      9999  0     0    
2019/07/04  07:19:00  BASE  10.6957  3    12.3127  4    -0.3  100   -0.3  0     0     994.7    NA       0.0000   -SN      9999  330   0    
2019/07/04  07:20:00  BASE  10.1606  2    12.3127  4    -0.3  100   -0.3  0     0     994.7    NA       0.0000   -SN      9999  0     0    
2019/07/04  07:21:00  BASE  9.90192  358  12.3127  4    -0.3  100   -0.3  0     0     994.7    NA       0.0000   -SN      9999  390   0    
2019/07/04  07:22:00  BASE  10.0842  359  12.3127  4    -0.3  100   -0.3  0     0     994.7    NA       0.0000   -SN      9999  360   0    
2019/07/04  07:23:00  BASE  10.1959  4    12.3127  4    -0.3  100   -0.3  0     0     994.7    NA       0.0000   -SN      9999  330   0    
2019/07/04  07:24:00  BASE  9.996    6    12.3127  4    -0.3  100   -0.3  0     0     994.8    NA       0.0000   -SN      9999  330   0    
2019/07/04  07:25:00  BASE  9.80784  7    11.9776  5    -0.3  100   -0.3  0     0     994.8    NA       0.0000   -SN      9999  300   0    
2019/07/04  07:26:00  BASE  9.9078   4    11.7953  6    -0.3  100   -0.3  0     0     994.8    NA       0.0000   -SN      9999  330   0    
2019/07/04  07:27:00  BASE  9.82548  6    11.6777  2    -0.3  100   -0.3  0     0     994.7    NA       0.0000   -SN      9999  0     0    
2019/07/04  07:28:00  BASE  10.2018  10   11.4366  14   -0.3  100   -0.3  0     0     994.7    NA       0.0000   -SN      9999  0     0    
2019/07/04  07:29:00  BASE  10.5487  9    11.4366  14   -0.3  100   -0.3  0     0     994.7    NA       0.0000   -SN      9999  0     0    
2019/07/04  07:30:00  BASE  9.93132  9    11.4366  14   -0.3  100   -0.3  0     0     994.8    NA       0.0000   -SN      9999  0     0    
2019/07/04  07:31:00  BASE  9.29628  5    11.4366  14   -0.3  100   -0.3  0     0     994.9    NA       0.0000   -SN      9999  0     0    
2019/07/04  07:32:00  BASE  9.01404  4    11.4366  14   -0.3  100   -0.3  0     0     994.9    NA       0.0000   -SN      9999  0     0    
2019/07/04  07:33:00  BASE  9.03756  6    11.4366  14   -0.3  100   -0.3  0     0     994.9    NA       0.0000   -SN      9999  0     0    
2019/07/04  07:34:00  BASE  8.9376   5    11.4366  14   -0.3  100   -0.3  0     0     994.9    NA       0.0000   -SN      9999  0     0    
2019/07/04  07:35:00  BASE  8.84352  4    11.4366  14   -0.3  100   -0.3  0     0     994.9    NA       0.0000   -SN      9999  390   0    
2019/07/04  07:36:00  BASE  8.49072  2    11.4366  14   -0.3  100   -0.3  0     0     994.9    NA       0.0000   9999     0     0     0    
2019/07/04  07:37:00  BASE  8.44956  6    11.4366  14   -0.3  100   -0.3  0     0     994.9    NA       0.0000   9999     0     0     0    
2019/07/04  07:38:00  BASE  8.7612   8    10.831   12   -0.2  100   -0.2  0     0     994.9    NA       0.0000   9999     0     0     0    
2019/07/04  07:39:00  BASE  8.74944  8    10.1959  2    -0.2  100   -0.2  0     0     994.9    NA       0.0000   9999     0     0     0    
2019/07/04  07:40:00  BASE  9.1728   8    10.1959  7    -0.2  100   -0.2  0     0     994.8    NA       0.0000   9999     0     0     0    
2019/07/04  07:41:00  BASE  9.36684  7    10.1959  7    -0.2  100   -0.2  0     0     994.8    NA       0.0000   9999     0     0     0    
2019/07/04  07:42:00  BASE  8.967    5    10.1959  7    -0.2  100   -0.2  0     0     994.9    NA       0.0000   9999     360   0     0    
2019/07/04  07:43:00  BASE  8.98464  5    10.1959  7    -0.2  100   -0.2  0     0     994.9    NA       0.0000   9999     330   0     0    
2019/07/04  07:44:00  BASE  9.09048  6    10.1959  7    -0.2  100   -0.2  0     0     994.9    NA       0.0000   9999     330   0     0    
2019/07/04  07:45:00  BASE  8.97876  7    10.1959  7    -0.2  100   -0.2  0     0     994.9    NA       0.2540   9999     330   0     0    
2019/07/04  07:46:00  BASE  8.9376   8    10.1959  7    -0.2  100   -0.2  0     0     994.9    NA       0.0000   9999     300   4040  0    
2019/07/04  07:47:00  BASE  8.66124  6    10.1959  7    -0.2  100   -0.2  0     0     994.9    NA       0.0000   -SN      9999  3900  0    
2019/07/04  07:48:00  BASE  7.8792   3    10.1959  7    -0.2  100   -0.3  0     0     995.0    NA       0.0000   -SN      9999  300   3870 
2019/07/04  07:49:00  BASE  7.56756  5    10.1959  7    -0.2  99    -0.3  0     0     995.0    NA       0.0000   -SN      9999  330   3870 
2019/07/04  07:50:00  BASE  7.8498   7    10.043   7    -0.2  99    -0.3  0     0     995.0    NA       0.0000   -SN      9999  360   3810 
2019/07/04  07:51:00  BASE  8.13204  6    9.98424  4    -0.2  99    -0.3  0     0     994.9    NA       0.0000   -SN      9999  3810  0    
2019/07/04  07:52:00  BASE  7.791    4    9.98424  4    -0.2  99    -0.3  0     0     995.0    NA       0.0000   -SN      9999  3770  0    
2019/07/04  07:53:00  BASE  7.13244  4    9.80196  7    -0.2  99    -0.3  0     0     995.0    NA       0.0000   -SN      9999  3670  0    
2019/07/04  07:54:00  BASE  7.65576  7    9.5256   11   -0.2  99    -0.3  0     0     994.9    NA       0.0000   -SN      9999  3640  0    
2019/07/04  07:55:00  BASE  8.3496   8    9.4374   10   -0.2  100   -0.3  0     0     994.8    NA       0.0000   -SN      9999  3510  0    
2019/07/04  07:56:00  BASE  8.47308  9    9.28452  6    -0.2  100   -0.2  0     0     994.8    NA       0.0000   -SN      9999  3310  0    
2019/07/04  07:57:00  BASE  8.57304  10   9.22572  12   -0.2  100   -0.2  0     0     994.7    NA       0.0000   9999     3050  0     0    
2019/07/04  07:58:00  BASE  8.31432  10   9.22572  12   -0.2  100   -0.2  0     0     994.7    NA       0.0000   9999     2850  0     0    
2019/07/04  07:59:00  BASE  8.00856  8    9.22572  12   -0.1  99    -0.2  0     0     994.7    NA       0.0000   9999     2590  0     0    
2019/07/04  08:00:00  BASE  8.29668  5    9.28452  1    -0.1  99    -0.2  0     0     994.7    NA       0.0000   9999     2790  0     0    
2019/07/04  08:01:00  BASE  8.13792  2    9.28452  1    -0.1  99    -0.3  0     0     994.8    NA       0.0000   9999     2820  0     0    
2019/07/04  08:02:00  BASE  7.62636  1    9.28452  1    -0.1  98    -0.3  0     0     994.8    NA       0.0000   9999     2820  0     0    
2019/07/04  08:03:00  BASE  7.77336  3    9.28452  1    -0.1  98    -0.3  0     0     994.8    NA       0.0000   9999     2850  0     0    
2019/07/04  08:04:00  BASE  7.92036  7    9.28452  1    -0.0  98    -0.4  0     0     994.8    NA       0.0000   9999     2790  0     0    
2019/07/04  08:05:00  BASE  8.52012  8    10.1665  10   -0.0  97    -0.4  0     0     994.7    NA       0.0000   9999     2790  0     0    
2019/07/04  08:06:00  BASE  8.89644  7    10.1665  10   0.0   97    -0.4  0     0     994.7    NA       0.0000   9999     2720  0     0    
2019/07/04  08:07:00  BASE  8.6436   4    10.1665  10   0.0   97    -0.4  0     0     994.7    NA       0.0000   9999     2590  0     0    
2019/07/04  08:08:00  BASE  8.94348  3    10.1665  10   0.1   96    -0.5  0     0     994.7    NA       0.0000   9999     2460  0     0    
2019/07/04  08:09:00  BASE  8.91996  2    10.1665  10   0.1   96    -0.5  0     0     994.7    NA       0.0000   9999     3120  0     0    
2019/07/04  08:10:00  BASE  8.57892  359  10.1665  10   0.1   95    -0.5  0     0     994.7    NA       0.0000   9999     2430  0     0    
2019/07/04  08:11:00  BASE  8.39664  357  10.1665  10   0.1   95    -0.6  0     0     994.7    NA       0.0000   9999     3020  0     0    
2019/07/04  08:12:00  BASE  8.4966   359  10.1665  10   0.1   95    -0.7  0     0     994.6    NA       0.0000   9999     3050  0     0    
2019/07/04  08:13:00  BASE  8.50836  2    10.1665  10   0.1   94    -0.7  0     0     994.7    NA       0.0000   9999     2490  0     0    
2019/07/04  08:14:00  BASE  8.47308  2    10.1665  10   0.1   94    -0.7  0     0     994.7    NA       0.0000   9999     2490  0     0    
2019/07/04  08:15:00  BASE  8.31432  358  10.043   354  0.1   94    -0.8  0     0     994.7    NA       0.0000   9999     2890  0     0    
2019/07/04  08:16:00  BASE  7.81452  355  10.043   354  0.1   94    -0.7  0     0     994.8    NA       0.0000   9999     2760  0     0    
2019/07/04  08:17:00  BASE  7.20888  350  10.043   354  0.1   94    -0.7  0     0     994.9    NA       0.0000   9999     2760  0     0    
2019/07/04  08:18:00  BASE  6.57384  349  10.043   354  0.2   94    -0.7  0     0     995.0    NA       0.0000   9999     2850  0     0    
2019/07/04  08:19:00  BASE  6.20928  351  10.043   354  0.2   94    -0.7  0     0     995.1    NA       0.0000   9999     2820  0     0    
2019/07/04  08:20:00  BASE  6.21516  352  9.59028  2    0.2   93    -0.7  0     0     995.1    NA       0.0000   9999     2720  0     0    
2019/07/04  08:21:00  BASE  6.09756  351  9.59028  2    0.2   93    -0.8  0     0     995.2    NA       0.0000   9999     2100  2790  0    
2019/07/04  08:22:00  BASE  5.72712  353  9.59028  2    0.1   93    -0.8  0     0     995.2    NA       0.0000   9999     2790  0     0    
2019/07/04  08:23:00  BASE  5.53896  350  9.59028  2    0.1   93    -0.9  0     0     995.2    NA       0.0000   9999     2720  0     0    
2019/07/04  08:24:00  BASE  5.16264  345  8.92584  355  0.1   93    -0.9  0     0     995.3    NA       0.0000   9999     2620  0     0    
2019/07/04  08:25:00  BASE  4.62756  340  8.53188  360  0.1   93    -0.9  0     0     995.3    NA       0.0000   9999     2660  0     0    
2019/07/04  08:26:00  BASE  4.25124  332  7.71456  349  0.1   93    -0.9  0     0     995.3    NA       0.0000   9999     2720  0     0    
2019/07/04  08:27:00  BASE  4.02192  328  7.05012  352  0.0   93    -1.0  0     0     995.3    NA       0.0000   9999     2720  0     0    
2019/07/04  08:28:00  BASE  3.8514   329  7.05012  352  -0.0  93    -1.0  0     0     995.3    NA       0.0000   9999     2000  2690  0    
2019/07/04  08:29:00  BASE  3.92784  332  6.92664  349  -0.1  93    -1.0  0     0     995.3    NA       0.0000   9999     1840  2660  0    
2019/07/04  08:30:00  BASE  4.22184  332  6.2034   345  -0.1  94    -1.0  0     0     995.3    NA       0.0000   9999     1900  2720  0    
2019/07/04  08:31:00  BASE  4.4394   329  6.02112  354  -0.1  94    -1.0  0     0     995.3    NA       0.0000   9999     1800  2720  0    
2019/07/04  08:32:00  BASE  5.16264  329  6.44448  328  -0.1  95    -0.9  0     0     995.2    NA       0.0000   9999     1770  2620  0    
2019/07/04  08:33:00  BASE  5.57424  332  6.44448  328  -0.1  95    -0.8  0     0     995.2    NA       0.0000   9999     1840  2620  0    
2019/07/04  08:34:00  BASE  5.4684   338  6.44448  328  -0.2  96    -0.8  0     0     995.2    NA       0.0000   9999     1800  2690  0    
2019/07/04  08:35:00  BASE  5.60952  339  6.44448  333  -0.2  96    -0.8  0     0     995.2    NA       0.0000   9999     1840  2590  0    
2019/07/04  08:36:00  BASE  4.87452  339  6.44448  333  -0.1  96    -0.7  0     0     995.3    NA       0.0000   9999     1900  2560  0    
2019/07/04  08:37:00  BASE  4.15716  345  6.44448  333  -0.1  96    -0.7  0     0     995.3    NA       0.0000   9999     1870  0     0    
2019/07/04  08:38:00  BASE  3.80436  352  6.44448  333  -0.1  96    -0.6  0     0     995.3    NA       0.0000   9999     1770  2590  0    
2019/07/04  08:39:00  BASE  3.47508  355  6.44448  333  -0.1  96    -0.6  0     0     995.3    NA       0.0000   9999     1740  2620  0    
2019/07/04  08:40:00  BASE  3.50448  350  6.44448  333  -0.1  96    -0.6  0     0     995.4    NA       0.0000   9999     1440  2620  0    
2019/07/04  08:41:00  BASE  3.48684  342  6.44448  333  -0.1  96    -0.6  0     0     995.4    NA       0.0000   9999     1280  0     0    
2019/07/04  08:42:00  BASE  3.381    336  6.44448  333  -0.1  97    -0.6  0     0     995.4    NA       0.0000   9999     1150  0     0    
2019/07/04  08:43:00  BASE  3.234    331  6.44448  333  -0.1  97    -0.6  0     0     995.4    NA       0.0000   9999     1150  0     0    
2019/07/04  08:44:00  BASE  2.91648  326  6.44448  333  -0.1  97    -0.5  0     0     995.5    NA       0.0000   9999     1120  0     0    
2019/07/04  08:45:00  BASE  2.58132  325  4.89804  334  -0.1  97    -0.5  0     0     995.5    NA       0.0000   9999     820   0     0    
2019/07/04  08:46:00  BASE  2.68716  325  4.62756  349  -0.1  97    -0.5  0     0     995.5    NA       0.0000   9999     980   0     0    
2019/07/04  08:47:00  BASE  2.72832  327  3.99252  352  -0.1  97    -0.5  0     0     995.6    NA       0.0000   9999     1350  0     0    
2019/07/04  08:48:00  BASE  1.87572  331  3.99252  352  -0.1  97    -0.5  0     0     995.7    NA       0.0000   9999     1250  0     0    
2019/07/04  08:49:00  BASE  1.05252  36   3.90432  360  -0.2  97    -0.6  0     0     995.6    NA       0.0000   9999     1410  0     0    
2019/07/04  08:50:00  BASE  1.32888  124  3.72204  330  -0.4  97    -0.8  0     0     995.5    NA       0.0000   9999     750   0     0    
2019/07/04  08:51:00  BASE  2.0286   142  3.72204  330  -0.5  97    -0.9  0     0     995.5    NA       0.0000   9999     820   0     0    
2019/07/04  08:52:00  BASE  2.5578   157  3.62796  325  -0.7  98    -1.1  0     0     995.5    NA       0.0000   9999     1310  0     0    
2019/07/04  08:53:00  BASE  2.85768  171  3.38688  320  -1.0  98    -1.2  0     0     995.5    NA       0.0000   9999     980   0     0    
2019/07/04  08:54:00  BASE  2.75184  179  3.38688  320  -1.1  99    -1.3  0     0     995.5    NA       0.0000   9999     750   0     0    
2019/07/04  08:55:00  BASE  2.3814   182  3.38688  320  -1.2  99    -1.3  0     0     995.5    NA       0.0000   9999     690   0     0    
2019/07/04  08:56:00  BASE  2.21676  181  3.1458   172  -1.3  100   -1.4  0     0     995.5    NA       0.0000   9999     1310  0     0    
2019/07/04  08:57:00  BASE  2.15796  181  3.29868  170  -1.4  100   -1.4  0     0     995.5    NA       0.0000   9999     1050  0     0    
2019/07/04  08:58:00  BASE  2.7342   172  3.75144  164  -1.5  100   -1.5  0     0     995.6    NA       0.0000   9999     1380  0     0    
2019/07/04  08:59:00  BASE  3.41628  164  3.78084  165  -1.5  100   -1.5  0     0     995.7    NA       0.0000   9999     1540  0     0    
2019/07/04  09:00:00  BASE  3.75732  163  4.44528  163  -1.6  100   -1.6  0     0     995.7    NA       0.0000   9999     1410  0     0    
2019/07/04  09:01:00  BASE  3.99252  157  4.44528  163  -1.6  100   -1.6  0     0     995.7    NA       0.0000   9999     1210  0     0    
2019/07/04  09:02:00  BASE  3.59856  153  4.44528  163  -1.7  100   -1.7  0     0     995.7    NA       0.0000   9999     1210  0     0    
2019/07/04  09:03:00  BASE  3.3222   151  4.44528  163  -1.7  100   -1.7  0     0     995.8    NA       0.0000   9999     1280  0     0    
2019/07/04  09:04:01  BASE  3.78672  147  4.65696  145  -1.8  100   -1.8  0     0     995.8    NA       0.0000   9999     980   0     0    
2019/07/04  09:05:00  BASE  3.9102   142  4.65696  145  -1.8  100   -1.8  0     0     995.8    NA       0.0000   9999     850   0     0    
2019/07/04  09:06:00  BASE  3.92784  140  4.83924  143  -1.8  100   -1.8  0     0     995.8    NA       0.0000   9999     890   0     0    
2019/07/04  09:07:00  BASE  4.21008  141  4.83924  143  -1.9  100   -1.9  0     0     995.8    NA       0.0000   9999     820   0     0    
2019/07/04  09:08:00  BASE  4.01016  142  4.83924  143  -1.9  100   -1.9  0     0     995.8    NA       0.0000   9999     890   0     0    
2019/07/04  09:09:00  BASE  3.95136  141  4.83924  143  -1.9  100   -1.9  0     0     995.8    NA       0.0000   9999     750   0     0    
2019/07/04  09:10:00  BASE  3.7338   147  4.83924  143  -1.9  100   -1.9  0     0     995.8    NA       0.0000   9999     690   0     0    
2019/07/04  09:11:00  BASE  3.23988  147  4.83924  143  -1.8  100   -1.8  0     0     995.8    NA       0.0000   9999     690   0     0    
2019/07/04  09:12:00  BASE  2.00508  154  4.83924  143  -1.8  100   -1.8  0     0     995.8    NA       0.0000   9999     660   0     0    
2019/07/04  09:13:00  BASE  1.48764  164  4.83924  143  -1.7  100   -1.7  0     0     995.9    NA       0.0000   9999     660   0     0    
2019/07/04  09:14:00  BASE  1.911    151  4.83924  143  -1.6  100   -1.6  0     0     995.9    NA       0.0000   9999     590   0     0    
2019/07/04  09:15:00  BASE  2.59896  140  4.83924  143  -1.6  100   -1.6  0     0     995.9    NA       0.0000   9999     690   0     0    
2019/07/04  09:16:00  BASE  4.09836  133  5.38608  127  -1.6  100   -1.6  0     0     995.9    NA       0.0000   9999     560   0     0    
2019/07/04  09:17:00  BASE  4.23948  119  5.38608  127  -1.6  100   -1.6  0     0     995.9    NA       0.0000   9999     460   0     0    
2019/07/04  09:18:00  BASE  4.12188  122  5.38608  127  -1.7  100   -1.7  0     0     995.9    NA       0.0000   9999     660   0     0    
2019/07/04  09:19:00  BASE  4.5864   130  5.38608  127  -1.8  100   -1.8  0     0     995.9    NA       0.0000   9999     720   0     0    
2019/07/04  09:20:00  BASE  4.68048  124  5.38608  127  -1.8  100   -1.8  0     0     995.9    NA       0.0000   9999     560   0     0    
2019/07/04  09:21:00  BASE  4.4982   120  5.38608  127  -1.9  100   -1.9  0     0     995.9    NA       0.0000   UP       9999  560   0    
2019/07/04  09:22:00  BASE  4.15128  120  5.38608  127  -1.9  100   -1.9  0     0     995.9    NA       0.0000   UP       9999  490   0    
2019/07/04  09:23:00  BASE  3.69264  124  5.38608  127  -1.9  100   -1.9  0     0     995.9    NA       0.0000   UP       9999  520   0    
2019/07/04  09:24:00  BASE  3.39864  125  5.38608  127  -1.8  100   -1.8  0     0     995.9    NA       0.0000   UP       9999  590   0    
2019/07/04  09:25:00  BASE  3.7926   131  5.38608  127  -1.8  100   -1.8  0     0     995.9    NA       0.0000   UP       9999  490   0    
2019/07/04  09:26:00  BASE  4.02192  133  5.2038   134  -1.8  100   -1.8  0     0     995.9    NA       0.0000   UP       9999  460   0    
2019/07/04  09:27:00  BASE  3.76908  127  5.2038   134  -1.7  100   -1.7  0     0     996.0    NA       0.0000   UP       9999  360   0    
2019/07/04  09:28:00  BASE  3.83376  127  5.1744   113  -1.7  100   -1.7  0     0     996.0    NA       0.0000   UP       9999  460   0    
2019/07/04  09:29:00  BASE  4.19244  132  5.1744   113  -1.8  100   -1.8  0     0     996.0    NA       0.0000   UP       9999  430   0    
2019/07/04  09:30:00  BASE  4.19832  130  4.93332  120  -1.7  100   -1.7  0     0     996.1    NA       0.0000   UP       9999  390   0    
2019/07/04  09:31:00  BASE  3.75732  122  4.78044  143  -1.7  100   -1.7  0     0     996.1    NA       0.0000   UP       9999  430   0    
2019/07/04  09:32:00  BASE  3.75144  122  4.78044  143  -1.8  100   -1.8  0     0     996.1    NA       0.0000   UP       9999  390   0    
2019/07/04  09:33:00  BASE  4.29828  124  4.89804  123  -1.8  100   -1.8  0     0     996.1    NA       0.0000   UP       9999  390   0    
2019/07/04  09:34:00  BASE  4.44528  117  4.99212  110  -1.8  100   -1.8  0     0     996.1    NA       0.0000   UP       9999  390   0    
2019/07/04  09:35:00  BASE  4.59816  112  5.35668  114  -1.9  100   -1.9  0     0     996.1    NA       0.0000   UP       9999  390   0    
2019/07/04  09:36:00  BASE  4.80396  113  5.35668  114  -1.9  100   -1.9  0     0     996.1    NA       0.0000   UP       9999  330   0    
2019/07/04  09:37:00  BASE  4.704    111  5.35668  114  -1.9  100   -1.9  0     0     996.1    NA       0.0000   UP       9999  260   0    
2019/07/04  09:38:00  BASE  4.55112  110  5.35668  114  -1.9  100   -1.9  0     0     996.1    NA       0.0000   UP       9999  230   0    
2019/07/04  09:39:00  BASE  4.31004  111  5.35668  114  -2.0  100   -2.0  0     0     996.1    NA       0.0000   UP       9999  230   0    
2019/07/04  09:40:00  BASE  3.98664  112  5.35668  114  -2.0  100   -2.0  0     0     996.1    NA       0.0000   UP       9999  230   0    
2019/07/04  09:41:00  BASE  3.68088  108  5.35668  114  -2.0  100   -2.0  0     0     996.0    NA       0.0000   UP       9999  230   0    
2019/07/04  09:42:00  BASE  3.234    102  5.35668  114  -2.0  100   -2.0  0     0     996.0    NA       0.0000   UP       9000  300   0    
2019/07/04  09:43:00  BASE  2.66364  99   5.35668  114  -1.9  100   -1.9  0     0     996.0    NA       0.0000   UP       7000  300   0    
2019/07/04  09:44:00  BASE  2.88708  100  5.35668  114  -1.9  100   -1.9  0     0     996.0    NA       0.0000   UP       8000  300   0    
2019/07/04  09:45:00  BASE  3.23988  102  5.3214   110  -1.9  100   -1.9  0     0     996.0    NA       0.0000   UP       9000  300   0    
2019/07/04  09:46:00  BASE  2.7342   104  5.08032  113  -1.8  100   -1.8  0     0     996.0    NA       0.0000   UP       BR    9000  300  
2019/07/04  09:47:00  BASE  2.28732  108  4.78044  111  -1.8  100   -1.8  0     0     996.0    NA       0.0000   UP       BR    9000  300  
2019/07/04  09:48:00  BASE  2.43432  110  4.47468  113  -1.9  100   -1.9  0     0     996.0    NA       0.0000   UP       BR    9000  260  
2019/07/04  09:49:00  BASE  2.5284   109  4.08072  110  -1.9  100   -1.9  0     0     996.1    NA       0.0000   UP       BR    9000  260  
2019/07/04  09:50:00  BASE  2.33436  113  4.02192  101  -1.9  100   -1.9  0     0     996.1    NA       0.0000   UP       BR    8000  300  
2019/07/04  09:51:00  BASE  2.3814   115  3.69264  104  -1.8  100   -1.8  0     0     996.1    NA       0.0000   UP       BR    7000  260  
2019/07/04  09:52:00  BASE  2.42844  114  3.53976  105  -1.8  100   -1.8  0     0     996.1    NA       0.0000   UP       BR    7000  300  
2019/07/04  09:53:00  BASE  2.1756   114  3.53976  105  -1.8  100   -1.8  0     0     996.1    NA       0.0000   UP       BR    7000  260  
2019/07/04  09:54:00  BASE  1.9404   113  3.48096  96   -1.8  100   -1.8  0     0     996.1    NA       0.0000   BR       8000  300   0    
2019/07/04  09:55:00  BASE  1.8228   114  2.93412  103  -1.7  100   -1.7  0     0     996.2    NA       0.0000   BR       7000  300   0    
2019/07/04  09:56:00  BASE  1.89336  118  2.93412  103  -1.7  100   -1.7  0     0     996.3    NA       0.0000   BR       6000  260   0    
2019/07/04  09:57:00  BASE  2.00508  119  2.93412  103  -1.7  100   -1.7  0     0     996.3    NA       0.0000   BR       5000  300   0    
2019/07/04  09:58:00  BASE  2.16972  120  2.93412  128  -1.7  100   -1.7  0     0     996.3    NA       0.0000   UP       BR    4200  260  
2019/07/04  09:59:00  BASE  2.5284   121  2.96352  122  -1.7  100   -1.7  0     0     996.3    NA       0.0000   UP       BR    3600  260  
2019/07/04  10:00:00  BASE  2.68128  118  3.087    121  -1.7  100   -1.7  0     0     996.3    NA       0.0000   UP       BR    3000  0    
2019/07/04  10:01:00  BASE  2.64012  118  3.087    121  -1.7  100   -1.7  0     0     996.3    NA       0.0000   UP       BR    2500  230  
2019/07/04  10:02:00  BASE  2.8224   118  3.2046   122  -1.7  100   -1.7  0     0     996.2    NA       0.0000   UP       BR    2300  260  
2019/07/04  10:03:00  BASE  2.9106   117  3.2046   122  -1.7  100   -1.7  0     0     996.3    NA       0.0000   UP       BR    2000  230  
2019/07/04  10:04:00  BASE  2.78712  117  3.2046   122  -1.7  100   -1.7  0     0     996.3    NA       0.0000   UP       BR    1700  230  
2019/07/04  10:05:00  BASE  2.7048   118  3.2046   122  -1.6  100   -1.6  0     0     996.4    NA       0.0000   UP       BR    1600  260  
2019/07/04  10:06:00  BASE  2.5872   117  3.2046   122  -1.6  100   -1.6  0     0     996.4    NA       0.0000   UP       BR    1600  260  
2019/07/04  10:07:00  BASE  2.6166   116  3.2046   122  -1.6  100   -1.6  0     0     996.4    NA       0.0000   UP       BR    1500  260  
2019/07/04  10:08:00  BASE  2.59896  115  3.2046   122  -1.6  100   -1.6  0     0     996.4    NA       0.0000   UP       BR    1500  260  
2019/07/04  10:09:00  BASE  2.49312  115  3.2046   122  -1.6  100   -1.6  0     0     996.4    NA       0.0000   UP       BR    1500  260  
2019/07/04  10:10:00  BASE  2.29908  115  3.2046   122  -1.6  100   -1.6  0     0     996.4    NA       0.0000   UP       BR    1400  300  
2019/07/04  10:11:00  BASE  2.02272  112  3.2046   122  -1.6  100   -1.6  0     0     996.4    NA       0.0000   UP       BR    1400  300  
2019/07/04  10:12:00  BASE  1.9698   108  2.96352  114  -1.6  100   -1.6  0     0     996.4    NA       0.0000   UP       BR    1500  300  
2019/07/04  10:13:00  BASE  1.89336  103  2.96352  114  -1.6  100   -1.6  0     0     996.4    NA       0.0000   UP       BR    1600  300  
2019/07/04  10:14:00  BASE  1.72284  99   2.96352  114  -1.6  100   -1.6  0     0     996.4    NA       0.0000   UP       BR    1800  300  
2019/07/04  10:15:00  BASE  1.64052  98   2.87532  112  -1.6  100   -1.6  0     0     996.4    NA       0.0000   UP       BR    1900  300  
2019/07/04  10:16:00  BASE  1.57584  97   2.87532  112  -1.6  100   -1.6  0     0     996.4    NA       0.0000   UP       BR    2200  300  
2019/07/04  10:17:00  BASE  1.48176  91   2.81064  120  -1.6  100   -1.6  0     0     996.4    NA       0.0000   UP       BR    2500  300  
2019/07/04  10:18:00  BASE  1.42884  87   2.81064  120  -1.6  100   -1.6  0     0     996.5    NA       0.0000   UP       BR    2700  230  
2019/07/04  10:19:00  BASE  1.3524   84   2.32848  113  -1.6  100   -1.6  0     0     996.5    NA       0.0000   UP       BR    2900  260  
2019/07/04  10:20:00  BASE  1.21716  74   2.24028  103  -1.6  100   -1.6  0     0     996.5    NA       0.0000   BR       3100  230   0    
2019/07/04  10:21:00  BASE  1.07016  61   2.24028  103  -1.6  100   -1.6  0     0     996.5    NA       0.0000   BR       3300  230   0    
2019/07/04  10:22:00  BASE  0.99372  59   1.90512  100  -1.6  100   -1.6  0     0     996.5    NA       0.0000   BR       3600  230   0    
2019/07/04  10:23:00  BASE  1.03488  61   1.78752  96   -1.6  100   -1.6  0     0     996.5    NA       0.0000   BR       3800  230   1440 
2019/07/04  10:24:00  BASE  1.08192  59   1.78752  96   -1.6  100   -1.6  0     0     996.5    NA       0.0000   BR       4000  230   1380 
2019/07/04  10:25:00  BASE  1.1466   55   1.63464  98   -1.6  100   -1.6  0     0     996.5    NA       0.0000   BR       4400  230   1310 
2019/07/04  10:26:00  BASE  1.09956  55   1.54056  83   -1.6  100   -1.6  0     0     996.5    NA       0.0000   BR       4900  360   0    
2019/07/04  10:27:00  BASE  1.06428  54   1.54056  83   -1.6  100   -1.6  0     0     996.5    NA       0.0000   BR       5000  430   0    
2019/07/04  10:28:00  BASE  0.9996   49   1.42296  78   -1.6  100   -1.6  0     0     996.5    NA       0.0000   BR       6000  1120  0    
2019/07/04  10:29:00  BASE  0.7938   50   1.35828  52   -1.6  100   -1.6  0     0     996.6    NA       0.0000   BR       7000  1020  0    
2019/07/04  10:30:00  BASE  0.74676  48   1.35828  52   -1.6  100   -1.6  0     0     996.6    NA       0.0000   BR       8000  980   0    
2019/07/04  10:31:00  BASE  0.91728  43   1.35828  52   -1.6  100   -1.6  0     0     996.6    NA       0.0000   BR       9999  950   0    
2019/07/04  10:32:00  BASE  0.98196  35   1.35828  52   -1.6  100   -1.6  0     0     996.6    NA       0.0000   BR       9999  950   0    
2019/07/04  10:33:00  BASE  0.90552  21   1.35828  52   -1.7  100   -1.7  0     0     996.6    NA       0.0000   BR       9999  850   0    
2019/07/04  10:34:00  BASE  0.86436  8    1.35828  52   -1.7  100   -1.7  0     0     996.6    NA       0.0000   BR       9999  560   0    
2019/07/04  10:35:00  BASE  0.9114   360  1.18188  46   -1.7  100   -1.7  0     0     996.6    NA       0.0000   BR       9999  460   1610 
2019/07/04  10:36:00  BASE  1.029    353  1.24068  352  -1.7  100   -1.7  0     0     996.6    NA       0.0000   BR       9999  390   1610 
2019/07/04  10:37:00  BASE  1.12896  350  1.27008  346  -1.7  100   -1.7  0     0     996.6    NA       0.0000   9999     300   1570  0    
2019/07/04  10:38:00  BASE  1.19952  349  1.35828  344  -1.6  100   -1.6  0     0     996.6    NA       0.0000   9999     390   1480  0    
2019/07/04  10:39:00  BASE  1.12896  349  1.35828  344  -1.6  100   -1.6  0     0     996.6    NA       0.0000   9999     390   0     0    
2019/07/04  10:40:00  BASE  1.07016  342  1.35828  344  -1.6  100   -1.6  0     0     996.6    NA       0.0000   9999     390   0     0    
2019/07/04  10:41:00  BASE  1.1172   334  1.35828  344  -1.6  100   -1.6  0     0     996.6    NA       0.0000   9999     390   0     0    
2019/07/04  10:42:00  BASE  1.06428  328  1.35828  344  -1.7  100   -1.7  0     0     996.6    NA       0.0000   9999     390   1180  0    
2019/07/04  10:43:00  BASE  1.11132  316  1.35828  344  -1.7  100   -1.7  0     0     996.7    NA       0.0000   9999     230   620   0    
2019/07/04  10:44:00  BASE  1.24068  305  1.35828  297  -1.7  100   -1.7  0     0     996.7    NA       0.0000   9999     260   0     0    
2019/07/04  10:45:00  BASE  1.32888  300  1.51116  297  -1.7  100   -1.7  0     0     996.7    NA       0.0000   9999     390   0     0    
2019/07/04  10:46:00  BASE  1.48176  298  1.72284  304  -1.7  100   -1.7  0     0     996.7    NA       0.0000   9999     330   0     0    
2019/07/04  10:47:00  BASE  1.54056  300  1.75224  306  -1.7  100   -1.7  0     0     996.7    NA       0.0000   9999     260   0     0    
2019/07/04  10:48:00  BASE  1.66404  307  2.1462   323  -1.7  100   -1.7  0     0     996.7    NA       0.0000   9999     330   0     0    
2019/07/04  10:49:00  BASE  1.78164  316  2.1462   323  -1.7  100   -1.7  0     0     996.8    NA       0.0000   9999     300   0     0    
2019/07/04  10:50:00  BASE  1.9992   326  2.54016  343  -1.7  100   -1.7  0     0     996.8    NA       0.0000   9999     200   0     0    
2019/07/04  10:51:00  BASE  2.60484  337  3.83964  342  -1.7  100   -1.7  0     0     996.8    NA       0.0000   9999     0     0     0    
2019/07/04  10:52:00  BASE  3.55152  341  4.32768  339  -1.7  100   -1.7  0     0     996.7    NA       0.0000   9999     0     0     0    
2019/07/04  10:53:00  BASE  4.28652  341  4.68636  339  -1.7  100   -1.7  0     0     996.7    NA       0.0000   7000     0     0     0    
2019/07/04  10:54:00  BASE  4.56288  342  4.99212  341  -1.7  100   -1.7  0     0     996.7    NA       0.0000   5000     0     0     0    
2019/07/04  10:55:00  BASE  4.7334   342  4.99212  341  -1.7  100   -1.7  0     0     996.7    NA       0.0000   5000     0     0     0    
2019/07/04  10:56:00  BASE  4.75104  342  5.02152  342  -1.7  100   -1.7  0     0     996.8    NA       0.0000   BR       4900  0     0    
2019/07/04  10:57:00  BASE  4.77456  341  5.02152  342  -1.7  100   -1.7  0     0     996.8    NA       0.0000   BR       4800  0     0    
2019/07/04  10:58:00  BASE  4.80396  341  5.02152  342  -1.7  100   -1.7  0     0     996.8    NA       0.0000   BR       5000  0     0    
2019/07/04  10:59:00  BASE  4.75104  341  5.02152  342  -1.7  100   -1.7  0     0     996.8    NA       0.0000   BR       5000  0     0    
2019/07/04  11:00:00  BASE  4.75104  342  5.02152  343  -1.7  100   -1.7  0     0     996.8    NA       0.0000   BR       6000  0     0    
2019/07/04  11:01:00  BASE  4.59228  342  5.02152  343  -1.7  100   -1.7  0     0     996.8    NA       0.0000   BR       5000  0     0    
2019/07/04  11:02:00  BASE  4.2924   342  5.02152  343  -1.7  100   -1.7  0     0     996.8    NA       0.0000   BR       5000  0     0    
2019/07/04  11:03:00  BASE  4.4394   342  5.02152  343  -1.7  100   -1.7  0     0     996.8    NA       0.0000   BR       5000  0     0    
2019/07/04  11:04:00  BASE  4.60992  342  5.02152  343  -1.7  100   -1.7  0     0     996.9    NA       0.0000   BR       6000  0     0    
2019/07/04  11:05:00  BASE  4.50996  342  5.02152  343  -1.7  100   -1.7  0     0     997.0    NA       0.0000   BR       6000  0     0    
2019/07/04  11:06:00  BASE  4.42176  343  5.02152  343  -1.7  100   -1.7  0     0     997.0    NA       0.0000   BR       7000  0     0    
2019/07/04  11:07:00  BASE  4.39236  342  5.02152  343  -1.7  100   -1.7  0     0     997.0    NA       0.0000   BR       7000  0     0    
2019/07/04  11:08:00  BASE  4.31592  341  5.02152  343  -1.7  100   -1.7  0     0     997.0    NA       0.0000   BR       6000  0     0    
2019/07/04  11:09:00  BASE  4.09836  338  5.02152  343  -1.7  100   -1.7  0     0     997.0    NA       0.0000   BR       7000  0     0    
2019/07/04  11:10:00  BASE  3.99252  337  4.83924  343  -1.7  100   -1.7  0     0     997.0    NA       0.0000   BR       6000  0     0    
2019/07/04  11:11:00  BASE  3.95136  339  4.80984  341  -1.7  100   -1.7  0     0     997.0    NA       0.0000   BR       5000  0     0    
2019/07/04  11:12:00  BASE  3.9102   337  4.80984  341  -1.7  100   -1.7  0     0     997.1    NA       0.0000   BR       5000  0     0    
2019/07/04  11:13:00  BASE  3.75144  336  4.75104  339  -1.7  100   -1.7  0     0     997.1    NA       0.0000   BR       5000  0     0    
2019/07/04  11:14:00  BASE  3.47508  335  4.68636  341  -1.7  100   -1.7  0     0     997.1    NA       0.0000   BR       5000  0     0    
2019/07/04  11:15:00  BASE  3.3516   334  4.68636  341  -1.7  100   -1.7  0     0     997.1    NA       0.0000   BR       5000  0     0    
2019/07/04  11:16:00  BASE  3.29868  333  4.68636  341  -1.7  100   -1.7  0     0     997.2    NA       0.0000   BR       5000  0     0    
2019/07/04  11:17:00  BASE  3.28104  332  4.32768  340  -1.7  100   -1.7  0     0     997.2    NA       0.0000   BR       6000  0     0    
2019/07/04  11:18:00  BASE  3.39276  329  4.2042   333  -1.7  100   -1.7  0     0     996.9    NA       0.0000   BR       9999  0     0    
2019/07/04  11:19:00  BASE  3.28104  328  4.2042   333  -1.7  100   -1.7  0     0     997.1    NA       0.0000   BR       9999  0     0    
2019/07/04  11:20:00  BASE  3.03996  329  4.2042   333  -1.7  100   -1.7  0     0     997.2    NA       0.0000   BR       9999  0     0    
2019/07/04  11:21:00  BASE  2.87532  329  4.2042   333  -1.7  100   -1.7  0     0     997.2    NA       0.0000   BR       7000  0     0    
2019/07/04  11:22:00  BASE  2.64012  328  3.90432  337  -1.7  100   -1.7  0     0     997.2    NA       0.0000   BR       5000  0     0    
2019/07/04  11:23:00  BASE  2.60484  326  3.69264  335  -1.7  100   -1.7  0     0     997.2    NA       0.0000   BR       5000  0     0    
2019/07/04  11:24:00  BASE  2.6166   325  3.69264  335  -1.7  100   -1.7  0     0     997.2    NA       0.0000   BR       6000  0     0    
2019/07/04  11:25:00  BASE  2.499    324  3.65736  334  -1.7  100   -1.7  0     0     997.2    NA       0.0000   BR       8000  0     0    
2019/07/04  11:26:00  BASE  2.45196  320  3.65736  334  -1.7  100   -1.7  0     0     997.2    NA       0.0000   BR       9999  0     0    
2019/07/04  11:27:00  BASE  2.31672  316  3.62796  329  -1.7  100   -1.7  0     0     997.2    NA       0.0000   BR       9999  0     0    
2019/07/04  11:28:00  BASE  2.40492  314  3.48096  325  -1.7  100   -1.7  0     0     997.2    NA       0.0000   BR       9999  0     0    
2019/07/04  11:29:00  BASE  2.82828  314  3.234    315  -1.7  100   -1.7  0     0     997.2    NA       0.0000   BR       9999  0     0    
2019/07/04  11:30:00  BASE  2.89296  316  3.234    315  -1.7  100   -1.7  0     0     997.2    NA       0.0000   BR       9999  0     0    
2019/07/04  11:31:00  BASE  2.69892  318  3.234    315  -1.7  100   -1.7  0     0     997.2    NA       0.0000   BR       9999  0     0    
2019/07/04  11:32:00  BASE  2.56956  320  3.234    315  -1.7  100   -1.7  0     0     997.3    NA       0.0000   9999     0     0     0    
2019/07/04  11:33:00  BASE  2.39316  322  3.234    315  -1.7  100   -1.7  0     0     997.3    NA       0.0000   9999     0     0     0    
2019/07/04  11:34:00  BASE  2.26968  324  3.234    315  -1.7  100   -1.7  0     0     997.3    NA       0.0000   9999     0     0     0    
2019/07/04  11:35:00  BASE  2.41668  325  3.234    315  -1.7  100   -1.7  0     0     997.3    NA       0.0000   9999     0     0     0    
2019/07/04  11:36:00  BASE  2.4402   326  3.234    315  -1.7  100   -1.7  0     0     997.3    NA       0.0000   9999     0     0     0    
2019/07/04  11:37:00  BASE  2.36376  327  3.234    315  -1.7  100   -1.7  0     0     997.3    NA       0.0000   7000     0     0     0    
2019/07/04  11:38:00  BASE  2.39904  326  3.234    315  -1.7  100   -1.7  0     0     997.3    NA       0.0000   5000     0     0     0    
2019/07/04  11:39:00  BASE  2.36376  322  3.1458   313  -1.7  100   -1.7  0     0     997.3    NA       0.0000   7000     0     0     0    
2019/07/04  11:40:00  BASE  2.42844  320  2.93412  317  -1.7  100   -1.7  0     0     997.3    NA       0.0000   9999     0     0     0    
2019/07/04  11:41:00  BASE  2.42844  319  2.84592  324  -1.7  100   -1.7  0     0     997.4    NA       0.0000   9999     0     0     0    
2019/07/04  11:42:00  BASE  2.2638   320  2.84592  324  -1.7  100   -1.7  0     0     997.4    NA       0.0000   9999     0     0     0    
2019/07/04  11:43:00  BASE  2.1168   322  2.84592  324  -1.7  100   -1.7  0     0     997.4    NA       0.0000   9000     0     0     0    
2019/07/04  11:44:00  BASE  2.0286   322  2.84592  324  -1.7  100   -1.7  0     0     997.5    NA       0.0000   BR       8000  0     0    
2019/07/04  11:45:00  BASE  1.9992   319  2.66364  324  -1.7  100   -1.7  0     0     997.5    NA       0.0000   BR       6000  0     0    
2019/07/04  11:46:00  BASE  2.07564  317  2.66364  324  -1.7  100   -1.7  0     0     997.5    NA       0.0000   BR       5000  0     0    
2019/07/04  11:47:00  BASE  2.12856  317  2.66364  324  -1.7  100   -1.7  0     0     997.5    NA       0.0000   BR       4900  0     0    
2019/07/04  11:48:00  BASE  2.06976  319  2.66364  324  -1.7  100   -1.7  0     0     997.5    NA       0.0000   BR       5000  0     0    
2019/07/04  11:49:00  BASE  2.06388  323  2.56956  320  -1.7  100   -1.7  0     0     997.5    NA       0.0000   BR       5000  0     0    
2019/07/04  11:50:00  BASE  2.15796  328  2.51076  320  -1.7  100   -1.7  0     0     997.5    NA       0.0000   BR       5000  0     0    
2019/07/04  11:51:00  BASE  2.18736  333  2.48136  317  -1.8  100   -1.8  0     0     997.5    NA       0.0000   BR       6000  0     0    
2019/07/04  11:52:00  BASE  2.27556  334  2.48136  330  -1.8  100   -1.8  0     0     997.4    NA       0.0000   BR       8000  0     0    
2019/07/04  11:53:00  BASE  2.42256  334  2.54016  333  -1.8  100   -1.8  0     0     997.3    NA       0.0000   BR       9999  0     0    
2019/07/04  11:54:00  BASE  2.50488  336  2.81064  340  -1.8  100   -1.8  0     0     997.3    NA       0.0000   BR       9999  0     0    
2019/07/04  11:55:00  BASE  2.84004  341  3.29868  342  -1.8  100   -1.8  0     0     997.3    NA       0.0000   BR       9999  0     0    
2019/07/04  11:56:00  BASE  3.15756  341  3.29868  334  -1.8  100   -1.8  0     0     997.3    NA       0.0000   BR       9999  0     0    
2019/07/04  11:57:00  BASE  3.06936  337  3.29868  334  -1.8  100   -1.8  0     0     997.3    NA       0.0000   BR       9999  0     0    
2019/07/04  11:58:00  BASE  2.8812   337  3.29868  334  -1.8  100   -1.8  0     0     997.2    NA       0.0000   BR       9999  200   0    
2019/07/04  11:59:00  BASE  2.85768  342  3.29868  334  -1.8  100   -1.8  0     0     997.2    NA       0.0000   9999     0     0     0    
2019/07/04  12:00:00  BASE  2.81652  348  3.29868  334  -1.8  100   -1.8  0     0     997.2    NA       0.0000   9999     0     0     0    
2019/07/04  12:01:00  BASE  2.97528  351  3.38688  354  -1.8  100   -1.8  0     0     997.2    NA       0.0000   9999     0     0     0    
2019/07/04  12:02:00  BASE  3.42216  353  3.96312  353  -1.8  100   -1.8  0     0     997.2    NA       0.0000   9999     0     0     0    
2019/07/04  12:03:00  BASE  3.82788  352  4.29828  352  -1.8  100   -1.8  0     0     997.2    NA       0.0000   9999     0     0     0    
2019/07/04  12:04:00  BASE  4.06896  351  4.35708  352  -1.8  100   -1.8  0     0     997.2    NA       0.0000   9999     0     0     0    
2019/07/04  12:05:00  BASE  4.1454   351  4.35708  352  -1.9  100   -1.9  0     0     997.2    NA       0.0000   9999     0     0     0    
2019/07/04  12:06:00  BASE  4.11012  350  4.35708  352  -1.9  100   -1.9  0     0     997.2    NA       0.0000   9999     0     0     0    
2019/07/04  12:07:00  BASE  4.06308  350  4.35708  348  -1.9  100   -1.9  0     0     997.2    NA       0.0000   9999     0     0     0    
2019/07/04  12:08:00  BASE  4.22184  349  4.56876  349  -1.9  100   -1.9  0     0     997.2    NA       0.0000   9999     0     0     0    
2019/07/04  12:09:00  BASE  4.29828  348  4.56876  349  -1.9  100   -1.9  0     0     997.2    NA       0.0000   9999     0     0     0    
2019/07/04  12:10:00  BASE  4.16304  348  4.56876  349  -1.9  100   -1.9  0     0     997.2    NA       0.0000   9999     0     0     0    
2019/07/04  12:11:00  BASE  4.06308  346  4.56876  349  -1.9  100   -1.9  0     0     997.2    NA       0.0000   9999     0     0     0    
2019/07/04  12:12:00  BASE  4.00428  345  4.56876  349  -1.9  100   -1.9  0     0     997.2    NA       0.0000   9999     0     0     0    
2019/07/04  12:13:00  BASE  4.03368  345  4.56876  343  -1.9  100   -1.9  0     0     997.2    NA       0.0000   9999     0     0     0    
2019/07/04  12:14:00  BASE  4.00428  345  4.56876  343  -1.9  100   -1.9  0     0     997.2    NA       0.0000   9999     0     0     0    
2019/07/04  12:15:00  BASE  3.94548  345  4.56876  343  -1.9  100   -1.9  0     0     997.2    NA       0.0000   9999     0     0     0    
2019/07/04  12:16:00  BASE  3.92784  345  4.56876  343  -1.9  100   -1.9  0     0     997.2    NA       0.0000   9999     0     0     0    
2019/07/04  12:17:00  BASE  4.03368  344  4.56876  343  -1.9  100   -1.9  0     0     997.2    NA       0.0000   9999     0     0     0    
2019/07/04  12:18:00  BASE  3.92784  344  4.56876  343  -1.9  100   -1.9  0     0     997.3    NA       0.0000   9999     0     0     0    
2019/07/04  12:19:00  BASE  3.72792  347  4.56876  343  -1.9  100   -1.9  0     0     997.3    NA       0.0000   9999     0     0     0    
2019/07/04  12:20:00  BASE  3.86316  342  4.56876  343  -1.9  100   -1.9  0     0     997.3    NA       0.0000   9999     0     0     0    
2019/07/04  12:21:00  BASE  4.01016  341  4.56876  343  -2.0  100   -2.0  0     0     997.3    NA       0.0000   9999     0     0     0    
2019/07/04  12:22:00  BASE  4.06896  349  4.56876  343  -2.0  100   -2.0  0     0     997.4    NA       0.0000   9999     0     0     0    
2019/07/04  12:23:00  BASE  4.03956  351  4.47468  345  -2.0  100   -2.0  0     0     997.4    NA       0.0000   9999     0     0     0    
2019/07/04  12:24:00  BASE  3.822    352  4.47468  345  -2.0  100   -2.0  0     0     997.5    NA       0.0000   9999     0     0     0    
2019/07/04  12:25:00  BASE  3.69264  352  4.47468  345  -2.0  100   -2.0  0     0     997.5    NA       0.0000   9999     0     0     0    
2019/07/04  12:26:00  BASE  3.81612  351  4.47468  345  -2.1  100   -2.1  0     0     997.5    NA       0.0000   9999     0     0     0    
2019/07/04  12:27:00  BASE  3.97488  354  4.41588  354  -2.1  100   -2.1  0     0     997.5    NA       0.0000   9999     0     0     0    
2019/07/04  12:28:00  BASE  3.79848  356  4.41588  354  -2.1  100   -2.1  0     0     997.6    NA       0.0000   9999     0     0     0    
2019/07/04  12:29:00  BASE  3.50448  352  4.41588  354  -2.1  100   -2.1  0     0     997.7    NA       0.0000   9999     0     0     0    
2019/07/04  12:30:00  BASE  3.39864  347  4.41588  354  -2.1  100   -2.1  0     0     997.7    NA       0.0000   9999     0     0     0    
2019/07/04  12:31:00  BASE  3.34572  347  4.41588  354  -2.1  100   -2.1  0     0     997.3    NA       0.0000   9999     0     0     0    
2019/07/04  12:32:00  BASE  3.3222   347  4.41588  354  -2.1  100   -2.1  0     0     997.8    NA       0.0000   9999     0     0     0    
2019/07/04  12:33:00  BASE  3.2634   346  4.41588  354  -2.1  100   -2.1  0     0     997.8    NA       0.0000   9999     0     0     0    
2019/07/04  12:34:00  BASE  3.16932  345  4.41588  354  -2.1  100   -2.1  0     0     997.8    NA       0.0000   9999     0     0     0    
2019/07/04  12:35:00  BASE  3.01644  343  4.35708  353  -2.1  100   -2.1  0     0     997.9    NA       0.0000   9999     0     0     0    
2019/07/04  12:36:00  BASE  2.78712  344  4.35708  353  -2.1  100   -2.1  0     0     997.9    NA       0.0000   9999     200   0     0    
2019/07/04  12:37:00  BASE  2.46372  345  4.116    350  -2.1  100   -2.1  0     0     997.9    NA       0.0000   9999     230   0     0    
2019/07/04  12:38:00  BASE  2.35788  345  3.75144  345  -2.1  100   -2.1  0     0     997.9    NA       0.0000   9999     360   0     0    
2019/07/04  12:39:00  BASE  2.43432  345  3.53976  347  -2.2  100   -2.2  0     0     997.9    NA       0.0000   9999     260   0     0    
2019/07/04  12:40:00  BASE  2.35788  350  3.53976  347  -2.2  100   -2.2  0     0     997.9    NA       0.0000   9999     330   0     0    
2019/07/04  12:41:00  BASE  2.51076  352  3.53976  347  -2.3  100   -2.3  0     0     997.9    NA       0.0000   9999     360   0     0    
2019/07/04  12:42:00  BASE  2.71068  348  3.53976  347  -2.3  100   -2.3  0     0     997.9    NA       0.0000   9999     390   0     0    
2019/07/04  12:43:00  BASE  2.62248  345  3.234    345  -2.4  100   -2.4  0     0     997.9    NA       0.0000   9999     430   0     0    
2019/07/04  12:44:00  BASE  3.07524  346  4.02192  349  -2.5  100   -2.5  0     0     997.9    NA       0.0000   9999     260   0     0    
2019/07/04  12:45:00  BASE  3.47508  347  4.02192  349  -2.5  100   -2.5  0     0     997.9    NA       0.0000   9999     300   0     0    
2019/07/04  12:46:00  BASE  3.4398   339  4.02192  349  -2.5  100   -2.5  0     0     997.9    NA       0.0000   9999     230   0     0    
2019/07/04  12:47:00  BASE  3.59856  330  4.02192  349  -2.5  100   -2.5  0     0     997.9    NA       0.0000   9999     260   0     0    
2019/07/04  12:48:00  BASE  3.5868   323  4.02192  349  -2.5  100   -2.5  0     0     997.9    NA       0.0000   9999     230   0     0    
2019/07/04  12:49:00  BASE  3.44568  317  4.02192  349  -2.5  100   -2.5  0     0     997.9    NA       0.0000   9999     330   0     0    
2019/07/04  12:50:00  BASE  3.44568  315  4.02192  349  -2.5  100   -2.5  0     0     997.9    NA       0.0000   9999     330   0     0    
2019/07/04  12:51:00  BASE  3.59856  315  4.02192  349  -2.5  100   -2.5  0     0     997.9    NA       0.0000   9999     330   0     0    
2019/07/04  12:52:00  BASE  3.6456   318  4.02192  349  -2.6  100   -2.6  0     0     997.9    NA       0.0000   9999     230   0     0    
2019/07/04  12:53:00  BASE  3.7926   321  4.02192  323  -2.6  100   -2.6  0     0     997.9    NA       0.0000   9999     160   0     0    
2019/07/04  12:54:00  BASE  3.9396   321  4.1454   321  -2.6  100   -2.6  0     0     997.9    NA       0.0000   9999     160   0     0    
2019/07/04  12:55:00  BASE  3.91608  321  4.29828  317  -2.6  100   -2.6  0     0     997.9    NA       0.0000   9999     0     0     0    
2019/07/04  12:56:00  BASE  3.86316  322  4.29828  328  -2.6  100   -2.6  0     0     997.9    NA       0.0000   9999     0     0     0    
2019/07/04  12:57:00  BASE  3.8514   323  4.29828  328  -2.6  100   -2.6  0     0     997.9    NA       0.0000   9999     200   0     0    
2019/07/04  12:58:00  BASE  4.05132  325  4.53936  325  -2.6  100   -2.6  0     0     997.7    NA       0.0000   9999     200   620   0    
2019/07/04  12:59:00  BASE  4.2042   327  4.53936  325  -2.7  100   -2.7  0     0     998.0    NA       0.0000   9999     330   0     0    
2019/07/04  13:00:00  BASE  4.12188  333  4.53936  325  -2.7  100   -2.7  0     0     998.0    NA       0.0000   9999     300   0     0    
2019/07/04  13:01:00  BASE  4.15716  337  4.65696  337  -2.7  100   -2.7  0     0     998.0    NA       0.0000   9999     0     0     0    
2019/07/04  13:02:00  BASE  4.21008  336  4.65696  337  -2.8  100   -2.8  0     0     998.0    NA       0.0000   9999     0     0     0    
2019/07/04  13:03:00  BASE  3.99252  336  4.65696  337  -2.8  100   -2.8  0     0     998.1    NA       0.0000   9999     0     0     0    
2019/07/04  13:04:00  BASE  3.69852  337  4.65696  337  -2.7  100   -2.7  0     0     998.2    NA       0.0000   9999     0     0     0    
2019/07/04  13:05:00  BASE  3.66912  338  4.65696  337  -2.7  100   -2.7  0     0     998.2    NA       0.0000   9999     0     0     0    
2019/07/04  13:06:00  BASE  3.77496  337  4.65696  337  -2.7  100   -2.7  0     0     998.2    NA       0.0000   9999     260   0     0    
2019/07/04  13:07:00  BASE  3.83376  338  4.65696  337  -2.7  100   -2.7  0     0     998.2    NA       0.0000   9999     230   0     0    
2019/07/04  13:08:00  BASE  3.80436  341  4.65696  337  -2.7  100   -2.7  0     0     998.2    NA       0.0000   9999     300   0     0    
2019/07/04  13:09:00  BASE  3.62208  343  4.65696  337  -2.8  100   -2.8  0     0     998.2    NA       0.0000   9999     260   0     0    
2019/07/04  13:10:00  BASE  3.56916  343  4.65696  337  -2.9  100   -2.9  0     0     998.3    NA       0.0000   9999     300   0     0    
2019/07/04  13:11:00  BASE  3.71028  345  4.38648  335  -2.9  100   -2.9  0     0     998.3    NA       0.0000   9999     360   0     0    
2019/07/04  13:12:00  BASE  3.78084  343  4.1454   343  -2.9  100   -2.9  0     0     998.3    NA       0.0000   9999     330   0     0    
2019/07/04  13:13:00  BASE  3.54564  339  4.1454   343  -3.0  100   -3.0  0     0     998.3    NA       0.0000   9999     260   0     0    
2019/07/04  13:14:00  BASE  3.49272  339  4.1454   343  -3.0  100   -3.0  0     0     998.4    NA       0.0000   9999     230   0     0    
2019/07/04  13:15:00  BASE  3.5868   341  4.1454   343  -3.0  100   -3.0  0     0     998.4    NA       0.0000   9999     200   0     0    
2019/07/04  13:16:00  BASE  3.68088  338  4.47468  335  -2.9  100   -2.9  0     0     998.4    NA       0.0000   9999     200   0     0    
2019/07/04  13:17:00  BASE  4.05132  332  4.68636  329  -2.9  100   -2.9  0     0     998.4    NA       0.0000   9999     0     0     0    
2019/07/04  13:18:00  BASE  4.59816  327  5.2626   320  -2.8  100   -2.8  0     0     998.4    NA       0.0000   9999     0     0     0    
2019/07/04  13:19:00  BASE  4.998    324  5.47428  322  -2.7  100   -2.7  0     0     998.4    NA       0.0000   9999     0     0     0    
2019/07/04  13:20:00  BASE  5.19204  322  5.74476  318  -2.7  100   -2.7  0     0     998.4    NA       0.0000   9999     0     0     0    
2019/07/04  13:21:00  BASE  5.2038   322  5.74476  318  -2.6  100   -2.6  0     0     998.5    NA       0.0000   9999     0     0     0    
2019/07/04  13:22:00  BASE  5.0274   324  5.74476  318  -2.6  100   -2.6  0     0     998.5    NA       0.0000   9999     0     0     0    
2019/07/04  13:23:00  BASE  4.99212  322  5.74476  318  -2.6  100   -2.6  0     0     998.5    NA       0.0000   9999     0     0     0    
2019/07/04  13:24:00  BASE  4.84512  321  5.74476  318  -2.7  100   -2.7  1     0     998.5    NA       0.0000   9999     0     0     0    
2019/07/04  13:25:00  BASE  4.70988  322  5.74476  318  -2.7  100   -2.7  1     0     998.5    NA       0.0000   9999     0     0     0    
2019/07/04  13:26:00  BASE  5.09208  322  5.74476  318  -2.7  100   -2.7  1     0     998.5    NA       0.0000   9999     200   0     0    
2019/07/04  13:27:00  BASE  5.27436  322  5.74476  318  -2.7  100   -2.7  1     0     998.6    NA       0.0000   9999     230   0     0    
2019/07/04  13:28:00  BASE  4.75692  321  5.74476  318  -2.8  100   -2.8  1     0     998.6    NA       0.0000   9999     260   0     0    
2019/07/04  13:29:00  BASE  4.57464  320  5.74476  318  -2.8  100   -2.8  1     0     998.6    NA       0.0000   9999     360   0     0    
2019/07/04  13:30:00  BASE  4.69224  322  5.68596  324  -2.8  100   -2.8  1     0     998.6    NA       0.0000   9999     360   0     0    
2019/07/04  13:31:00  BASE  4.9686   321  5.68596  316  -2.8  100   -2.8  1     0     998.6    NA       0.0000   9999     430   0     0    
2019/07/04  13:32:00  BASE  5.2038   320  5.68596  316  -2.9  100   -2.9  1     0     998.7    NA       0.0000   9999     430   0     0    
2019/07/04  13:33:00  BASE  4.99212  324  5.68596  326  -2.9  100   -2.9  1     0     998.8    NA       0.0000   9999     430   0     0    
2019/07/04  13:34:00  BASE  5.16264  326  5.92704  322  -2.9  100   -2.9  1     0     998.8    NA       0.0000   9999     460   0     0    
2019/07/04  13:35:00  BASE  5.73888  326  6.59148  325  -2.9  100   -2.9  1     0     998.7    NA       0.0000   9999     390   0     0    
2019/07/04  13:36:00  BASE  5.86824  325  6.59148  325  -2.9  100   -2.9  1     0     998.8    NA       0.0000   9999     360   0     0    
2019/07/04  13:37:00  BASE  5.94468  328  6.59148  325  -2.9  100   -2.9  1     0     998.8    NA       0.0000   9999     430   0     0    
2019/07/04  13:38:00  BASE  6.1446   331  6.59148  325  -2.9  100   -2.9  1     0     998.8    NA       0.0000   9999     360   0     0    
2019/07/04  13:39:00  BASE  5.77416  333  6.59148  325  -2.9  100   -2.9  1     0     998.8    NA       0.0000   9999     330   0     0    
2019/07/04  13:40:00  BASE  5.31552  339  6.59148  325  -2.9  100   -2.9  1     0     998.8    NA       0.0000   9999     360   0     0    
2019/07/04  13:41:00  BASE  4.82748  350  6.59148  325  -3.0  100   -3.0  1     0     998.9    NA       0.0000   9999     360   0     0    
2019/07/04  13:42:01  BASE  4.52172  355  6.59148  325  -3.0  100   -3.0  1     0     998.9    NA       0.0000   9999     520   0     0    
2019/07/04  13:43:01  BASE  4.2042   359  6.59148  325  -3.1  100   -3.1  1     0     998.8    NA       0.0000   9999     430   0     0    
2019/07/04  13:44:00  BASE  4.10424  0    6.59148  325  -3.2  100   -3.2  1     0     998.9    NA       0.0000   9999     460   0     0    
2019/07/04  13:45:00  BASE  4.116    357  6.56208  330  -3.2  100   -3.2  2     0     998.9    NA       0.0000   9999     390   0     0    
2019/07/04  13:46:00  BASE  3.99252  358  6.56208  330  -3.3  100   -3.3  2     0     998.9    NA       0.0000   9999     490   0     0    
2019/07/04  13:47:00  BASE  4.15716  357  6.47388  335  -3.3  100   -3.3  2     0     998.9    NA       0.0000   9999     490   0     0    
2019/07/04  13:48:00  BASE  4.52172  355  6.05052  339  -3.3  100   -3.3  2     0     998.9    NA       0.0000   9999     430   0     0    
2019/07/04  13:49:01  BASE  4.80984  353  5.62716  349  -3.3  100   -3.3  2     0     998.9    NA       0.0000   9999     390   0     0    
2019/07/04  13:50:01  BASE  4.998    348  5.56836  342  -3.3  100   -3.3  2     0     998.8    NA       0.0000   9999     330   0     0    
2019/07/04  13:51:01  BASE  5.19204  340  5.65656  331  -3.2  100   -3.2  2     0     998.9    NA       0.0000   9999     260   0     0    
2019/07/04  13:52:01  BASE  5.3508   333  6.10932  325  -3.1  100   -3.1  2     0     998.9    NA       0.0000   9999     200   0     0    
2019/07/04  13:53:01  BASE  5.53308  329  6.2034   326  -3.0  100   -3.0  2     0     998.9    NA       0.0000   9999     230   0     0    
2019/07/04  13:54:01  BASE  5.46252  329  6.2034   326  -2.9  100   -2.9  2     0     998.9    NA       0.0000   9999     230   0     0    
2019/07/04  13:55:01  BASE  5.58012  333  6.2034   326  -2.9  100   -2.9  2     0     998.9    NA       0.0000   9999     230   0     0    
2019/07/04  13:56:01  BASE  5.7624   334  6.2034   326  -2.8  100   -2.8  2     0     998.9    NA       0.0000   9999     0     0     0    
2019/07/04  13:57:01  BASE  5.62128  333  6.2916   336  -2.8  100   -2.8  2     0     998.9    NA       0.0000   9999     230   0     0    
2019/07/04  13:58:01  BASE  5.68008  333  6.59148  332  -2.8  100   -2.8  2     0     998.9    NA       0.0000   9999     200   0     0    
2019/07/04  13:59:01  BASE  5.53308  331  6.59148  332  -2.8  100   -2.8  2     0     998.9    NA       0.0000   9999     0     0     0    
2019/07/04  14:00:01  BASE  5.50956  327  6.59148  332  -2.9  100   -2.9  2     0     998.9    NA       0.0000   9999     200   0     0    
2019/07/04  14:01:01  BASE  5.65656  326  6.59148  332  -2.9  100   -2.9  2     0     998.9    NA       0.0000   9999     300   0     0    
2019/07/04  14:02:01  BASE  5.47428  325  6.59148  332  -2.9  100   -2.9  2     0     999.0    NA       0.0000   9999     230   0     0    
2019/07/04  14:03:01  BASE  5.38608  322  6.59148  332  -2.9  100   -2.9  2     0     999.0    NA       0.0000   9999     260   0     0    
2019/07/04  14:04:01  BASE  5.42724  319  6.59148  332  -2.9  100   -2.9  3     0     999.0    NA       0.0000   9999     260   0     0    
2019/07/04  14:05:01  BASE  5.85648  318  6.71496  317  -2.9  100   -2.9  3     0     999.0    NA       0.0000   9999     330   0     0    
2019/07/04  14:06:01  BASE  6.12108  317  6.71496  317  -2.9  100   -2.9  3     0     999.0    NA       0.0000   9999     330   0     0    
2019/07/04  14:07:01  BASE  5.66832  316  6.71496  317  -3.0  100   -3.0  3     0     999.1    NA       0.0000   9999     330   0     0    
2019/07/04  14:08:01  BASE  5.06856  317  6.71496  317  -3.0  100   -3.0  3     0     999.1    NA       0.0000   9999     390   0     0    
2019/07/04  14:09:01  BASE  4.96272  314  6.71496  317  -3.0  100   -3.0  3     0     999.1    NA       0.0000   9999     460   0     0    
2019/07/04  14:10:01  BASE  5.05092  310  6.71496  317  -3.0  100   -3.0  4     0     999.1    NA       0.0000   9999     360   0     0    
2019/07/04  14:11:01  BASE  5.20968  310  6.71496  317  -3.0  100   -3.0  4     0     999.1    NA       0.0000   9999     460   0     0    
2019/07/04  14:12:01  BASE  5.5566   312  6.71496  317  -3.0  100   -3.0  4     0     999.1    NA       0.0000   9999     390   0     0    
2019/07/04  14:13:01  BASE  5.50368  313  6.71496  317  -3.0  100   -3.0  4     0     999.2    NA       0.0000   9999     360   0     0    
2019/07/04  14:14:01  BASE  5.24496  313  6.71496  317  -3.0  100   -3.0  4     0     999.2    NA       0.0000   9999     390   0     0    
2019/07/04  14:15:01  BASE  5.10972  314  6.68556  321  -3.1  100   -3.1  4     0     999.3    NA       0.0000   9999     430   0     0    
2019/07/04  14:16:01  BASE  4.8216   312  5.92704  312  -3.1  100   -3.1  5     0     999.4    NA       0.0000   9999     460   0     0    
2019/07/04  14:17:01  BASE  4.62756  310  5.92704  312  -3.1  100   -3.1  5     0     999.4    NA       0.0000   9999     390   0     0    
2019/07/04  14:18:01  BASE  4.69224  312  5.92704  312  -3.1  100   -3.1  5     0     999.5    NA       0.0000   9999     430   0     0    
2019/07/04  14:19:01  BASE  5.2038   317  5.99172  319  -3.1  100   -3.1  6     0     999.4    NA       0.0000   9999     520   0     0    
2019/07/04  14:20:01  BASE  5.5566   320  5.99172  319  -3.1  100   -3.1  6     0     999.5    NA       0.0000   9999     490   0     0    
2019/07/04  14:21:01  BASE  5.24496  321  5.99172  319  -3.1  100   -3.1  6     0     999.5    NA       0.0000   9999     460   0     0    
2019/07/04  14:22:01  BASE  4.98036  322  5.99172  319  -3.1  100   -3.1  6     0     999.5    NA       0.0000   9999     460   0     0    
2019/07/04  14:23:01  BASE  4.72752  323  5.99172  319  -3.1  100   -3.1  6     0     999.5    NA       0.0000   9999     430   0     0    
2019/07/04  14:24:01  BASE  4.56876  324  5.99172  319  -3.1  100   -3.1  6     0     999.5    NA       0.0000   9999     460   0     0    
2019/07/04  14:25:01  BASE  4.75692  325  5.99172  319  -3.1  100   -3.1  7     0     999.5    NA       0.0000   9999     390   0     0    
2019/07/04  14:26:01  BASE  4.62756  322  5.99172  319  -3.1  100   -3.1  7     0     999.5    NA       0.0000   9999     430   0     0    
2019/07/04  14:27:01  BASE  4.16892  319  5.99172  319  -3.1  100   -3.1  7     0     999.6    NA       0.0000   9999     460   0     0    
2019/07/04  14:28:01  BASE  4.0278   322  5.99172  319  -3.1  100   -3.1  8     0     999.6    NA       0.0000   9999     460   0     0    
2019/07/04  14:29:01  BASE  4.2336   320  5.95644  320  -3.0  100   -3.0  8     0     999.6    NA       0.0000   9999     460   0     0    
2019/07/04  14:30:01  BASE  4.13364  312  5.44488  320  -3.0  100   -3.0  8     0     999.6    NA       0.0000   9999     430   0     0    
2019/07/04  14:31:01  BASE  3.9102   306  5.145    325  -3.0  100   -3.0  8     0     999.7    NA       0.0000   9999     430   0     0    
2019/07/04  14:32:01  BASE  3.86316  298  5.145    325  -3.0  100   -3.0  8     0     999.7    NA       0.0000   9999     430   0     0    
2019/07/04  14:33:01  BASE  4.22184  296  5.292    284  -3.0  100   -3.0  8     0     999.7    NA       0.0000   9999     430   0     0    
2019/07/04  14:34:01  BASE  4.60404  298  5.292    284  -3.0  100   -3.0  8     0     999.6    NA       0.0000   9999     460   0     0    
2019/07/04  14:35:01  BASE  4.26888  299  5.292    284  -3.0  100   -3.0  8     0     999.7    NA       0.0000   9999     300   0     0    
2019/07/04  14:36:01  BASE  3.8514   300  5.292    284  -3.0  100   -3.0  9     0     999.7    NA       0.0000   9999     390   0     0    
2019/07/04  14:37:01  BASE  4.13952  300  5.292    284  -3.0  100   -3.0  9     0     999.6    NA       0.0000   9999     360   0     0    
2019/07/04  14:38:01  BASE  4.33356  299  5.292    284  -3.0  100   -3.0  9     0     999.7    NA       0.0000   9999     300   0     0    
2019/07/04  14:39:01  BASE  4.04544  295  5.292    284  -3.0  100   -3.0  9     0     999.7    NA       0.0000   9999     260   0     0    
2019/07/04  14:40:01  BASE  4.21596  293  5.292    284  -2.9  100   -2.9  9     0     999.7    NA       0.0000   9999     330   0     0    
2019/07/04  14:41:01  BASE  4.32768  293  5.292    284  -3.0  100   -3.0  9     0     999.7    NA       0.0000   9999     330   0     0    
2019/07/04  14:42:01  BASE  4.19244  293  5.292    284  -3.0  100   -3.0  9     0     999.7    NA       0.0000   9999     360   0     0    
2019/07/04  14:43:01  BASE  3.822    294  5.292    284  -3.0  100   -3.0  9     0     999.7    NA       0.0000   9999     330   0     0    
2019/07/04  14:44:01  BASE  3.55152  294  5.145    300  -3.0  100   -3.0  10    0     999.7    NA       0.0000   9999     330   0     0    
2019/07/04  14:45:01  BASE  3.5574   290  5.145    300  -3.0  100   -3.0  10    0     999.7    NA       0.0000   9999     330   0     0    
2019/07/04  14:46:01  BASE  3.2634   287  5.145    300  -3.1  100   -3.1  10    0     999.8    NA       0.0000   9999     330   0     0    
2019/07/04  14:47:01  BASE  3.09288  290  4.86864  292  -3.1  100   -3.1  10    0     999.7    NA       0.0000   9999     390   0     0    
2019/07/04  14:48:01  BASE  3.09288  301  4.86864  292  -3.0  100   -3.0  10    0     999.7    NA       0.0000   9999     330   0     0    
2019/07/04  14:49:01  BASE  3.12816  307  4.86864  292  -3.0  100   -3.0  10    0     999.7    NA       0.0000   9999     300   0     0    
2019/07/04  14:50:01  BASE  3.21048  301  4.86864  292  -3.0  100   -3.0  10    0     999.7    NA       0.0000   9999     300   0     0    
2019/07/04  14:51:01  BASE  3.33396  292  4.86864  292  -3.0  100   -3.0  10    0     999.7    NA       0.0000   9999     260   0     0    
2019/07/04  14:52:01  BASE  3.65148  290  4.1454   294  -3.0  100   -3.0  11    0     999.7    NA       0.0000   9999     330   0     0    
2019/07/04  14:53:01  BASE  3.85728  296  4.1454   303  -3.0  100   -3.0  11    0     999.7    NA       0.0000   9999     300   0     0    
2019/07/04  14:54:01  BASE  3.75144  304  4.1454   303  -3.0  100   -3.0  11    0     999.7    NA       0.0000   9999     300   0     0    
2019/07/04  14:55:01  BASE  3.53976  314  4.1454   303  -3.0  100   -3.0  11    0     999.7    NA       0.0000   9999     300   0     0    
2019/07/04  14:56:01  BASE  3.16932  322  4.1454   303  -3.1  100   -3.1  11    0     999.7    NA       0.0000   9999     300   0     0    
2019/07/04  14:57:01  BASE  3.03408  322  4.1454   303  -3.1  100   -3.1  11    0     999.7    NA       0.0000   9999     260   0     0    
2019/07/04  14:58:01  BASE  3.09876  318  4.1454   303  -3.1  100   -3.1  11    0     999.7    NA       0.0000   9999     300   0     0    
2019/07/04  14:59:01  BASE  3.07524  313  4.1454   303  -3.1  100   -3.1  11    0     999.7    NA       0.0000   9999     260   0     0    
2019/07/04  15:00:01  BASE  2.88708  313  4.1454   303  -3.1  100   -3.1  11    0     999.7    NA       0.0000   9999     260   0     0    
2019/07/04  15:01:01  BASE  2.9694   314  4.1454   303  -3.1  100   -3.1  11    0     999.7    NA       0.0000   9999     260   0     0    
2019/07/04  15:02:01  BASE  3.54564  313  4.44528  322  -3.1  100   -3.1  12    0     999.7    NA       0.0000   9999     300   0     0    
2019/07/04  15:03:01  BASE  3.8808   321  4.44528  322  -3.1  100   -3.1  12    0     999.7    NA       0.0000   9999     230   0     0    
2019/07/04  15:04:01  BASE  3.53388  333  4.44528  322  -3.1  100   -3.1  13    0     999.7    NA       0.0000   9999     260   0     0    
2019/07/04  15:05:01  BASE  3.31044  340  4.44528  322  -3.1  100   -3.1  13    0     999.7    NA       0.0000   9999     260   0     0    
2019/07/04  15:06:01  BASE  3.83964  345  4.83924  354  -3.2  100   -3.2  13    0     999.6    NA       0.0000   9999     330   0     0    
2019/07/04  15:07:01  BASE  4.42764  351  4.99212  360  -3.3  100   -3.3  12    0     999.6    NA       0.0000   9999     330   0     0    
2019/07/04  15:08:01  BASE  4.39824  351  4.99212  360  -3.4  100   -3.4  12    0     999.7    NA       0.0000   9999     230   0     0    
2019/07/04  15:09:01  BASE  4.19244  349  4.99212  360  -3.5  100   -3.5  12    0     999.7    NA       0.0000   9999     230   0     0    
2019/07/04  15:10:01  BASE  4.24536  345  4.99212  360  -3.6  100   -3.6  12    0     999.7    NA       0.0000   9999     300   0     0    
2019/07/04  15:11:01  BASE  4.0572   339  4.99212  360  -3.6  100   -3.6  12    0     999.7    NA       0.0000   9999     200   0     0    
2019/07/04  15:12:01  BASE  3.66912  341  4.99212  360  -3.6  100   -3.6  12    0     999.8    NA       0.0000   9999     300   0     0    
2019/07/04  15:13:01  BASE  3.73968  346  4.99212  360  -3.6  100   -3.6  12    0     999.8    NA       0.0000   9999     260   0     0    
2019/07/04  15:14:01  BASE  4.13364  353  4.99212  360  -3.6  100   -3.6  12    0     999.8    NA       0.0000   9999     230   0     0    
2019/07/04  15:15:01  BASE  4.27476  353  4.99212  360  -3.6  100   -3.6  12    0     999.8    NA       0.0000   9999     230   0     0    
2019/07/04  15:16:01  BASE  4.2336   348  4.99212  360  -3.5  100   -3.5  12    0     999.8    NA       0.0000   9999     260   0     0    
2019/07/04  15:17:01  BASE  4.22184  352  4.80984  3    -3.5  100   -3.5  12    0     999.8    NA       0.0000   9999     260   0     0    
2019/07/04  15:18:01  BASE  4.31592  352  4.80984  3    -3.5  100   -3.5  12    0     999.8    NA       0.0000   9999     300   0     0    
2019/07/04  15:19:01  BASE  4.42764  349  4.86864  352  -3.6  100   -3.6  13    0     999.8    NA       0.0000   9999     300   0     0    
2019/07/04  15:20:01  BASE  4.22184  352  4.86864  352  -3.6  100   -3.6  13    0     999.8    NA       0.0000   9999     330   0     0    
2019/07/04  15:21:01  BASE  4.12776  350  4.86864  352  -3.6  100   -3.6  13    0     999.8    NA       0.0000   9999     300   0     0    
2019/07/04  15:22:01  BASE  4.38648  344  4.99212  345  -3.6  100   -3.6  14    0     999.8    NA       0.0000   9999     300   0     0    
2019/07/04  15:23:01  BASE  4.29828  338  4.99212  345  -3.6  100   -3.6  14    0     999.7    NA       0.0000   9999     300   0     0    
2019/07/04  15:24:01  BASE  4.04544  335  4.99212  345  -3.5  100   -3.5  14    0     999.7    NA       0.0000   9999     300   0     0    
2019/07/04  15:25:01  BASE  3.89844  335  4.99212  345  -3.5  100   -3.5  14    0     999.7    NA       0.0000   9999     300   0     0    
2019/07/04  15:26:01  BASE  3.83376  336  4.99212  345  -3.5  100   -3.5  14    0     999.7    NA       0.0000   9999     260   0     0    
2019/07/04  15:27:01  BASE  4.09836  338  4.99212  345  -3.6  100   -3.6  13    0     999.7    NA       0.0000   9999     330   0     0    
2019/07/04  15:28:01  BASE  4.04544  336  4.99212  345  -3.6  100   -3.6  14    0     999.7    NA       0.0000   9999     360   0     0    
2019/07/04  15:29:01  BASE  3.26928  328  4.99212  345  -3.6  100   -3.6  14    0     999.8    NA       0.0000   9999     430   0     0    
2019/07/04  15:30:01  BASE  3.05172  312  4.99212  345  -3.6  100   -3.6  14    0     999.8    NA       0.0000   9999     430   0     0    
2019/07/04  15:31:01  BASE  3.59856  298  4.99212  345  -3.5  100   -3.5  14    0     999.7    NA       0.0000   9999     360   0     0    
2019/07/04  15:32:01  BASE  3.675    293  4.68636  335  -3.5  100   -3.5  13    0     999.7    NA       0.0000   9999     330   0     0    
2019/07/04  15:33:01  BASE  3.65736  291  5.2626   276  -3.4  100   -3.4  13    0     999.7    NA       0.0000   9999     390   0     0    
2019/07/04  15:34:01  BASE  3.86904  285  5.2626   276  -3.3  100   -3.3  13    0     999.7    NA       0.0000   9999     390   0     0    
2019/07/04  15:35:01  BASE  4.06896  280  5.2626   276  -3.3  100   -3.3  13    0     999.7    NA       0.0000   9999     300   0     0    
2019/07/04  15:36:01  BASE  3.9102   276  5.2626   276  -3.3  100   -3.3  13    0     999.7    NA       0.0000   9999     300   0     0    
2019/07/04  15:37:01  BASE  3.6162   272  5.2626   276  -3.3  100   -3.3  13    0     999.7    NA       0.0000   9999     260   0     0    
2019/07/04  15:38:01  BASE  3.69852  272  5.2626   276  -3.3  100   -3.3  13    0     999.7    NA       0.0000   9999     300   0     0    
2019/07/04  15:39:01  BASE  3.50448  274  5.2626   276  -3.4  100   -3.4  13    0     999.7    NA       0.0000   9999     360   0     0    
2019/07/04  15:40:01  BASE  3.50448  277  5.2626   276  -3.4  100   -3.4  12    0     999.7    NA       0.0000   9999     360   0     0    
2019/07/04  15:41:01  BASE  3.55152  283  5.2626   276  -3.5  100   -3.5  12    0     999.7    NA       0.0000   9999     300   0     0    
2019/07/04  15:42:01  BASE  3.05172  279  5.2626   276  -3.5  100   -3.5  12    0     999.8    NA       0.0000   9999     360   0     0    
2019/07/04  15:43:01  BASE  3.08112  274  4.75104  282  -3.5  100   -3.5  12    0     999.8    NA       0.0000   9999     260   0     0    
2019/07/04  15:44:01  BASE  3.35748  271  4.65696  272  -3.5  100   -3.5  13    0     999.8    NA       0.0000   9999     300   0     0    
2019/07/04  15:45:01  BASE  3.21048  269  4.65696  272  -3.5  100   -3.5  13    0     999.8    NA       0.0000   9999     300   0     0    
2019/07/04  15:46:01  BASE  3.05172  274  4.65696  272  -3.6  100   -3.6  13    0     999.8    NA       0.0000   9999     330   0     0    
2019/07/04  15:47:01  BASE  2.95764  274  4.56876  274  -3.6  100   -3.6  13    0     999.8    NA       0.0000   9999     360   0     0    
2019/07/04  15:48:01  BASE  3.24576  269  4.56876  274  -3.6  100   -3.6  13    0     999.8    NA       0.0000   9999     430   0     0    
2019/07/04  15:49:01  BASE  3.528    266  4.56876  274  -3.6  100   -3.6  14    0     999.8    NA       0.0000   9999     430   0     0    
2019/07/04  15:50:01  BASE  3.36336  268  4.35708  261  -3.6  100   -3.6  14    0     999.8    NA       0.0000   9999     490   0     0    
2019/07/04  15:51:01  BASE  3.03996  270  4.35708  261  -3.7  100   -3.7  14    0     999.8    NA       0.0000   9999     690   0     0    
2019/07/04  15:52:01  BASE  2.81652  278  4.35708  261  -3.7  100   -3.7  14    0     999.8    NA       0.0000   9999     790   0     0    
2019/07/04  15:53:01  BASE  2.75184  281  4.35708  261  -3.7  100   -3.7  14    0     999.8    NA       0.0000   9999     890   0     0    
2019/07/04  15:54:01  BASE  2.80476  280  4.35708  261  -3.7  100   -3.7  14    0     999.9    NA       0.0000   9999     750   0     0    
2019/07/04  15:55:01  BASE  2.93412  282  4.35708  261  -3.7  100   -3.7  15    0     999.9    NA       0.0000   9999     950   0     0    
2019/07/04  15:56:01  BASE  2.96352  281  4.35708  261  -3.6  100   -3.6  15    0     999.9    NA       0.0000   9999     980   0     0    
2019/07/04  15:57:01  BASE  2.88708  280  4.35708  261  -3.6  100   -3.6  16    0     999.9    NA       0.0000   9999     1050  0     0    
2019/07/04  15:58:01  BASE  2.71656  279  4.35708  261  -3.6  100   -3.6  16    0     1000.0   NA       0.0000   9999     980   0     0    
2019/07/04  15:59:01  BASE  2.39904  274  3.65736  245  -3.6  100   -3.6  17    0     1000.1   NA       0.0000   9999     890   0     0    
2019/07/04  16:00:01  BASE  2.27556  271  3.53976  286  -3.7  100   -3.7  17    0     1000.1   NA       0.0000   9999     820   0     0    
2019/07/04  16:01:01  BASE  2.5872   271  3.69264  262  -3.7  100   -3.7  18    0     1000.1   NA       0.0000   9999     750   0     0    
2019/07/04  16:02:01  BASE  2.87532  269  3.69264  262  -3.7  100   -3.7  19    0     1000.1   NA       0.0000   9999     790   0     0    
2019/07/04  16:03:01  BASE  2.79888  267  3.69264  262  -3.7  100   -3.7  19    0     1000.1   NA       0.0000   9999     490   0     0    
2019/07/04  16:04:01  BASE  2.84592  271  3.72204  269  -3.7  100   -3.7  19    0     1000.1   NA       0.0000   9999     820   0     0    
2019/07/04  16:05:01  BASE  2.64012  274  3.72204  269  -3.7  100   -3.7  20    0     1000.1   NA       0.0000   9999     850   0     0    
2019/07/04  16:06:01  BASE  2.34024  268  3.72204  269  -3.7  100   -3.7  20    0     1000.1   NA       0.0000   9999     1050  0     0    
2019/07/04  16:07:01  BASE  2.37552  267  3.72204  269  -3.7  100   -3.7  20    0     1000.2   NA       0.0000   9999     1150  0     0    
2019/07/04  16:08:01  BASE  2.40492  273  3.72204  269  -3.7  100   -3.7  20    0     1000.2   NA       0.0000   9999     920   0     0    
2019/07/04  16:09:01  BASE  2.40492  276  3.72204  269  -3.7  100   -3.7  21    0     1000.2   NA       0.0000   9999     950   0     0    
2019/07/04  16:10:01  BASE  2.27556  278  3.72204  269  -3.7  100   -3.7  21    0     1000.2   NA       0.0000   9999     850   0     0    
2019/07/04  16:11:01  BASE  2.35788  279  3.72204  269  -3.7  100   -3.7  22    0     1000.2   NA       0.0000   9999     950   0     0    
2019/07/04  16:12:01  BASE  2.42844  271  3.72204  269  -3.7  100   -3.7  23    0     1000.2   NA       0.0000   9999     890   0     0    
2019/07/04  16:13:01  BASE  2.18148  266  3.72204  269  -3.7  100   -3.7  24    0     1000.2   NA       0.0000   9999     1050  0     0    
2019/07/04  16:14:01  BASE  1.91688  271  3.41628  264  -3.7  100   -3.7  24    0     1000.2   NA       0.0000   9999     1020  0     0    
2019/07/04  16:15:01  BASE  2.22264  276  3.1752   261  -3.7  100   -3.7  24    0     1000.2   NA       0.0000   9999     1210  0     0    
2019/07/04  16:16:01  BASE  2.48724  282  3.0576   286  -3.7  100   -3.7  24    0     1000.3   NA       0.0000   9999     1310  0     0    
2019/07/04  16:17:01  BASE  2.42256  287  3.0576   286  -3.7  100   -3.7  24    0     1000.3   NA       0.0000   9999     1310  0     0    
2019/07/04  16:18:01  BASE  2.69304  287  3.44568  286  -3.7  100   -3.7  23    0     999.9    NA       0.0000   9999     1210  0     0    
2019/07/04  16:19:01  BASE  3.22224  291  4.05132  298  -3.7  100   -3.7  22    0     1000.2   NA       0.0000   9999     850   0     0    
2019/07/04  16:20:01  BASE  3.82788  298  4.53936  296  -3.7  100   -3.7  22    0     1000.2   NA       0.0000   9999     980   0     0    
2019/07/04  16:21:01  BASE  3.87492  310  4.53936  296  -3.8  100   -3.8  21    0     1000.2   NA       0.0000   9999     1120  0     0    
2019/07/04  16:22:01  BASE  3.34572  314  4.53936  296  -3.8  100   -3.8  21    0     1000.0   NA       0.0000   9999     660   0     0    
2019/07/04  16:23:01  BASE  2.78124  313  4.53936  296  -3.9  100   -3.9  21    0     1000.3   NA       0.0000   9999     490   0     0    
2019/07/04  16:24:01  BASE  2.352    317  4.53936  296  -3.9  100   -3.9  21    0     1000.3   NA       0.0000   9999     520   0     0    
2019/07/04  16:25:01  BASE  2.72244  315  4.53936  296  -3.9  100   -3.9  21    0     1000.3   NA       0.0000   9999     1120  0     0    
2019/07/04  16:26:01  BASE  3.22224  309  4.53936  296  -3.9  100   -3.9  20    0     1000.3   NA       0.0000   9999     920   0     0    
2019/07/04  16:27:01  BASE  2.83416  304  4.53936  296  -3.9  100   -3.9  20    0     1000.3   NA       0.0000   9999     590   0     0    
2019/07/04  16:28:01  BASE  2.31084  310  4.53936  296  -3.9  100   -3.9  20    0     1000.3   NA       0.0000   9999     620   0     0    
2019/07/04  16:29:01  BASE  2.19912  313  4.53936  296  -3.9  100   -3.9  20    0     1000.3   NA       0.0000   9999     1080  0     0    
2019/07/04  16:30:01  BASE  2.46372  305  4.116    310  -3.9  100   -3.9  20    0     1000.3   NA       0.0000   9999     1410  0     0    
2019/07/04  16:31:01  BASE  2.793    303  4.116    310  -3.9  100   -3.9  20    0     1000.3   NA       0.0000   9999     1440  0     0    
2019/07/04  16:32:01  BASE  2.61072  305  3.75144  311  -3.9  100   -3.9  19    0     1000.3   NA       0.0000   9999     920   0     0    
2019/07/04  16:33:01  BASE  2.28732  302  3.75144  311  -3.9  100   -3.9  19    0     1000.3   NA       0.0000   9999     1080  0     0    
2019/07/04  16:34:01  BASE  2.64012  303  3.75144  311  -3.9  100   -3.9  19    0     1000.3   NA       0.0000   9999     1020  0     0    
2019/07/04  16:35:01  BASE  3.30456  314  4.02192  320  -3.9  100   -3.9  19    0     1000.3   NA       0.0000   9999     920   0     0    
2019/07/04  16:36:01  BASE  3.72792  317  4.05132  307  -3.9  100   -3.9  19    0     1000.4   NA       0.0000   9999     920   0     0    
2019/07/04  16:37:01  BASE  3.60444  306  4.05132  307  -4.0  100   -4.0  20    0     1000.4   NA       0.0000   9999     460   0     0    
2019/07/04  16:38:01  BASE  2.9694   299  4.05132  307  -4.0  100   -4.0  20    0     1000.4   NA       0.0000   9999     590   0     0    
2019/07/04  16:39:01  BASE  2.9106   295  4.05132  307  -4.0  100   -4.1  20    0     1000.4   NA       0.0000   9999     790   0     0    
2019/07/04  16:40:01  BASE  3.2046   296  4.05132  307  -4.1  100   -4.1  21    0     1000.4   NA       0.0000   9999     1280  0     0    
2019/07/04  16:41:01  BASE  3.48096  311  4.32768  321  -4.1  100   -4.1  21    0     1000.4   NA       0.0000   9999     1120  0     0    
2019/07/04  16:42:01  BASE  4.02192  318  4.86864  312  -4.1  100   -4.1  22    0     1000.5   NA       0.0000   9999     1250  0     0    
2019/07/04  16:43:01  BASE  3.68088  318  4.86864  312  -4.1  100   -4.1  23    0     1000.5   NA       0.0000   9999     430   0     0    
2019/07/04  16:44:01  BASE  3.33984  326  4.86864  312  -4.1  100   -4.1  24    0     1000.5   NA       0.0000   9999     620   0     0    
2019/07/04  16:45:01  BASE  3.21048  330  4.86864  312  -4.1  100   -4.1  24    0     1000.5   NA       0.0000   9999     430   0     0    
2019/07/04  16:46:01  BASE  3.0282   327  4.86864  312  -4.1  100   -4.1  24    0     1000.5   NA       0.0000   9999     520   0     0    
2019/07/04  16:47:01  BASE  3.18696  314  4.86864  312  -4.1  100   -4.1  24    0     1000.5   NA       0.0000   9999     850   0     0    
2019/07/04  16:48:01  BASE  2.98116  302  4.86864  312  -4.1  100   -4.1  24    0     1000.6   NA       0.0000   9999     950   0     0    
2019/07/04  16:49:01  BASE  2.94588  302  4.86864  312  -4.0  100   -4.0  24    0     1000.6   NA       0.0000   9999     820   0     0    
2019/07/04  16:50:01  BASE  3.79848  307  5.02152  308  -4.0  100   -4.0  23    0     1000.5   NA       0.0000   9999     690   0     0    
2019/07/04  16:51:01  BASE  4.24536  311  5.02152  308  -4.0  100   -4.0  22    0     1000.6   NA       0.0000   9999     920   0     0    
2019/07/04  16:52:01  BASE  3.7338   311  5.02152  308  -4.0  100   -4.0  21    0     1000.7   NA       0.0000   9999     520   0     0    
2019/07/04  16:53:01  BASE  3.27516  308  5.02152  308  -4.0  100   -4.0  19    0     1000.7   NA       0.0000   9999     790   0     0    
2019/07/04  16:54:01  BASE  3.03408  308  5.02152  308  -4.0  100   -4.0  18    0     1000.7   NA       0.0000   9999     850   0     0    
2019/07/04  16:55:01  BASE  2.99292  307  5.02152  308  -4.1  100   -4.1  17    0     1000.7   NA       0.0000   9999     1020  0     0    
2019/07/04  16:56:01  BASE  2.7636   307  5.02152  308  -4.1  100   -4.1  17    0     1000.7   NA       0.0000   9999     850   0     0    
2019/07/04  16:57:01  BASE  2.35788  307  5.02152  308  -4.1  100   -4.1  17    0     1000.7   NA       0.0000   9999     1150  0     0    
2019/07/04  16:58:01  BASE  2.53428  304  5.02152  308  -4.1  100   -4.1  16    0     1000.8   NA       0.0000   9999     920   0     0    
2019/07/04  16:59:01  BASE  3.36924  309  5.47428  314  -4.1  100   -4.1  17    0     1000.6   NA       0.0000   9999     1020  0     0    
2019/07/04  17:00:01  BASE  4.04544  317  5.47428  314  -4.1  100   -4.1  17    0     1000.6   NA       0.0000   9999     920   0     0    
2019/07/04  17:01:01  BASE  4.1454   317  5.47428  314  -4.1  100   -4.1  17    0     1000.8   NA       0.0000   9999     1080  0     0    
2019/07/04  17:02:01  BASE  3.83376  313  5.47428  314  -4.1  100   -4.1  17    0     1000.8   NA       0.0000   9999     520   0     0    
2019/07/04  17:03:01  BASE  3.54564  315  5.47428  314  -4.0  100   -4.0  17    0     1000.8   NA       0.0000   9999     720   0     0    
2019/07/04  17:04:01  BASE  3.33984  322  5.47428  314  -4.0  100   -4.0  17    0     1000.8   NA       0.0000   9999     820   0     0    
2019/07/04  17:05:01  BASE  2.85768  331  5.47428  314  -4.0  100   -4.0  16    0     1000.8   NA       0.0000   9999     980   0     0    
2019/07/04  17:06:01  BASE  2.51076  331  5.47428  314  -4.0  100   -4.0  16    0     1000.8   NA       0.0000   9999     1280  0     0    
2019/07/04  17:07:01  BASE  2.38728  320  5.47428  314  -4.1  100   -4.1  16    0     1000.8   NA       0.0000   9999     1050  0     0    
2019/07/04  17:08:01  BASE  2.39904  318  5.47428  314  -4.1  100   -4.1  16    0     1000.8   NA       0.0000   9999     1150  0     0    
2019/07/04  17:09:01  BASE  3.15756  319  5.47428  314  -4.1  100   -4.1  16    0     1000.8   NA       0.0000   9999     1180  0     0    
2019/07/04  17:10:01  BASE  3.72792  320  4.35708  316  -4.1  100   -4.1  16    0     1000.8   NA       0.0000   9999     1120  0     0    
2019/07/04  17:11:01  BASE  3.55152  318  4.05132  323  -4.1  100   -4.1  16    0     1000.8   NA       0.0000   9999     1120  0     0    
2019/07/04  17:12:01  BASE  3.087    309  4.05132  323  -4.1  100   -4.1  16    0     1000.9   NA       0.0000   9999     1210  0     0    
2019/07/04  17:13:01  BASE  2.98116  304  4.05132  323  -4.1  100   -4.1  16    0     1000.8   NA       0.0000   9999     980   0     0    
2019/07/04  17:14:01  BASE  3.46332  313  4.1454   323  -4.1  100   -4.1  15    0     1000.8   NA       0.0000   9999     1120  0     0    
2019/07/04  17:15:01  BASE  3.59856  318  4.1454   323  -4.1  100   -4.1  16    0     1000.8   NA       0.0000   9999     1210  0     0    
2019/07/04  17:16:01  BASE  3.6162   314  4.32768  316  -4.0  100   -4.0  15    0     1000.8   NA       0.0000   9999     1280  0     0    
2019/07/04  17:17:01  BASE  3.83376  315  4.32768  316  -4.1  100   -4.1  16    0     1000.8   NA       0.0000   9999     1180  0     0    
2019/07/04  17:18:01  BASE  3.99252  318  4.32768  316  -4.1  100   -4.1  16    0     1000.8   NA       0.0000   9999     1210  0     0    
2019/07/04  17:19:01  BASE  3.78672  320  4.32768  316  -4.1  100   -4.1  17    0     1000.9   NA       0.0000   9999     1250  0     0    
2019/07/04  17:20:01  BASE  3.44568  319  4.32768  316  -4.0  100   -4.1  17    0     1000.9   NA       0.0000   9999     1180  0     0    
2019/07/04  17:21:01  BASE  3.35748  315  4.32768  316  -4.0  100   -4.0  18    0     1000.9   NA       0.0000   9999     1310  0     0    
2019/07/04  17:22:01  BASE  3.51624  310  4.32768  316  -4.1  100   -4.1  18    0     1000.9   NA       0.0000   9999     1020  0     0    
2019/07/04  17:23:01  BASE  3.822    306  4.32768  316  -4.1  100   -4.1  18    0     1000.9   NA       0.0000   9999     1150  0     0    
2019/07/04  17:24:01  BASE  3.89256  302  4.32768  316  -4.1  100   -4.1  18    0     1000.9   NA       0.0000   9999     1080  0     0    
2019/07/04  17:25:01  BASE  3.77496  301  4.32768  316  -4.1  100   -4.1  17    0     1000.9   NA       0.0000   9999     1310  0     0    
2019/07/04  17:26:01  BASE  3.822    298  4.62756  294  -4.1  100   -4.1  16    0     1000.9   NA       0.0000   9999     1310  0     0    
2019/07/04  17:27:01  BASE  4.05132  294  4.62756  294  -4.1  100   -4.1  15    0     1000.9   NA       0.0000   9999     1350  2260  0    
2019/07/04  17:28:01  BASE  4.07484  290  4.62756  294  -4.1  100   -4.1  14    0     1000.9   NA       0.0000   9999     1350  2260  0    
2019/07/04  17:29:01  BASE  4.05132  289  4.62756  294  -4.1  100   -4.1  13    0     1000.9   NA       0.0000   9999     1380  0     0    
2019/07/04  17:30:01  BASE  3.7632   284  4.62756  294  -4.1  100   -4.1  12    0     1000.9   NA       0.0000   9999     1050  0     0    
2019/07/04  17:31:01  BASE  3.59856  284  4.93332  293  -4.1  100   -4.1  11    0     1000.9   NA       0.0000   9999     1180  0     0    
2019/07/04  17:32:01  BASE  4.15128  293  4.93332  293  -4.1  100   -4.1  10    0     1000.9   NA       0.0000   9999     1080  0     0    
2019/07/04  17:33:01  BASE  4.49232  297  4.93332  293  -4.1  100   -4.1  10    0     1000.9   NA       0.0000   9999     1120  0     0    
2019/07/04  17:34:01  BASE  4.23948  298  4.93332  293  -4.1  100   -4.1  9     0     1000.9   NA       0.0000   9999     1250  0     0    
2019/07/04  17:35:01  BASE  4.01604  298  4.93332  293  -4.1  100   -4.1  9     0     1000.9   NA       0.0000   9999     1180  0     0    
2019/07/04  17:36:01  BASE  3.969    299  4.93332  293  -4.1  100   -4.1  9     0     1001.0   NA       0.0000   9999     1120  0     0    
2019/07/04  17:37:01  BASE  3.73968  301  4.93332  293  -4.1  100   -4.1  9     0     1001.0   NA       0.0000   9999     1150  0     0    
2019/07/04  17:38:01  BASE  3.61032  296  4.93332  293  -4.1  100   -4.1  9     0     1001.0   NA       0.0000   9999     1310  0     0    
2019/07/04  17:39:01  BASE  3.56328  289  4.93332  293  -4.1  100   -4.1  9     0     1001.0   NA       0.0000   9999     1310  0     0    
2019/07/04  17:40:01  BASE  3.31632  296  4.93332  293  -4.1  100   -4.1  9     0     1001.0   NA       0.0000   9999     1410  0     0    
2019/07/04  17:41:01  BASE  3.39276  305  4.86864  292  -4.0  100   -4.0  9     0     1001.0   NA       0.0000   9999     1640  0     0    
2019/07/04  17:42:01  BASE  3.72204  304  4.78044  300  -4.0  100   -4.0  10    0     1001.0   NA       0.0000   9999     1610  0     0    
2019/07/04  17:43:01  BASE  3.71616  296  4.29828  299  -4.1  100   -4.1  11    0     1001.0   NA       0.0000   9999     1540  0     0    
2019/07/04  17:44:01  BASE  3.37512  294  4.263    297  -4.1  100   -4.1  12    0     1001.0   NA       0.0000   9999     1380  0     0    
2019/07/04  17:45:01  BASE  3.09876  292  4.263    297  -4.1  100   -4.1  12    0     1001.1   NA       0.0000   9999     1570  0     0    
2019/07/04  17:46:01  BASE  2.95764  281  4.263    297  -4.1  100   -4.1  13    0     1001.1   NA       0.0000   9999     1570  0     0    
2019/07/04  17:47:01  BASE  2.92236  276  4.263    297  -4.1  100   -4.1  13    0     1001.1   NA       0.0000   9999     1210  0     0    
2019/07/04  17:48:01  BASE  3.01056  277  4.263    297  -4.1  100   -4.1  13    0     1001.1   NA       0.0000   9999     1310  0     0    
2019/07/04  17:49:01  BASE  3.07524  279  4.263    297  -4.1  100   -4.1  13    0     1001.1   NA       0.0000   9999     1570  0     0    
2019/07/04  17:50:01  BASE  3.09288  282  4.263    297  -4.1  100   -4.1  13    0     1001.1   NA       0.0000   9999     1510  0     0    
2019/07/04  17:51:01  BASE  2.85768  284  4.263    297  -4.1  100   -4.1  14    0     1001.1   NA       0.0000   9999     1350  0     0    
2019/07/04  17:52:01  BASE  3.12816  304  4.116    290  -4.1  100   -4.1  14    0     1001.1   NA       0.0000   9999     1440  0     0    
2019/07/04  17:53:01  BASE  3.81612  316  4.38648  309  -4.0  100   -4.0  15    0     1001.0   NA       0.0000   9999     1250  0     0    
2019/07/04  17:54:01  BASE  3.72792  313  4.38648  309  -4.0  100   -4.0  15    0     1001.0   NA       0.0000   9999     1570  0     0    
2019/07/04  17:55:01  BASE  3.12228  312  4.38648  309  -4.0  100   -4.0  15    0     1001.0   NA       0.0000   9999     1540  0     0    
2019/07/04  17:56:01  BASE  2.71068  308  4.38648  309  -4.0  100   -4.0  15    0     1001.0   NA       0.0000   9999     1640  0     0    
2019/07/04  17:57:01  BASE  2.62836  307  4.38648  309  -4.1  100   -4.1  16    0     1001.0   NA       0.0000   9999     1740  0     0    
2019/07/04  17:58:01  BASE  2.53428  312  4.38648  309  -4.1  100   -4.1  16    0     1001.0   NA       0.0000   9999     1840  0     0    
2019/07/04  17:59:01  BASE  3.09876  306  4.38648  309  -4.1  100   -4.1  15    0     1001.0   NA       0.0000   9999     1800  0     0    
2019/07/04  18:00:01  BASE  3.65736  297  4.38648  309  -4.1  99    -4.1  15    0     1001.0   NA       0.0000   9999     1710  0     0    
2019/07/04  18:01:01  BASE  3.47508  299  4.38648  309  -4.1  99    -4.2  15    0     1001.0   NA       0.0000   9999     1670  0     0    
2019/07/04  18:02:01  BASE  3.37512  300  4.38648  309  -4.1  99    -4.3  15    0     1001.0   NA       0.0000   9999     1710  0     0    
2019/07/04  18:03:01  BASE  3.07524  300  4.2336   311  -4.1  98    -4.3  14    0     1001.0   NA       0.0000   9999     1740  0     0    
2019/07/04  18:04:01  BASE  2.6166   300  4.02192  299  -4.1  98    -4.4  14    0     1001.0   NA       0.0000   9999     1770  0     0    
2019/07/04  18:05:01  BASE  2.4696   296  4.02192  299  -4.1  97    -4.5  13    0     1001.0   NA       0.0000   9999     1740  0     0    
2019/07/04  18:06:01  BASE  2.9988   297  4.02192  304  -4.1  97    -4.5  12    0     1001.0   NA       0.0000   9999     1710  0     0    
2019/07/04  18:07:01  BASE  3.58092  304  4.02192  304  -4.1  96    -4.6  11    0     1001.0   NA       0.0000   9999     1800  0     0    
2019/07/04  18:08:01  BASE  3.381    310  4.02192  304  -4.1  96    -4.6  11    0     1001.0   NA       0.0000   9999     1770  0     0    
2019/07/04  18:09:01  BASE  3.26928  308  4.02192  304  -4.1  95    -4.7  10    0     1001.0   NA       0.0000   9999     1740  0     0    
2019/07/04  18:10:01  BASE  3.31044  302  4.02192  304  -4.1  95    -4.7  9     0     1001.0   NA       0.0000   9999     1710  0     0    
2019/07/04  18:11:01  BASE  3.26928  299  4.02192  304  -4.1  95    -4.8  9     0     1001.0   NA       0.0000   9999     1800  0     0    
2019/07/04  18:12:01  BASE  3.33396  295  4.02192  304  -4.1  94    -4.9  8     0     1001.0   NA       0.0000   9999     1840  0     0    
2019/07/04  18:13:01  BASE  3.33984  288  4.02192  304  -4.0  94    -4.9  8     0     1001.1   NA       0.0000   9999     1970  0     0    
2019/07/04  18:14:01  BASE  3.234    282  4.02192  304  -4.0  93    -4.9  7     0     1001.1   NA       0.0000   9999     1940  0     0    
2019/07/04  18:15:00  BASE  3.4104   285  4.116    284  -4.0  93    -5.0  7     0     1001.1   NA       0.0000   9999     1870  0     0    
2019/07/04  18:16:01  BASE  3.59268  291  4.116    284  -4.0  93    -5.0  7     0     1001.1   NA       0.0000   9999     1870  0     0    
2019/07/04  18:17:01  BASE  3.56916  291  4.116    284  -4.0  92    -5.1  6     0     1001.1   NA       0.0000   9999     1770  0     0    
2019/07/04  18:18:01  BASE  3.42804  287  4.116    284  -4.0  92    -5.2  6     0     1001.1   NA       0.0000   9999     1840  0     0    
2019/07/04  18:19:01  BASE  3.03996  281  4.116    284  -4.1  92    -5.2  6     0     1001.1   NA       0.0000   9999     1740  0     0    
2019/07/04  18:20:01  BASE  2.40492  285  4.116    284  -4.1  91    -5.3  6     0     1001.1   NA       0.0000   9999     1640  0     0    
2019/07/04  18:21:01  BASE  1.98156  289  4.116    284  -4.1  91    -5.3  6     0     1001.1   NA       0.0000   9999     1770  0     0    
2019/07/04  18:22:01  BASE  2.25792  290  4.116    284  -4.1  91    -5.4  5     0     1001.1   NA       0.0000   9999     1540  0     0    
2019/07/04  18:23:01  BASE  2.49312  292  4.116    284  -4.1  90    -5.4  5     0     1001.1   NA       0.0000   9999     1610  0     0    
2019/07/04  18:24:00  BASE  2.7342   278  4.116    284  -4.0  90    -5.4  5     0     1001.1   NA       0.0000   9999     1940  0     0    
2019/07/04  18:25:00  BASE  3.06348  260  3.81024  290  -4.0  90    -5.4  5     0     1001.1   NA       0.0000   9999     1900  0     0    
2019/07/04  18:26:01  BASE  3.00468  251  3.81024  290  -4.0  90    -5.4  5     0     1001.0   NA       0.0000   9999     1970  0     0    
2019/07/04  18:27:00  BASE  2.76948  250  3.62796  257  -4.0  90    -5.4  4     0     1001.0   NA       0.0000   9999     2000  0     0    
2019/07/04  18:28:01  BASE  2.68128  251  3.62796  257  -4.0  91    -5.3  4     0     1001.0   NA       0.0000   9999     2070  0     0    
2019/07/04  18:29:00  BASE  2.7636   258  3.75144  296  -4.0  91    -5.2  4     0     1001.0   NA       0.0000   9999     2000  0     0    
2019/07/04  18:30:00  BASE  3.06348  279  3.75144  296  -4.1  92    -5.2  4     0     1001.0   NA       0.0000   9999     2030  0     0    
2019/07/04  18:31:01  BASE  3.57504  293  3.99252  294  -4.1  93    -5.1  4     0     1001.0   NA       0.0000   9999     2030  0     0    
2019/07/04  18:32:01  BASE  3.95724  295  4.41588  296  -4.2  94    -5.0  4     0     1001.0   NA       0.0000   9999     2070  0     0    
2019/07/04  18:33:00  BASE  4.03956  295  4.41588  296  -4.2  94    -4.9  4     0     1001.0   NA       0.0000   9999     2030  0     0    
2019/07/04  18:34:01  BASE  4.02192  295  4.41588  297  -4.2  95    -4.9  4     0     1001.0   NA       0.0000   9999     1870  0     0    
2019/07/04  18:35:01  BASE  4.00428  297  4.41588  297  -4.2  95    -4.9  4     0     1001.0   NA       0.0000   9999     1870  0     0    
2019/07/04  18:36:00  BASE  3.69264  295  4.50996  294  -4.2  94    -4.9  4     0     1001.0   NA       0.0000   9999     1970  0     0    
2019/07/04  18:37:00  BASE  3.66912  285  4.50996  294  -4.2  94    -5.0  4     0     1001.0   NA       0.0000   9999     1970  0     0    
2019/07/04  18:38:01  BASE  3.63972  281  4.50996  294  -4.2  94    -5.0  3     0     1001.0   NA       0.0000   9999     1840  0     0    
2019/07/04  18:39:00  BASE  3.29868  280  4.50996  294  -4.1  93    -5.1  3     0     1001.0   NA       0.0000   9999     1540  0     0    
2019/07/04  18:40:00  BASE  3.63972  276  4.53936  275  -4.1  93    -5.1  3     0     1001.0   NA       0.0000   9999     1640  0     0    
2019/07/04  18:41:00  BASE  3.77496  276  4.53936  275  -4.1  92    -5.2  3     0     1001.0   NA       0.0000   9999     2000  0     0    
2019/07/04  18:42:00  BASE  3.30456  275  4.53936  275  -4.2  92    -5.2  3     0     1001.0   NA       0.0000   9999     2000  0     0    
2019/07/04  18:43:00  BASE  3.51036  273  4.68636  273  -4.2  92    -5.3  3     0     1000.9   NA       0.0000   9999     2000  0     0    
2019/07/04  18:44:00  BASE  3.8808   274  4.80984  270  -4.2  92    -5.4  3     0     1000.9   NA       0.0000   9999     1900  0     0    
2019/07/04  18:45:01  BASE  3.75144  272  4.80984  270  -4.2  91    -5.4  3     0     1000.9   NA       0.0000   9999     1710  0     0    
2019/07/04  18:46:00  BASE  3.26928  274  4.80984  270  -4.2  91    -5.4  3     0     1000.9   NA       0.0000   9999     1480  0     0    
2019/07/04  18:47:00  BASE  3.19872  277  4.80984  270  -4.2  91    -5.5  3     0     1000.9   NA       0.0000   9999     1610  0     0    
2019/07/04  18:48:00  BASE  3.37512  272  4.80984  270  -4.2  91    -5.5  2     0     1000.9   NA       0.0000   9999     1970  0     0    
2019/07/04  18:49:01  BASE  3.21636  269  4.80984  270  -4.2  91    -5.5  2     0     1000.9   NA       0.0000   9999     2100  0     0    
2019/07/04  18:50:00  BASE  3.3222   269  4.80984  270  -4.2  91    -5.5  2     0     1000.9   NA       0.0000   9999     1970  0     0    
2019/07/04  18:51:00  BASE  3.63384  270  4.80984  270  -4.2  91    -5.5  2     0     1000.9   NA       0.0000   9999     1770  0     0    
2019/07/04  18:52:00  BASE  3.42216  269  4.80984  270  -4.3  91    -5.5  2     0     1001.0   NA       0.0000   9999     2000  0     0    
2019/07/04  18:53:00  BASE  2.93412  269  4.80984  270  -4.3  91    -5.6  2     0     1001.0   NA       0.0000   9999     2070  0     0    
2019/07/04  18:54:01  BASE  2.66364  272  4.62756  273  -4.3  90    -5.7  2     0     1001.0   NA       0.0000   9999     2000  0     0    
2019/07/04  18:55:00  BASE  2.78712  273  4.35708  262  -4.3  90    -5.7  2     0     1001.0   NA       0.0000   9999     2030  0     0    
2019/07/04  18:56:01  BASE  3.0576   268  4.35708  262  -4.3  90    -5.7  2     0     1001.0   NA       0.0000   9999     1970  0     0    
2019/07/04  18:57:00  BASE  2.793    265  4.35708  262  -4.3  90    -5.8  2     0     1001.0   NA       0.0000   9999     1870  0     0    
2019/07/04  18:58:00  BASE  2.92824  267  4.35708  262  -4.4  90    -5.8  2     0     1001.0   NA       0.0000   9999     1870  0     0    
2019/07/04  18:59:01  BASE  3.25164  274  4.35708  262  -4.4  89    -5.8  2     0     1001.0   NA       0.0000   9999     1970  0     0    
2019/07/04  19:00:00  BASE  3.4104   278  4.32768  265  -4.4  89    -5.9  1     0     1001.0   NA       0.0000   9999     1800  0     0    
2019/07/04  19:01:00  BASE  3.63384  278  4.2042   273  -4.4  89    -6.0  1     0     1001.0   NA       0.0000   9999     1800  0     0    
2019/07/04  19:02:01  BASE  3.28692  280  4.2042   273  -4.4  89    -6.0  1     0     1001.0   NA       0.0000   9999     1940  0     0    
2019/07/04  19:03:00  BASE  2.86356  281  4.2042   273  -4.4  88    -6.0  1     0     1001.1   NA       0.0000   9999     2000  0     0    
2019/07/04  19:04:01  BASE  2.74008  271  4.2042   273  -4.4  88    -6.1  1     0     1001.1   NA       0.0000   9999     1870  0     0    
2019/07/04  19:05:01  BASE  2.59896  258  4.2042   273  -4.4  88    -6.1  1     0     1001.1   NA       0.0000   9999     1840  0     0    
2019/07/04  19:06:00  BASE  2.78712  254  4.2042   273  -4.4  87    -6.2  1     0     1001.1   NA       0.0000   9999     1970  0     0    
2019/07/04  19:07:00  BASE  2.8812   252  4.2042   273  -4.4  87    -6.2  1     0     1001.1   NA       0.0000   9999     2000  0     0    
2019/07/04  19:08:00  BASE  2.2638   258  4.2042   273  -4.4  87    -6.3  1     0     1001.1   NA       0.0000   9999     1940  0     0    
2019/07/04  19:09:00  BASE  2.12268  262  4.1748   280  -4.5  87    -6.3  1     0     1001.1   NA       0.0000   9999     2030  0     0    
2019/07/04  19:10:00  BASE  2.19324  264  4.1748   280  -4.5  87    -6.3  1     0     1001.1   NA       0.0000   9999     1970  0     0    
2019/07/04  19:11:00  BASE  1.82868  273  3.38688  280  -4.5  87    -6.3  1     0     1001.1   NA       0.0000   9999     1940  0     0    
2019/07/04  19:12:01  BASE  1.78752  280  3.35748  255  -4.5  88    -6.2  1     0     1001.1   NA       0.0000   9999     2130  0     0    
2019/07/04  19:13:00  BASE  1.89924  287  3.35748  255  -4.5  88    -6.2  1     0     1000.4   NA       0.0000   9999     2130  0     0    
2019/07/04  19:14:01  BASE  2.24616  289  3.35748  255  -4.5  88    -6.2  1     0     1000.9   NA       0.0000   9999     2100  0     0    
2019/07/04  19:15:01  BASE  2.65776  284  3.35748  255  -4.5  87    -6.2  1     0     1001.1   NA       0.0000   9999     2100  0     0    
2019/07/04  19:16:00  BASE  2.6754   276  3.29868  277  -4.4  87    -6.3  1     0     1000.8   NA       0.0000   9999     2070  0     0    
2019/07/04  19:17:00  BASE  2.22852  274  3.29868  277  -4.4  87    -6.3  1     0     1001.0   NA       0.0000   9999     2000  0     0    
2019/07/04  19:18:00  BASE  1.79928  275  3.29868  277  -4.4  86    -6.3  1     0     1001.0   NA       0.0000   9999     2000  0     0    
2019/07/04  19:19:00  BASE  1.99332  277  3.29868  277  -4.4  86    -6.4  0     0     1001.0   NA       0.0000   9999     1900  0     0    
2019/07/04  19:20:01  BASE  2.43432  280  3.29868  277  -4.4  86    -6.4  0     0     1001.0   NA       0.0000   9999     2100  0     0    
2019/07/04  19:21:00  BASE  2.75184  287  3.41628  293  -4.4  85    -6.5  0     0     1001.0   NA       0.0000   9999     2100  0     0    
2019/07/04  19:22:00  BASE  2.98116  290  3.51036  296  -4.4  85    -6.5  0     0     1001.0   NA       0.0000   9999     2100  0     0    
2019/07/04  19:23:00  BASE  3.0576   292  3.51036  296  -4.4  85    -6.5  0     0     1001.0   NA       0.0000   9999     2100  0     0    
2019/07/04  19:24:00  BASE  3.15756  291  3.59856  293  -4.4  85    -6.5  0     0     1001.1   NA       0.0000   9999     2100  0     0    
2019/07/04  19:25:01  BASE  3.03408  287  3.59856  293  -4.4  85    -6.5  0     0     1001.1   NA       0.0000   9999     2100  0     0    
2019/07/04  19:26:00  BASE  2.66952  279  3.59856  293  -4.4  85    -6.5  0     0     1001.1   NA       0.0000   9999     1900  0     0    
2019/07/04  19:27:00  BASE  2.59308  271  3.59856  293  -4.4  85    -6.5  0     0     1001.0   NA       0.0000   9999     1970  0     0    
2019/07/04  19:28:00  BASE  2.42256  272  3.59856  293  -4.4  85    -6.6  0     0     1001.1   NA       0.0000   9999     2100  0     0    
2019/07/04  19:29:00  BASE  2.0874   283  3.59856  293  -4.5  85    -6.6  0     0     1001.1   NA       0.0000   9999     2100  0     0    
2019/07/04  19:30:01  BASE  1.98156  292  3.59856  293  -4.5  85    -6.6  0     0     1001.0   NA       0.0000   9999     2030  0     0    
2019/07/04  19:31:01  BASE  1.72872  295  3.59856  293  -4.5  85    -6.6  0     0     1001.0   NA       0.0000   9999     2030  0     0    
2019/07/04  19:32:00  BASE  1.74048  298  3.59856  293  -4.5  85    -6.6  0     0     1001.0   NA       0.0000   9999     2000  0     0    
2019/07/04  19:33:00  BASE  2.06388  290  3.59856  293  -4.5  85    -6.7  0     0     1000.7   NA       0.0000   9999     1870  0     0    
2019/07/04  19:34:01  BASE  2.22264  279  3.2046   282  -4.4  84    -6.7  0     0     1001.0   NA       0.0000   9999     2030  0     0    
2019/07/04  19:35:01  BASE  2.51664  277  3.1458   272  -4.4  84    -6.7  0     0     1001.0   NA       0.0000   9999     2070  0     0    
2019/07/04  19:36:00  BASE  2.74596  276  3.1458   272  -4.4  84    -6.7  0     0     1001.0   NA       0.0000   9999     1970  0     0    
2019/07/04  19:37:01  BASE  2.53428  275  3.1458   272  -4.4  84    -6.7  0     0     1001.0   NA       0.0000   9999     2030  0     0    
2019/07/04  19:38:00  BASE  2.35788  274  3.1458   272  -4.4  84    -6.7  0     0     1000.9   NA       0.0000   9999     2100  0     0    
2019/07/04  19:39:00  BASE  2.51076  272  3.1458   272  -4.4  84    -6.7  0     0     1000.9   NA       0.0000   9999     2200  0     0    
2019/07/04  19:40:01  BASE  2.42256  281  3.1458   272  -4.4  84    -6.7  0     0     1000.9   NA       0.0000   9999     2170  0     0    
2019/07/04  19:41:00  BASE  2.43432  288  3.1458   272  -4.4  84    -6.8  0     0     1000.9   NA       0.0000   9999     2100  0     0    
2019/07/04  19:42:00  BASE  2.86944  286  3.62796  287  -4.5  84    -6.8  0     0     1000.9   NA       0.0000   9999     2130  0     0    
2019/07/04  19:43:00  BASE  3.13404  288  3.62796  287  -4.5  84    -6.8  0     0     1000.9   NA       0.0000   9999     2130  0     0    
2019/07/04  19:44:00  BASE  2.92236  294  3.62796  287  -4.5  84    -6.8  0     0     1000.9   NA       0.0000   9999     2130  0     0    
2019/07/04  19:45:00  BASE  2.71068  294  3.62796  287  -4.5  84    -6.8  0     0     1000.9   NA       0.0000   9999     2130  0     0    
2019/07/04  19:46:00  BASE  2.65776  283  3.62796  287  -4.5  84    -6.8  0     0     1001.0   NA       0.0000   9999     2200  0     0    
2019/07/04  19:47:00  BASE  2.4402   276  3.62796  287  -4.5  84    -6.8  0     0     1001.0   NA       0.0000   9999     2170  0     0    
2019/07/04  19:48:00  BASE  2.38728  277  3.62796  287  -4.5  84    -6.9  0     0     1001.0   NA       0.0000   9999     2070  0     0    
2019/07/04  19:49:00  BASE  2.56368  277  3.62796  287  -4.5  83    -6.9  0     0     1001.0   NA       0.0000   9999     2070  0     0    
2019/07/04  19:50:00  BASE  2.56956  277  3.62796  287  -4.5  83    -6.9  0     0     1001.0   NA       0.0000   9999     2100  0     0    
2019/07/04  19:51:00  BASE  2.499    282  3.62796  287  -4.5  83    -6.9  0     0     1001.0   NA       0.0000   9999     2200  0     0    
2019/07/04  19:52:00  BASE  2.46372  286  3.35748  286  -4.5  83    -6.9  0     0     1001.0   NA       0.0000   9999     2170  0     0    
2019/07/04  19:53:01  BASE  1.89924  287  3.29868  289  -4.5  83    -7.0  0     0     1001.0   NA       0.0000   9999     2100  0     0    
2019/07/04  19:54:00  BASE  1.4406   286  3.087    295  -4.5  83    -7.0  0     0     1001.0   NA       0.0000   9999     2000  0     0    
2019/07/04  19:55:00  BASE  1.76988  276  3.02232  292  -4.5  82    -7.0  0     0     1001.0   NA       0.0000   9999     2100  0     0    
2019/07/04  19:56:01  BASE  1.86984  267  3.02232  292  -4.5  82    -7.1  0     0     1001.1   NA       0.0000   9999     2100  0     0    
2019/07/04  19:57:00  BASE  1.72872  270  3.02232  292  -4.5  82    -7.2  0     0     1001.1   NA       0.0000   9999     2230  0     0    
2019/07/04  19:58:00  BASE  2.09328  271  3.02232  292  -4.5  82    -7.2  0     0     1001.1   NA       0.0000   9999     2360  0     0    
2019/07/04  19:59:00  BASE  2.59896  263  3.1164   254  -4.6  82    -7.2  0     0     1001.1   NA       0.0000   9999     2330  0     0    
2019/07/04  20:00:00  BASE  2.66952  255  3.1164   253  -4.6  82    -7.3  0     0     1001.1   NA       0.0000   9999     2260  0     0    
2019/07/04  20:01:00  BASE  2.5284   256  3.1164   253  -4.6  82    -7.3  0     0     1001.1   NA       0.0000   9999     2300  0     0    
2019/07/04  20:02:00  BASE  2.45784  256  3.1164   253  -4.6  82    -7.2  0     0     1001.1   NA       0.0000   9999     2300  0     0    
2019/07/04  20:03:00  BASE  2.24616  254  3.1164   253  -4.6  82    -7.2  0     0     1001.1   NA       0.0000   9999     2260  0     0    
2019/07/04  20:04:00  BASE  2.16384  253  3.1164   253  -4.6  82    -7.2  0     0     1001.1   NA       0.0000   9999     2200  0     0    
2019/07/04  20:05:00  BASE  2.01096  253  3.1164   253  -4.7  82    -7.3  0     0     1001.1   NA       0.0000   9999     2170  0     0    
2019/07/04  20:06:00  BASE  2.16972  252  3.1458   253  -4.7  82    -7.3  0     0     1001.1   NA       0.0000   9999     2170  0     0    
2019/07/04  20:07:00  BASE  2.65776  258  3.1458   253  -4.7  82    -7.3  0     0     1001.1   NA       0.0000   9999     2070  0     0    
2019/07/04  20:08:01  BASE  2.2638   266  3.1458   253  -4.7  82    -7.3  0     0     1001.2   NA       0.0000   9999     2030  0     0    
2019/07/04  20:09:00  BASE  1.96392  264  3.1458   253  -4.7  83    -7.2  0     0     1001.2   NA       0.0000   9999     2030  0     0    
2019/07/04  20:10:01  BASE  2.12268  255  3.1458   253  -4.7  83    -7.2  0     0     1001.2   NA       0.0000   9999     2030  0     0    
2019/07/04  20:11:00  BASE  2.16384  249  3.1458   253  -4.7  83    -7.2  0     0     1001.3   NA       0.0000   9999     2230  0     0    
2019/07/04  20:12:00  BASE  2.25792  245  3.1458   253  -4.7  82    -7.2  0     0     1001.3   NA       0.0000   9999     2260  0     0    
2019/07/04  20:13:00  BASE  2.2638   246  3.1458   253  -4.7  82    -7.3  0     0     1001.3   NA       0.0000   9999     2260  0     0    
2019/07/04  20:14:00  BASE  2.15208  251  3.1458   253  -4.7  82    -7.3  0     0     1001.3   NA       0.0000   9999     2130  0     0    
2019/07/04  20:15:01  BASE  2.19912  258  3.1458   253  -4.8  82    -7.3  0     0     1001.3   NA       0.0000   9999     2130  0     0    
2019/07/04  20:16:00  BASE  2.1756   266  3.1164   264  -4.7  83    -7.3  0     0     1001.3   NA       0.0000   9999     2300  0     0    
2019/07/04  20:17:00  BASE  2.32848  277  3.1164   278  -4.7  83    -7.1  0     0     1001.4   NA       0.0000   9999     2300  0     0    
2019/07/04  20:18:00  BASE  2.59896  288  3.1164   278  -4.6  83    -7.0  0     0     1001.4   NA       0.0000   9999     1970  0     0    
2019/07/04  20:19:00  BASE  2.58132  296  3.1164   278  -4.6  84    -6.9  0     0     1001.4   NA       0.0000   9999     1770  0     0    
2019/07/04  20:20:00  BASE  2.69304  303  3.1164   278  -4.5  84    -6.8  0     0     1001.4   NA       0.0000   9999     1870  0     0    
2019/07/04  20:21:00  BASE  2.60484  312  3.1164   278  -4.5  84    -6.7  0     0     1001.4   NA       0.0000   9999     2000  0     0    
2019/07/04  20:22:00  BASE  2.2638   324  3.1164   278  -4.5  84    -6.7  0     0     1001.3   NA       0.0000   9999     2030  0     0    
2019/07/04  20:23:00  BASE  1.89924  333  3.1164   278  -4.5  85    -6.7  0     0     1001.4   NA       0.0000   9999     1970  0     0    
2019/07/04  20:24:00  BASE  1.57584  321  3.1164   278  -4.5  85    -6.7  0     0     1001.4   NA       0.0000   9999     2000  0     0    
2019/07/04  20:25:00  BASE  1.5582   302  3.1164   278  -4.6  85    -6.7  0     0     1001.4   NA       0.0000   9999     1940  0     0    
2019/07/04  20:26:00  BASE  2.06388  296  3.62796  291  -4.6  85    -6.7  0     0     1001.4   NA       0.0000   9999     1900  0     0    
2019/07/04  20:27:00  BASE  2.92824  295  3.65736  299  -4.5  85    -6.7  0     0     1001.4   NA       0.0000   9999     1870  0     0    
2019/07/04  20:28:01  BASE  3.62796  294  4.35708  290  -4.5  85    -6.6  0     0     1001.3   NA       0.0000   9999     1900  0     0    
2019/07/04  20:29:00  BASE  4.29828  294  5.05092  287  -4.4  85    -6.6  0     0     1001.3   NA       0.0000   9999     1970  0     0    
2019/07/04  20:30:00  BASE  4.98624  290  5.78004  284  -4.4  85    -6.5  0     0     1001.3   NA       0.0000   9999     1940  0     0    
2019/07/04  20:31:01  BASE  4.45116  286  5.78004  284  -4.4  85    -6.5  0     0     1001.4   NA       0.0000   9999     1800  0     0    
2019/07/04  20:32:00  BASE  2.88708  294  5.78004  284  -4.5  86    -6.5  0     0     1001.4   NA       0.0000   9999     1640  0     0    
2019/07/04  20:33:00  BASE  1.81104  292  5.78004  284  -4.5  86    -6.5  0     0     1001.4   NA       0.0000   9999     1510  0     0    
2019/07/04  20:34:00  BASE  1.09368  252  5.78004  284  -4.5  86    -6.4  0     0     1001.4   NA       0.0000   9999     1710  0     0    
2019/07/04  20:35:00  BASE  0.33516  173  5.78004  284  -4.5  87    -6.4  0     0     1001.4   NA       0.0000   9999     1840  0     0    
2019/07/04  20:36:00  BASE  0        95   5.78004  284  -4.5  87    -6.4  0     0     1001.4   NA       0.0000   9999     1840  0     0    
2019/07/04  20:37:00  BASE  0        40   5.78004  284  -4.5  87    -6.3  0     0     1001.4   NA       0.0000   9999     1870  0     0    
2019/07/04  20:38:00  BASE  0        25   5.78004  284  -4.5  87    -6.3  0     0     1001.4   NA       0.0000   9999     1870  0     0    
2019/07/04  20:39:00  BASE  0        34   5.78004  284  -4.5  87    -6.3  0     0     1001.4   NA       0.0000   9999     1870  0     0    
2019/07/04  20:40:00  BASE  0        62   4.53936  281  -4.5  87    -6.3  0     0     1001.4   NA       0.0000   9999     1840  0     0    
2019/07/04  20:41:01  BASE  0.37044  71   2.66364  314  -4.5  87    -6.3  0     0     1001.4   NA       0.0000   9999     1870  0     0    
2019/07/04  20:42:00  BASE  0.6468   37   2.45196  318  -4.5  87    -6.4  0     0     1001.4   NA       0.0000   9999     1800  0     0    
2019/07/04  20:43:00  BASE  0.42336  22   1.24068  234  -4.5  87    -6.3  0     0     1001.4   NA       0.0000   9999     1770  0     0    
2019/07/04  20:44:00  BASE  0.28812  16   1.0878   28   -4.5  87    -6.3  0     0     1001.4   NA       0.0000   9999     1800  0     0    
2019/07/04  20:45:00  BASE  0.14112  5    1.0878   28   -4.5  88    -6.3  0     0     1001.4   NA       0.0000   9999     1800  0     0    
2019/07/04  20:46:00  BASE  0        18   1.0878   28   -4.5  88    -6.3  0     0     1001.4   NA       0.0000   9999     1710  0     0    
2019/07/04  20:47:00  BASE  0        20   1.0878   28   -4.5  88    -6.2  0     0     1001.4   NA       0.0000   9999     1640  0     0    
2019/07/04  20:48:00  BASE  0        343  1.0878   28   -4.5  88    -6.2  0     0     1001.3   NA       0.0000   9999     1740  0     0    
2019/07/04  20:49:00  BASE  0        341  1.0878   28   -4.5  88    -6.2  0     0     1001.3   NA       0.0000   9999     1800  0     0    
2019/07/04  20:50:00  BASE  0        6    1.0878   28   -4.5  88    -6.2  0     0     1001.3   NA       0.0000   9999     1740  0     0    
2019/07/04  20:51:00  BASE  0        24   1.0878   28   -4.5  88    -6.2  0     0     1001.3   NA       0.0000   9999     1770  0     0    
2019/07/04  20:52:00  BASE  0.15288  25   0.84672  25   -4.5  88    -6.2  0     0     1001.4   NA       0.0000   9999     1740  0     0    
2019/07/04  20:53:01  BASE  0.68208  23   1.69344  15   -4.5  88    -6.2  0     0     1001.3   NA       0.0000   9999     1770  0     0    
2019/07/04  20:54:00  BASE  1.39944  12   1.90512  2    -4.5  88    -6.2  0     0     1001.4   NA       0.0000   9999     1710  0     0    
2019/07/04  20:55:01  BASE  1.61112  357  1.90512  2    -4.5  88    -6.2  0     0     1001.4   NA       0.0000   9999     1740  0     0    
2019/07/04  20:56:00  BASE  1.40532  347  1.90512  2    -4.5  88    -6.2  0     0     1001.4   NA       0.0000   9999     1710  0     0    
2019/07/04  20:57:00  BASE  1.30536  348  1.90512  2    -4.5  88    -6.2  0     0     1001.4   NA       0.0000   9999     1740  0     0    
2019/07/04  20:58:00  BASE  1.2054   357  1.90512  2    -4.5  88    -6.2  0     0     1001.4   NA       0.0000   9999     1740  0     0    
2019/07/04  20:59:00  BASE  1.176    359  1.90512  2    -4.5  88    -6.1  0     0     1001.4   NA       0.0000   9999     1740  0     0    
2019/07/04  21:00:00  BASE  1.3524   349  1.90512  2    -4.5  88    -6.1  0     0     1001.4   NA       0.0000   9999     1710  0     0    
2019/07/04  21:01:00  BASE  1.7052   334  2.1168   326  -4.5  88    -6.1  0     0     1001.4   NA       0.0000   9999     1670  0     0    
2019/07/04  21:02:00  BASE  1.78752  328  2.1168   326  -4.5  89    -6.1  0     0     1001.4   NA       0.0000   9999     1710  0     0    
2019/07/04  21:03:00  BASE  1.5876   330  2.1168   326  -4.5  89    -6.1  0     0     1001.4   NA       0.0000   9999     1670  0     0    
2019/07/04  21:04:00  BASE  1.4406   335  2.1168   326  -4.4  89    -6.0  0     0     1001.4   NA       0.0000   9999     1710  0     0    
2019/07/04  21:05:00  BASE  1.51116  343  2.1168   326  -4.4  89    -6.0  0     0     1001.4   NA       0.0000   9999     1710  0     0    
2019/07/04  21:06:00  BASE  1.57584  354  2.1168   326  -4.4  89    -6.0  0     0     1001.4   NA       0.0000   9999     1670  0     0    
2019/07/04  21:07:00  BASE  1.35828  357  2.1168   326  -4.4  89    -6.0  0     0     1001.4   NA       0.0000   9999     1670  0     0    
2019/07/04  21:08:00  BASE  0.9996   359  2.1168   326  -4.4  89    -6.0  0     0     1001.4   NA       0.0000   9999     1670  0     0    
2019/07/04  21:09:00  BASE  0.54684  332  2.1168   326  -4.4  89    -6.0  0     0     1001.4   NA       0.0000   9999     1640  0     0    
2019/07/04  21:10:00  BASE  0.32928  272  2.1168   326  -4.4  89    -6.0  0     0     1001.5   NA       0.0000   9999     1670  0     0    
2019/07/04  21:11:00  BASE  0.92316  269  2.0286   271  -4.4  89    -5.9  0     0     1001.5   NA       0.0000   9999     1670  0     0    
2019/07/04  21:12:00  BASE  1.76988  263  2.42256  243  -4.4  89    -5.9  0     0     1001.5   NA       0.0000   9999     1610  0     0    
2019/07/04  21:13:00  BASE  1.764    252  2.42256  243  -4.4  90    -5.9  0     0     1001.5   NA       0.0000   9999     1670  0     0    
2019/07/04  21:14:00  BASE  1.24068  254  2.42256  243  -4.4  90    -5.9  0     0     1001.5   NA       0.0000   9999     1670  0     0    
2019/07/04  21:15:00  BASE  0.90552  250  2.42256  243  -4.5  90    -5.8  0     0     1001.5   NA       0.0000   9999     1670  0     0    
2019/07/04  21:16:00  BASE  0.78204  256  2.42256  243  -4.5  90    -5.9  0     0     1001.5   NA       0.0000   9999     1640  0     0    
2019/07/04  21:17:00  BASE  1.17012  263  2.42256  243  -4.5  90    -5.9  0     0     1001.5   NA       0.0000   9999     1610  0     0    
2019/07/04  21:18:00  BASE  1.3524   255  2.42256  243  -4.5  90    -5.9  0     0     1001.5   NA       0.0000   9999     1640  0     0    
2019/07/04  21:19:00  BASE  1.01136  244  2.42256  243  -4.5  90    -5.9  0     0     1001.5   NA       0.0000   9999     1670  0     0    
2019/07/04  21:20:00  BASE  0.60564  241  2.42256  243  -4.5  90    -5.9  0     0     1001.5   NA       0.0000   9999     1670  0     0    
2019/07/04  21:21:00  BASE  0.15876  261  2.42256  243  -4.5  90    -5.9  0     0     1001.5   NA       0.0000   9999     1640  0     0    
2019/07/04  21:22:00  BASE  0.08232  267  2.26968  243  -4.5  90    -5.9  0     0     1001.5   NA       0.0000   9999     1640  0     0    
2019/07/04  21:23:00  BASE  0.27636  282  2.21088  250  -4.6  90    -5.9  0     0     1001.5   NA       0.0000   9999     1640  0     0    
2019/07/04  21:24:00  BASE  0.96432  299  2.21088  250  -4.6  90    -5.9  0     0     1001.6   NA       0.0000   9999     1640  0     0    
2019/07/04  21:25:00  BASE  1.57584  297  2.21088  250  -4.6  91    -5.9  0     0     1001.6   NA       0.0000   9999     1670  0     0    
2019/07/04  21:26:00  BASE  1.9698   296  2.99292  294  -4.5  91    -5.8  0     0     1001.6   NA       0.0000   9999     1670  0     0    
2019/07/04  21:27:00  BASE  2.22264  298  2.99292  294  -4.5  91    -5.8  0     0     1001.6   NA       0.0000   9999     1640  0     0    
2019/07/04  21:28:00  BASE  1.97568  304  2.99292  294  -4.5  91    -5.8  0     0     1001.5   NA       0.0000   9999     1640  0     0    
2019/07/04  21:29:00  BASE  1.64052  303  2.99292  294  -4.5  91    -5.8  0     0     1001.5   NA       0.0000   9999     1610  0     0    
2019/07/04  21:30:00  BASE  1.4112   288  2.99292  294  -4.5  91    -5.8  0     0     1001.5   NA       0.0000   9999     1610  0     0    
2019/07/04  21:31:00  BASE  1.21128  271  2.99292  294  -4.6  91    -5.8  0     0     1001.5   NA       0.0000   9999     1610  0     0    
2019/07/04  21:32:00  BASE  0.75264  255  2.99292  294  -4.6  91    -5.8  0     0     1001.5   NA       0.0000   9999     1610  0     0    
2019/07/04  21:33:00  BASE  0.2352   240  2.99292  294  -4.6  91    -5.8  0     0     1001.5   NA       0.0000   9999     1570  0     0    
2019/07/04  21:34:00  BASE  0        243  2.99292  294  -4.6  92    -5.7  0     0     1001.5   NA       0.0000   9999     1610  0     0    
2019/07/04  21:35:00  BASE  0        255  2.99292  294  -4.6  92    -5.7  0     0     1001.5   NA       0.0000   9999     1570  0     0    
2019/07/04  21:36:00  BASE  0.15876  251  2.81064  298  -4.6  92    -5.7  0     0     1001.6   NA       0.0000   9999     1640  0     0    
2019/07/04  21:37:00  BASE  0.6468   250  2.1462   302  -4.6  92    -5.7  0     0     1001.6   NA       0.0000   9999     1540  0     0    
2019/07/04  21:38:00  BASE  1.09956  259  1.96392  305  -4.6  92    -5.7  0     0     1001.6   NA       0.0000   9999     1540  0     0    
2019/07/04  21:39:00  BASE  1.6464   259  2.54016  248  -4.6  92    -5.7  0     0     1001.6   NA       0.0000   9999     1570  0     0    
2019/07/04  21:40:00  BASE  2.14032  260  2.54016  258  -4.6  92    -5.7  0     0     1001.6   NA       0.0000   9999     1540  0     0    
2019/07/04  21:41:00  BASE  2.04624  261  2.63424  250  -4.6  92    -5.7  0     0     1001.6   NA       0.0000   9999     1510  0     0    
2019/07/04  21:42:00  BASE  1.79928  262  2.63424  250  -4.6  92    -5.7  0     0     1001.5   NA       0.0000   9999     1510  0     0    
2019/07/04  21:43:00  BASE  1.71108  264  2.63424  250  -4.6  92    -5.7  0     0     1001.5   NA       0.0000   9999     1540  0     0    
2019/07/04  21:44:00  BASE  1.52292  273  2.63424  250  -4.6  92    -5.7  0     0     1001.5   NA       0.0000   9999     1570  0     0    
2019/07/04  21:45:00  BASE  1.3818   280  2.63424  250  -4.6  92    -5.7  0     0     1001.5   NA       0.0000   9999     1640  0     0    
2019/07/04  21:46:00  BASE  1.40532  278  2.63424  250  -4.6  92    -5.7  0     0     1001.6   NA       0.0000   9999     1640  0     0    
2019/07/04  21:47:00  BASE  1.31124  286  2.63424  250  -4.6  92    -5.7  0     0     1001.6   NA       0.0000   9999     1640  0     0    
2019/07/04  21:48:00  BASE  1.15248  295  2.63424  250  -4.6  92    -5.7  0     0     1001.6   NA       0.0000   9999     1670  0     0    
2019/07/04  21:49:00  BASE  1.01136  302  2.63424  250  -4.6  92    -5.7  0     0     1001.6   NA       0.0000   9999     1640  0     0    
2019/07/04  21:50:00  BASE  0.77028  307  2.63424  250  -4.6  92    -5.7  0     0     1001.6   NA       0.0000   9999     1640  0     0    
2019/07/04  21:51:00  BASE  0.87024  312  2.29908  252  -4.6  92    -5.7  0     0     1001.6   NA       0.0000   9999     1640  0     0    
2019/07/04  21:52:00  BASE  1.14072  313  2.29908  252  -4.6  92    -5.7  0     0     1001.6   NA       0.0000   9999     1640  0     0    
2019/07/04  21:53:00  BASE  1.21716  321  1.66404  283  -4.6  92    -5.7  0     0     1001.6   NA       0.0000   9999     1670  0     0    
2019/07/04  21:54:00  BASE  1.2348   336  1.66404  283  -4.6  92    -5.7  0     0     1001.6   NA       0.0000   9999     1610  0     0    
2019/07/04  21:55:00  BASE  1.09368  342  1.66404  283  -4.6  92    -5.7  0     0     1001.6   NA       0.0000   9999     1640  0     0    
2019/07/04  21:56:00  BASE  0.92904  337  1.48176  288  -4.6  92    -5.7  0     0     1001.6   NA       0.0000   9999     1670  0     0    
2019/07/04  21:57:00  BASE  0.84672  331  1.42296  332  -4.6  92    -5.7  0     0     1001.6   NA       0.0000   9999     1610  0     0    
2019/07/04  21:58:00  BASE  0.66444  328  1.42296  332  -4.6  92    -5.7  0     0     1001.6   NA       0.0000   9999     1670  0     0    
2019/07/04  21:59:00  BASE  0.25872  322  1.42296  332  -4.6  92    -5.7  0     0     1001.6   NA       0.0000   9999     1610  0     0    
2019/07/04  22:00:00  BASE  0.3822   321  1.42296  332  -4.6  92    -5.7  0     0     1001.6   NA       0.0000   9999     1640  0     0    
2019/07/04  22:01:00  BASE  0.54684  330  1.42296  332  -4.6  92    -5.7  0     0     1001.6   NA       0.0000   9999     1640  0     0    
2019/07/04  22:02:00  BASE  0.59388  332  1.42296  332  -4.6  92    -5.7  0     0     1001.6   NA       0.0000   9999     1670  0     0    
2019/07/04  22:03:00  BASE  0.98196  321  1.39356  346  -4.6  92    -5.7  0     0     1001.6   NA       0.0000   9999     1640  0     0    
2019/07/04  22:04:00  BASE  1.3524   308  1.75224  305  -4.6  92    -5.7  0     0     1001.6   NA       0.0000   9999     1710  0     0    
2019/07/04  22:05:01  BASE  1.5876   302  1.75224  302  -4.6  92    -5.7  0     0     1001.6   NA       0.0000   9999     1710  0     0    
2019/07/04  22:06:00  BASE  1.69932  306  2.1462   308  -4.6  92    -5.7  0     0     1001.6   NA       0.0000   9999     1740  0     0    
2019/07/04  22:07:00  BASE  1.81692  312  2.1756   308  -4.6  92    -5.7  0     0     1001.6   NA       0.0000   9999     1710  0     0    
2019/07/04  22:08:00  BASE  1.78752  316  2.1756   308  -4.6  92    -5.7  0     0     1001.6   NA       0.0000   9999     1710  0     0    
2019/07/04  22:09:00  BASE  2.07564  312  2.96352  297  -4.6  92    -5.7  0     0     1001.6   NA       0.0000   9999     1740  0     0    
2019/07/04  22:10:00  BASE  2.71656  305  3.29868  303  -4.6  92    -5.7  0     0     1001.6   NA       0.0000   9999     1740  0     0    
2019/07/04  22:11:00  BASE  3.10464  304  3.72204  307  -4.6  92    -5.7  0     0     1001.6   NA       0.0000   9999     1710  0     0    
2019/07/04  22:12:00  BASE  2.95176  303  3.72204  307  -4.6  92    -5.7  0     0     1001.6   NA       0.0000   9999     1710  0     0    
2019/07/04  22:13:00  BASE  2.72832  302  3.72204  307  -4.6  92    -5.7  0     0     1001.6   NA       0.0000   9999     1670  0     0    
2019/07/04  22:14:00  BASE  2.54016  307  3.72204  307  -4.6  92    -5.7  0     0     1001.6   NA       0.0000   9999     1740  0     0    
2019/07/04  22:15:00  BASE  2.35788  309  3.72204  307  -4.6  92    -5.7  0     0     1001.6   NA       0.0000   9999     1670  0     0    
2019/07/04  22:16:00  BASE  2.68128  314  3.72204  307  -4.6  92    -5.8  0     0     1001.6   NA       0.0000   9999     1770  0     0    
2019/07/04  22:17:00  BASE  2.91648  321  3.72204  307  -4.6  92    -5.8  0     0     1001.6   NA       0.0000   9999     1740  0     0    
2019/07/04  22:18:00  BASE  2.95176  321  3.72204  307  -4.6  91    -5.8  0     0     1001.6   NA       0.0000   9999     1740  0     0    
2019/07/04  22:19:00  BASE  3.09876  315  3.72204  307  -4.6  91    -5.8  0     0     1001.6   NA       0.0000   9999     1640  0     0    
2019/07/04  22:20:00  BASE  3.08112  312  3.72204  307  -4.6  91    -5.8  0     0     1001.6   NA       0.0000   9999     1610  0     0    
2019/07/04  22:21:00  BASE  2.9106   314  3.65736  313  -4.6  91    -5.8  0     0     1001.6   NA       0.0000   9999     1640  0     0    
2019/07/04  22:22:00  BASE  2.56956  316  3.65736  313  -4.6  91    -5.8  0     0     1001.6   NA       0.0000   9999     1670  0     0    
2019/07/04  22:23:00  BASE  2.28144  314  3.65736  313  -4.6  91    -5.8  0     0     1001.6   NA       0.0000   9999     1570  0     0    
2019/07/04  22:24:00  BASE  2.48136  315  3.65736  313  -4.6  91    -5.8  0     0     1001.6   NA       0.0000   9999     1570  0     0    
2019/07/04  22:25:00  BASE  2.55192  323  3.65736  313  -4.6  91    -5.8  0     0     1001.6   NA       0.0000   9999     1570  0     0    
2019/07/04  22:26:00  BASE  2.2638   322  3.65736  313  -4.6  91    -5.8  0     0     1001.6   NA       0.0000   9999     1610  0     0    
2019/07/04  22:27:00  BASE  2.205    316  3.65736  313  -4.6  91    -5.9  0     0     1001.6   NA       0.0000   9999     1610  0     0    
2019/07/04  22:28:00  BASE  2.04624  321  3.62796  308  -4.6  91    -5.9  0     0     1001.7   NA       0.0000   9999     1610  0     0    
2019/07/04  22:29:00  BASE  1.81104  325  3.234    306  -4.6  91    -5.9  0     0     1001.7   NA       0.0000   9999     1610  0     0    
2019/07/04  22:30:00  BASE  1.84632  326  3.2046   320  -4.6  91    -5.9  0     0     1001.7   NA       0.0000   9999     1640  0     0    
2019/07/04  22:31:00  BASE  2.04036  339  3.2046   320  -4.6  91    -5.9  0     0     1001.7   NA       0.0000   9999     1570  0     0    
2019/07/04  22:32:00  BASE  2.12856  335  3.2046   320  -4.6  91    -5.8  0     0     1001.7   NA       0.0000   9999     1610  0     0    
2019/07/04  22:33:00  BASE  2.13444  321  3.2046   320  -4.6  91    -5.8  0     0     1001.7   NA       0.0000   9999     1710  0     0    
2019/07/04  22:34:00  BASE  2.38728  328  3.1164   334  -4.6  92    -5.8  0     0     1001.7   NA       0.0000   9999     1710  0     0    
2019/07/04  22:35:00  BASE  3.01056  334  3.62796  334  -4.6  92    -5.7  0     0     1001.7   NA       0.0000   9999     1710  0     0    
2019/07/04  22:36:00  BASE  3.47508  334  3.78084  336  -4.6  92    -5.7  0     0     1001.7   NA       0.0000   9999     1740  0     0    
2019/07/04  22:37:00  BASE  3.381    344  3.86904  337  -4.6  92    -5.7  0     0     1001.7   NA       0.0000   9999     1710  0     0    
2019/07/04  22:38:00  BASE  2.89296  354  3.86904  337  -4.7  92    -5.8  0     0     1001.7   NA       0.0000   9999     1710  0     0    
2019/07/04  22:39:00  BASE  2.48724  352  3.86904  337  -4.7  92    -5.8  0     0     1001.7   NA       0.0000   9999     1740  0     0    
2019/07/04  22:40:00  BASE  2.48136  348  3.86904  337  -4.7  92    -5.8  0     0     1001.7   NA       0.0000   9999     1740  0     0    
2019/07/04  22:41:00  BASE  2.81064  345  3.86904  337  -4.7  92    -5.8  0     0     1001.7   NA       0.0000   9999     1740  0     0    
2019/07/04  22:42:00  BASE  2.87532  348  3.86904  337  -4.7  92    -5.8  0     0     1001.7   NA       0.0000   9999     1670  0     0    
2019/07/04  22:43:00  BASE  2.86944  345  3.86904  337  -4.7  92    -5.8  0     0     1001.6   NA       0.0000   9999     1670  0     0    
2019/07/04  22:44:00  BASE  3.05172  336  3.86904  337  -4.7  92    -5.8  0     0     1001.6   NA       0.0000   9999     1610  0     0    
2019/07/04  22:45:00  BASE  3.09876  330  3.86904  337  -4.7  92    -5.8  0     0     1001.6   NA       0.0000   9999     1610  0     0    
2019/07/04  22:46:00  BASE  3.18108  325  3.86904  337  -4.6  92    -5.7  0     0     1001.6   NA       0.0000   9999     1610  0     0    
2019/07/04  22:47:00  BASE  3.33396  326  3.75144  330  -4.6  92    -5.7  0     0     1001.6   NA       0.0000   9999     1670  0     0    
2019/07/04  22:48:00  BASE  3.58092  327  3.83964  332  -4.6  92    -5.7  0     0     1001.6   NA       0.0000   9999     1670  0     0    
2019/07/04  22:49:00  BASE  3.68088  331  4.05132  332  -4.6  92    -5.7  0     0     1001.6   NA       0.0000   9999     1710  0     0    
2019/07/04  22:50:00  BASE  3.51036  335  4.05132  332  -4.6  92    -5.7  0     0     1001.6   NA       0.0000   9999     1740  0     0    
2019/07/04  22:51:00  BASE  3.15756  338  4.05132  332  -4.7  93    -5.7  0     0     1001.6   NA       0.0000   9999     1710  0     0    
2019/07/04  22:52:00  BASE  3.44568  338  4.56876  335  -4.7  93    -5.7  0     0     1001.6   NA       0.0000   9999     1670  0     0    
2019/07/04  22:53:00  BASE  3.85728  336  4.56876  335  -4.7  93    -5.7  0     0     1001.6   NA       0.0000   9999     1670  0     0    
2019/07/04  22:54:00  BASE  3.56916  340  4.56876  335  -4.7  93    -5.7  0     0     1001.6   NA       0.0000   9999     1800  0     0    
2019/07/04  22:55:00  BASE  3.15756  347  4.56876  335  -4.8  93    -5.8  0     0     1001.6   NA       0.0000   9999     1770  0     0    
2019/07/04  22:56:00  BASE  2.9694   355  4.56876  335  -4.8  92    -5.8  0     0     1001.6   NA       0.0000   9999     1800  0     0    
2019/07/04  22:57:00  BASE  2.7636   3    4.56876  335  -4.8  92    -5.9  0     0     1001.6   NA       0.0000   9999     1800  0     0    
2019/07/04  22:58:00  BASE  2.56368  7    4.56876  335  -4.8  92    -5.9  0     0     1001.6   NA       0.0000   9999     1800  0     0    
2019/07/04  22:59:00  BASE  2.48724  0    4.56876  335  -4.8  92    -5.9  0     0     1001.6   NA       0.0000   9999     1770  0     0    
2019/07/04  23:00:00  BASE  2.43432  4    4.56876  335  -4.8  92    -5.9  0     0     1001.6   NA       0.0000   9999     1710  0     0    
2019/07/04  23:01:00  BASE  2.48724  6    4.56876  335  -4.8  92    -5.9  0     0     1001.6   NA       0.0000   9999     1740  0     0    
2019/07/04  23:02:00  BASE  2.69304  351  4.08072  337  -4.8  92    -5.9  0     0     1001.7   NA       0.0000   9999     1770  0     0    
2019/07/04  23:03:00  BASE  3.03408  338  3.81024  322  -4.8  92    -5.9  0     0     1001.7   NA       0.0000   9999     1770  0     0    
2019/07/04  23:04:00  BASE  3.27516  332  3.81024  322  -4.7  92    -5.8  0     0     1001.7   NA       0.0000   9999     1740  0     0    
2019/07/04  23:05:00  BASE  3.11052  337  3.81024  322  -4.8  92    -5.9  0     0     1001.7   NA       0.0000   9999     1670  0     0    
2019/07/04  23:06:00  BASE  2.7342   344  3.81024  322  -4.8  92    -5.9  0     0     1001.7   NA       0.0000   9999     1740  0     0    
2019/07/04  23:07:00  BASE  2.40492  341  3.81024  322  -4.8  92    -5.9  0     0     1001.7   NA       0.0000   9999     1740  0     0    
2019/07/04  23:08:00  BASE  2.3226   337  3.81024  322  -4.8  92    -5.9  0     0     1001.7   NA       0.0000   9999     1770  0     0    
2019/07/04  23:09:00  BASE  2.79888  341  3.81024  322  -4.8  92    -5.9  0     0     1001.7   NA       0.0000   9999     1770  0     0    
2019/07/04  23:10:00  BASE  3.1458   342  3.81024  322  -4.8  92    -5.9  0     0     1001.7   NA       0.0000   9999     1740  0     0    
2019/07/04  23:11:00  BASE  3.31632  331  3.81024  322  -4.8  92    -5.9  0     0     1001.7   NA       0.0000   9999     1710  0     0    
2019/07/04  23:12:00  BASE  3.29868  321  3.81024  322  -4.8  92    -5.9  0     0     1001.8   NA       0.0000   9999     1670  0     0    
2019/07/04  23:13:00  BASE  2.65188  318  3.75144  321  -4.8  92    -5.9  0     0     1001.8   NA       0.0000   9999     1570  0     0    
2019/07/04  23:14:01  BASE  2.22852  316  3.75144  321  -4.8  92    -5.9  0     0     1001.8   NA       0.0000   9999     1540  0     0    
2019/07/04  23:15:00  BASE  2.07564  325  3.75144  321  -4.8  92    -5.9  0     0     1001.8   NA       0.0000   9999     1640  0     0    
2019/07/04  23:16:00  BASE  1.74048  342  3.75144  321  -4.8  92    -5.9  0     0     1001.8   NA       0.0000   9999     1510  0     0    
2019/07/04  23:17:00  BASE  1.31712  354  3.75144  321  -4.8  92    -5.9  0     0     1001.8   NA       0.0000   9999     1570  0     0    
2019/07/04  23:18:00  BASE  1.25244  24   3.75144  321  -4.8  92    -6.0  0     0     1001.8   NA       0.0000   9999     1740  0     0    
2019/07/04  23:19:00  BASE  1.42884  62   3.75144  321  -4.8  91    -6.0  0     0     1001.8   NA       0.0000   9999     1770  0     0    
2019/07/04  23:20:00  BASE  1.4406   75   3.75144  321  -4.8  91    -6.0  0     0     1001.8   NA       0.0000   9999     1640  0     0    
2019/07/04  23:21:00  BASE  1.64052  84   3.51036  332  -4.8  91    -6.0  0     0     1001.8   NA       0.0000   9999     1800  0     0    
2019/07/04  23:22:00  BASE  1.66404  79   2.78124  325  -4.8  91    -6.1  0     0     1001.8   NA       0.0000   9999     1840  0     0    
2019/07/04  23:23:00  BASE  1.1172   68   2.48136  315  -4.8  91    -6.1  0     0     1001.8   NA       0.0000   9999     1840  0     0    
2019/07/04  23:24:00  BASE  0.65856  69   2.42256  325  -4.8  90    -6.1  0     0     1001.7   NA       0.0000   9999     1870  0     0    
2019/07/04  23:25:00  BASE  0.8526   62   2.35788  67   -4.8  90    -6.2  0     0     1001.8   NA       0.0000   9999     1870  0     0    
2019/07/04  23:26:00  BASE  0.65856  32   2.35788  67   -4.8  90    -6.2  0     0     1001.8   NA       0.0000   9999     1840  0     0    
2019/07/04  23:27:00  BASE  0.12348  22   2.35788  67   -4.8  90    -6.2  0     0     1001.8   NA       0.0000   9999     1740  0     0    
2019/07/04  23:28:00  BASE  0.0294   14   2.35788  67   -4.8  90    -6.2  0     0     1001.8   NA       0.0000   9999     1800  0     0    
2019/07/04  23:29:00  BASE  0        344  2.29908  85   -4.8  90    -6.2  0     0     1001.8   NA       0.0000   9999     1840  0     0    
2019/07/04  23:30:00  BASE  0        343  2.29908  85   -4.7  89    -6.2  0     0     1001.8   NA       0.0000   9999     1840  0     0    
2019/07/04  23:31:00  BASE  0.34104  19   1.96392  85   -4.7  89    -6.2  0     0     1001.8   NA       0.0000   9999     1770  0     0    
2019/07/04  23:32:00  BASE  0.77616  24   1.42296  38   -4.7  89    -6.3  0     0     1001.8   NA       0.0000   9999     1800  0     0    
2019/07/04  23:33:00  BASE  0.69972  353  1.42296  38   -4.7  89    -6.3  0     0     1001.8   NA       0.0000   9999     1800  0     0    
2019/07/04  23:34:00  BASE  0.40572  348  1.42296  38   -4.7  89    -6.3  0     0     1001.8   NA       0.0000   9999     1840  0     0    
2019/07/04  23:35:00  BASE  0.28812  0    0.9996   18   -4.7  89    -6.3  0     0     1001.9   NA       0.0000   9999     1800  0     0    
2019/07/04  23:36:00  BASE  0.86436  11   1.9992   24   -4.7  89    -6.3  0     0     1002.0   NA       0.0000   9999     1800  0     0    
2019/07/04  23:37:00  BASE  1.71108  14   2.21088  17   -4.7  89    -6.3  0     0     1002.0   NA       0.0000   9999     1800  0     0    
2019/07/04  23:38:00  BASE  2.04036  7    2.29908  360  -4.7  89    -6.2  0     0     1001.9   NA       0.0000   9999     1800  0     0    
2019/07/04  23:39:00  BASE  2.0286   2    2.38728  355  -4.7  89    -6.2  0     0     1001.8   NA       0.0000   9999     1800  0     0    
2019/07/04  23:40:00  BASE  1.89924  10   2.38728  355  -4.7  89    -6.2  0     0     1001.8   NA       0.0000   9999     1770  0     0    
2019/07/04  23:41:00  BASE  1.80516  14   2.38728  355  -4.7  89    -6.2  0     0     1001.8   NA       0.0000   9999     1770  0     0    
2019/07/04  23:42:00  BASE  1.45236  3    2.38728  355  -4.7  90    -6.2  0     0     1001.8   NA       0.0000   9999     1710  0     0    
2019/07/04  23:43:00  BASE  1.18188  354  2.38728  355  -4.7  90    -6.1  0     0     1001.8   NA       0.0000   9999     1740  0     0    
2019/07/04  23:44:00  BASE  1.28184  1    2.38728  355  -4.7  90    -6.1  0     0     1001.8   NA       0.0000   9999     1640  0     0    
2019/07/04  23:45:00  BASE  1.46412  6    2.38728  355  -4.7  90    -6.1  0     0     1001.8   NA       0.0000   9999     1610  0     0    
2019/07/04  23:46:00  BASE  1.59348  4    2.38728  355  -4.7  90    -6.1  0     0     1001.8   NA       0.0000   9999     1740  0     0    
2019/07/04  23:47:00  BASE  1.51704  6    2.38728  355  -4.7  91    -6.0  0     0     1001.8   NA       0.0000   9999     1710  0     0    
2019/07/04  23:48:00  BASE  1.37592  7    2.38728  355  -4.7  91    -6.0  0     0     1001.8   NA       0.0000   9999     1670  0     0    
2019/07/04  23:49:00  BASE  1.56408  4    2.1756   18   -4.7  91    -6.0  0     0     1001.8   NA       0.0000   9999     1670  0     0    
2019/07/04  23:50:00  BASE  1.71696  2    2.1756   18   -4.7  91    -6.0  0     0     1001.8   NA       0.0000   9999     1740  0     0    
2019/07/04  23:51:00  BASE  1.5876   356  1.96392  353  -4.7  91    -5.9  0     0     1001.8   NA       0.0000   9999     1710  0     0    
2019/07/04  23:52:00  BASE  1.81692  1    2.24028  354  -4.7  91    -5.9  0     0     1001.8   NA       0.0000   9999     1740  0     0    
2019/07/04  23:53:00  BASE  2.05212  3    2.24028  360  -4.7  91    -5.9  0     0     1001.8   NA       0.0000   9999     1740  0     0    
2019/07/04  23:54:00  BASE  2.18148  358  2.51076  3    -4.7  91    -5.9  0     0     1001.8   NA       0.0000   9999     1740  0     0    
2019/07/04  23:55:00  BASE  2.29908  355  2.69304  331  -4.7  91    -5.9  0     0     1001.8   NA       0.0000   9999     1710  0     0    
2019/07/04  23:56:00  BASE  2.18148  343  2.69304  331  -4.7  91    -5.9  0     0     1001.8   NA       0.0000   9999     1710  0     0    
2019/07/04  23:57:00  BASE  1.93452  341  2.69304  331  -4.7  91    -5.9  0     0     1001.8   NA       0.0000   9999     1740  0     0    
2019/07/04  23:58:00  BASE  1.61112  354  2.69304  331  -4.7  92    -5.8  0     0     1001.9   NA       0.0000   9999     1740  0     0    
2019/07/04  23:59:00  BASE  1.4406   6    2.69304  331  -4.7  92    -5.8  0     0     1002.0   NA       0.0000   9999     1670  0     0